<?xml version="1.0" encoding="UTF-8" standalone="no" ?>
<gpx xmlns="http://www.topografix.com/GPX/1/1" xmlns:xsi="http://www.w3.org/2001/XMLSchema-instance" xsi:schemaLocation="http://www.topografix.com/GPX/1/1 http://www.topografix.com/GPX/1/1/gpx.xsd" version="1.1" creator="VisuGPX - https://www.visugpx.com">
  <metadata>
    <name>Les cascades-18-sept-2021-Viewranger</name>
  </metadata>
  <wpt lat="45.5882" lon="2.80307">
    <ele>1022</ele>
    <name><![CDATA[01-prends toi garde]]></name>
    <type><![CDATA[pk]]></type>
  </wpt>
  <wpt lat="45.58787" lon="2.81451">
    <ele>1073</ele>
    <name><![CDATA[02-cascade les Queureuilh]]></name>
    <type><![CDATA[drink]]></type>
  </wpt>
  <wpt lat="45.59463" lon="2.82443">
    <ele>1186.3</ele>
    <name><![CDATA[03-en-cas]]></name>
  </wpt>
  <wpt lat="45.5967" lon="2.85033">
    <ele>1401</ele>
    <name><![CDATA[04-montée du puy se la tache]]></name>
  </wpt>
  <wpt lat="45.59216" lon="2.84492">
    <ele>1622.9</ele>
    <name><![CDATA[Puy de la tache-1]]></name>
    <type><![CDATA[sommet]]></type>
  </wpt>
  <wpt lat="45.59218" lon="2.84462">
    <ele>1623.5</ele>
    <name><![CDATA[Puy de la tache _2]]></name>
    <type><![CDATA[sommet]]></type>
  </wpt>
  <wpt lat="45.58233" lon="2.84456">
    <ele>1661.2</ele>
    <name><![CDATA[Puy de Monne 1692m]]></name>
  </wpt>
  <wpt lat="45.57815" lon="2.8396">
    <ele>1697.9</ele>
    <name><![CDATA[Puy de Barbier 1702m]]></name>
  </wpt>
  <wpt lat="45.573" lon="2.83988">
    <ele>1732.3</ele>
    <name><![CDATA[Puy de langle 1738m]]></name>
  </wpt>
  <wpt lat="45.56385" lon="2.83079">
    <ele>1436.7</ele>
    <name><![CDATA[Creux des boeufs]]></name>
  </wpt>
  <wpt lat="45.56585" lon="2.82007">
    <ele>1315.7</ele>
    <name><![CDATA[La grande cascade]]></name>
    <type><![CDATA[drink]]></type>
  </wpt>
  <wpt lat="45.57353" lon="2.81164">
    <ele>1055.3</ele>
    <name><![CDATA[arrivée]]></name>
  </wpt>
  <wpt lat="45.57345" lon="2.81131">
    <ele>1047.5</ele>
    <name><![CDATA[Départ]]></name>
  </wpt>
  <trk>
    <name><![CDATA[Les cascades-18-sept-2021-Viewranger]]></name>
    <extensions>
      <line xmlns="http://www.topografix.com/GPX/gpx_style/0/2">
        <color>0000FF</color>
        <width>4</width>
      </line>
    </extensions>
    <trkseg>
      <trkpt lat="45.57345" lon="2.8113">
        <ele>1097.9</ele>
        <time>2021-09-18T06:43:05.000Z</time>
      </trkpt>
      <trkpt lat="45.57344" lon="2.81142">
        <ele>1100.6</ele>
        <time>2021-09-18T06:44:18.000Z</time>
      </trkpt>
      <trkpt lat="45.57346" lon="2.81155">
        <ele>1101.2</ele>
        <time>2021-09-18T06:44:23.000Z</time>
      </trkpt>
      <trkpt lat="45.57349" lon="2.81167">
        <ele>1103.9</ele>
        <time>2021-09-18T06:45:05.000Z</time>
      </trkpt>
      <trkpt lat="45.57355" lon="2.81175">
        <ele>1108.1</ele>
        <time>2021-09-18T06:45:17.000Z</time>
      </trkpt>
      <trkpt lat="45.57361" lon="2.81184">
        <ele>1110.9</ele>
        <time>2021-09-18T06:45:38.000Z</time>
      </trkpt>
      <trkpt lat="45.5736" lon="2.81196">
        <ele>1111.8</ele>
        <time>2021-09-18T06:45:53.000Z</time>
      </trkpt>
      <trkpt lat="45.57362" lon="2.81208">
        <ele>1116.4</ele>
        <time>2021-09-18T06:46:29.000Z</time>
      </trkpt>
      <trkpt lat="45.57368" lon="2.81216">
        <ele>1119</ele>
        <time>2021-09-18T06:46:44.000Z</time>
      </trkpt>
      <trkpt lat="45.57366" lon="2.81228">
        <ele>1122.3</ele>
        <time>2021-09-18T06:47:08.000Z</time>
      </trkpt>
      <trkpt lat="45.57363" lon="2.81239">
        <ele>1122.4</ele>
        <time>2021-09-18T06:47:29.000Z</time>
      </trkpt>
      <trkpt lat="45.57356" lon="2.81246">
        <ele>1125.1</ele>
        <time>2021-09-18T06:47:36.000Z</time>
      </trkpt>
      <trkpt lat="45.57358" lon="2.81257">
        <ele>1126.4</ele>
        <time>2021-09-18T06:47:59.000Z</time>
      </trkpt>
      <trkpt lat="45.57367" lon="2.81259">
        <ele>1130.3</ele>
        <time>2021-09-18T06:48:11.000Z</time>
      </trkpt>
      <trkpt lat="45.57376" lon="2.81257">
        <ele>1136.3</ele>
        <time>2021-09-18T06:48:37.000Z</time>
      </trkpt>
      <trkpt lat="45.57384" lon="2.81259">
        <ele>1144.8</ele>
        <time>2021-09-18T06:50:05.000Z</time>
      </trkpt>
      <trkpt lat="45.5739" lon="2.81249">
        <ele>1147.5</ele>
        <time>2021-09-18T06:50:45.000Z</time>
      </trkpt>
      <trkpt lat="45.57398" lon="2.81245">
        <ele>1150.2</ele>
        <time>2021-09-18T06:56:25.000Z</time>
      </trkpt>
      <trkpt lat="45.57406" lon="2.8124">
        <ele>1149.6</ele>
        <time>2021-09-18T06:56:34.000Z</time>
      </trkpt>
      <trkpt lat="45.57414" lon="2.81235">
        <ele>1149.5</ele>
        <time>2021-09-18T06:56:40.000Z</time>
      </trkpt>
      <trkpt lat="45.57423" lon="2.81234">
        <ele>1151.4</ele>
        <time>2021-09-18T06:56:53.000Z</time>
      </trkpt>
      <trkpt lat="45.5743" lon="2.81231">
        <ele>1152.3</ele>
        <time>2021-09-18T06:56:59.000Z</time>
      </trkpt>
      <trkpt lat="45.57438" lon="2.81229">
        <ele>1153.5</ele>
        <time>2021-09-18T06:57:04.000Z</time>
      </trkpt>
      <trkpt lat="45.57445" lon="2.81228">
        <ele>1155</ele>
        <time>2021-09-18T06:57:08.000Z</time>
      </trkpt>
      <trkpt lat="45.57454" lon="2.81225">
        <ele>1157.9</ele>
        <time>2021-09-18T06:57:15.000Z</time>
      </trkpt>
      <trkpt lat="45.57462" lon="2.81229">
        <ele>1160.2</ele>
        <time>2021-09-18T06:57:30.000Z</time>
      </trkpt>
      <trkpt lat="45.57469" lon="2.81225">
        <ele>1160.9</ele>
        <time>2021-09-18T06:57:42.000Z</time>
      </trkpt>
      <trkpt lat="45.57478" lon="2.81225">
        <ele>1160.9</ele>
        <time>2021-09-18T06:57:49.000Z</time>
      </trkpt>
      <trkpt lat="45.57491" lon="2.81227">
        <ele>1161.9</ele>
        <time>2021-09-18T06:57:54.000Z</time>
      </trkpt>
      <trkpt lat="45.57504" lon="2.81232">
        <ele>1163.2</ele>
        <time>2021-09-18T06:57:58.000Z</time>
      </trkpt>
      <trkpt lat="45.57514" lon="2.81233">
        <ele>1164.8</ele>
        <time>2021-09-18T06:58:03.000Z</time>
      </trkpt>
      <trkpt lat="45.57522" lon="2.81231">
        <ele>1166.2</ele>
        <time>2021-09-18T06:58:10.000Z</time>
      </trkpt>
      <trkpt lat="45.57531" lon="2.81229">
        <ele>1166.2</ele>
        <time>2021-09-18T06:58:16.000Z</time>
      </trkpt>
      <trkpt lat="45.57538" lon="2.81222">
        <ele>1166.1</ele>
        <time>2021-09-18T06:58:23.000Z</time>
      </trkpt>
      <trkpt lat="45.57545" lon="2.81214">
        <ele>1167.2</ele>
        <time>2021-09-18T06:58:32.000Z</time>
      </trkpt>
      <trkpt lat="45.57552" lon="2.81207">
        <ele>1165.7</ele>
        <time>2021-09-18T06:58:39.000Z</time>
      </trkpt>
      <trkpt lat="45.5756" lon="2.81201">
        <ele>1166.1</ele>
        <time>2021-09-18T06:58:50.000Z</time>
      </trkpt>
      <trkpt lat="45.57569" lon="2.81196">
        <ele>1165</ele>
        <time>2021-09-18T06:58:55.000Z</time>
      </trkpt>
      <trkpt lat="45.57575" lon="2.81187">
        <ele>1165.2</ele>
        <time>2021-09-18T06:59:00.000Z</time>
      </trkpt>
      <trkpt lat="45.57581" lon="2.81179">
        <ele>1163.6</ele>
        <time>2021-09-18T06:59:07.000Z</time>
      </trkpt>
      <trkpt lat="45.57588" lon="2.81171">
        <ele>1162</ele>
        <time>2021-09-18T06:59:13.000Z</time>
      </trkpt>
      <trkpt lat="45.57593" lon="2.8116">
        <ele>1159.3</ele>
        <time>2021-09-18T06:59:20.000Z</time>
      </trkpt>
      <trkpt lat="45.57598" lon="2.8115">
        <ele>1157.4</ele>
        <time>2021-09-18T06:59:29.000Z</time>
      </trkpt>
      <trkpt lat="45.57603" lon="2.81139">
        <ele>1158.1</ele>
        <time>2021-09-18T06:59:37.000Z</time>
      </trkpt>
      <trkpt lat="45.57608" lon="2.8113">
        <ele>1158.9</ele>
        <time>2021-09-18T06:59:45.000Z</time>
      </trkpt>
      <trkpt lat="45.57614" lon="2.81123">
        <ele>1158.4</ele>
        <time>2021-09-18T06:59:50.000Z</time>
      </trkpt>
      <trkpt lat="45.5762" lon="2.81115">
        <ele>1158.3</ele>
        <time>2021-09-18T06:59:58.000Z</time>
      </trkpt>
      <trkpt lat="45.57627" lon="2.81108">
        <ele>1158.1</ele>
        <time>2021-09-18T07:00:06.000Z</time>
      </trkpt>
      <trkpt lat="45.57635" lon="2.81101">
        <ele>1156.9</ele>
        <time>2021-09-18T07:00:14.000Z</time>
      </trkpt>
      <trkpt lat="45.57642" lon="2.81095">
        <ele>1157.4</ele>
        <time>2021-09-18T07:00:21.000Z</time>
      </trkpt>
      <trkpt lat="45.5765" lon="2.81092">
        <ele>1157.2</ele>
        <time>2021-09-18T07:00:29.000Z</time>
      </trkpt>
      <trkpt lat="45.57656" lon="2.81085">
        <ele>1157.3</ele>
        <time>2021-09-18T07:00:37.000Z</time>
      </trkpt>
      <trkpt lat="45.57664" lon="2.81079">
        <ele>1157.4</ele>
        <time>2021-09-18T07:00:44.000Z</time>
      </trkpt>
      <trkpt lat="45.5767" lon="2.8107">
        <ele>1155.9</ele>
        <time>2021-09-18T07:00:52.000Z</time>
      </trkpt>
      <trkpt lat="45.57677" lon="2.81065">
        <ele>1155.9</ele>
        <time>2021-09-18T07:00:59.000Z</time>
      </trkpt>
      <trkpt lat="45.57684" lon="2.81061">
        <ele>1156</ele>
        <time>2021-09-18T07:01:05.000Z</time>
      </trkpt>
      <trkpt lat="45.57693" lon="2.81058">
        <ele>1156.3</ele>
        <time>2021-09-18T07:01:11.000Z</time>
      </trkpt>
      <trkpt lat="45.577" lon="2.81056">
        <ele>1155.8</ele>
        <time>2021-09-18T07:01:18.000Z</time>
      </trkpt>
      <trkpt lat="45.57709" lon="2.81053">
        <ele>1155.9</ele>
        <time>2021-09-18T07:01:25.000Z</time>
      </trkpt>
      <trkpt lat="45.57717" lon="2.81051">
        <ele>1155.4</ele>
        <time>2021-09-18T07:01:31.000Z</time>
      </trkpt>
      <trkpt lat="45.57725" lon="2.81046">
        <ele>1155.6</ele>
        <time>2021-09-18T07:01:46.000Z</time>
      </trkpt>
      <trkpt lat="45.57732" lon="2.81041">
        <ele>1155.9</ele>
        <time>2021-09-18T07:01:52.000Z</time>
      </trkpt>
      <trkpt lat="45.57741" lon="2.81038">
        <ele>1155.6</ele>
        <time>2021-09-18T07:02:02.000Z</time>
      </trkpt>
      <trkpt lat="45.57749" lon="2.81039">
        <ele>1156.7</ele>
        <time>2021-09-18T07:02:14.000Z</time>
      </trkpt>
      <trkpt lat="45.57756" lon="2.81037">
        <ele>1156.7</ele>
        <time>2021-09-18T07:02:22.000Z</time>
      </trkpt>
      <trkpt lat="45.57764" lon="2.81034">
        <ele>1157.5</ele>
        <time>2021-09-18T07:02:27.000Z</time>
      </trkpt>
      <trkpt lat="45.5777" lon="2.81029">
        <ele>1156.9</ele>
        <time>2021-09-18T07:02:36.000Z</time>
      </trkpt>
      <trkpt lat="45.57778" lon="2.81027">
        <ele>1155.5</ele>
        <time>2021-09-18T07:02:42.000Z</time>
      </trkpt>
      <trkpt lat="45.57785" lon="2.81022">
        <ele>1156.3</ele>
        <time>2021-09-18T07:02:50.000Z</time>
      </trkpt>
      <trkpt lat="45.57793" lon="2.81019">
        <ele>1156.1</ele>
        <time>2021-09-18T07:02:59.000Z</time>
      </trkpt>
      <trkpt lat="45.57802" lon="2.81015">
        <ele>1155</ele>
        <time>2021-09-18T07:03:09.000Z</time>
      </trkpt>
      <trkpt lat="45.5781" lon="2.81014">
        <ele>1155.1</ele>
        <time>2021-09-18T07:03:15.000Z</time>
      </trkpt>
      <trkpt lat="45.57818" lon="2.8101">
        <ele>1155.2</ele>
        <time>2021-09-18T07:03:23.000Z</time>
      </trkpt>
      <trkpt lat="45.57827" lon="2.81009">
        <ele>1155.5</ele>
        <time>2021-09-18T07:03:27.000Z</time>
      </trkpt>
      <trkpt lat="45.57835" lon="2.81007">
        <ele>1154.9</ele>
        <time>2021-09-18T07:03:38.000Z</time>
      </trkpt>
      <trkpt lat="45.57843" lon="2.81004">
        <ele>1154.5</ele>
        <time>2021-09-18T07:03:46.000Z</time>
      </trkpt>
      <trkpt lat="45.57851" lon="2.80999">
        <ele>1155.1</ele>
        <time>2021-09-18T07:03:58.000Z</time>
      </trkpt>
      <trkpt lat="45.57858" lon="2.80994">
        <ele>1155.9</ele>
        <time>2021-09-18T07:04:05.000Z</time>
      </trkpt>
      <trkpt lat="45.57867" lon="2.8099">
        <ele>1152.1</ele>
        <time>2021-09-18T07:04:15.000Z</time>
      </trkpt>
      <trkpt lat="45.57874" lon="2.80985">
        <ele>1153.2</ele>
        <time>2021-09-18T07:04:23.000Z</time>
      </trkpt>
      <trkpt lat="45.57882" lon="2.80981">
        <ele>1151.1</ele>
        <time>2021-09-18T07:04:29.000Z</time>
      </trkpt>
      <trkpt lat="45.5789" lon="2.80979">
        <ele>1149.7</ele>
        <time>2021-09-18T07:04:37.000Z</time>
      </trkpt>
      <trkpt lat="45.57898" lon="2.80973">
        <ele>1151.6</ele>
        <time>2021-09-18T07:04:50.000Z</time>
      </trkpt>
      <trkpt lat="45.57904" lon="2.80967">
        <ele>1148.5</ele>
        <time>2021-09-18T07:05:04.000Z</time>
      </trkpt>
      <trkpt lat="45.5791" lon="2.80958">
        <ele>1147.8</ele>
        <time>2021-09-18T07:05:10.000Z</time>
      </trkpt>
      <trkpt lat="45.57916" lon="2.80949">
        <ele>1147.5</ele>
        <time>2021-09-18T07:05:17.000Z</time>
      </trkpt>
      <trkpt lat="45.57925" lon="2.80948">
        <ele>1147.3</ele>
        <time>2021-09-18T07:05:23.000Z</time>
      </trkpt>
      <trkpt lat="45.57932" lon="2.80944">
        <ele>1147.3</ele>
        <time>2021-09-18T07:05:32.000Z</time>
      </trkpt>
      <trkpt lat="45.57939" lon="2.80937">
        <ele>1147</ele>
        <time>2021-09-18T07:05:37.000Z</time>
      </trkpt>
      <trkpt lat="45.57948" lon="2.80937">
        <ele>1147.4</ele>
        <time>2021-09-18T07:05:42.000Z</time>
      </trkpt>
      <trkpt lat="45.57956" lon="2.80936">
        <ele>1144.8</ele>
        <time>2021-09-18T07:05:49.000Z</time>
      </trkpt>
      <trkpt lat="45.57963" lon="2.80932">
        <ele>1143.1</ele>
        <time>2021-09-18T07:05:55.000Z</time>
      </trkpt>
      <trkpt lat="45.5797" lon="2.80928">
        <ele>1141.3</ele>
        <time>2021-09-18T07:06:02.000Z</time>
      </trkpt>
      <trkpt lat="45.57977" lon="2.80922">
        <ele>1140.9</ele>
        <time>2021-09-18T07:06:07.000Z</time>
      </trkpt>
      <trkpt lat="45.57985" lon="2.80917">
        <ele>1140.2</ele>
        <time>2021-09-18T07:06:12.000Z</time>
      </trkpt>
      <trkpt lat="45.57992" lon="2.80912">
        <ele>1142.7</ele>
        <time>2021-09-18T07:06:19.000Z</time>
      </trkpt>
      <trkpt lat="45.57998" lon="2.80905">
        <ele>1142</ele>
        <time>2021-09-18T07:06:25.000Z</time>
      </trkpt>
      <trkpt lat="45.58006" lon="2.809">
        <ele>1140.5</ele>
        <time>2021-09-18T07:06:32.000Z</time>
      </trkpt>
      <trkpt lat="45.58014" lon="2.80898">
        <ele>1137.5</ele>
        <time>2021-09-18T07:06:41.000Z</time>
      </trkpt>
      <trkpt lat="45.58021" lon="2.80891">
        <ele>1137.4</ele>
        <time>2021-09-18T07:06:47.000Z</time>
      </trkpt>
      <trkpt lat="45.58028" lon="2.80883">
        <ele>1138.1</ele>
        <time>2021-09-18T07:06:56.000Z</time>
      </trkpt>
      <trkpt lat="45.58035" lon="2.80877">
        <ele>1136.4</ele>
        <time>2021-09-18T07:07:02.000Z</time>
      </trkpt>
      <trkpt lat="45.58043" lon="2.80872">
        <ele>1136.2</ele>
        <time>2021-09-18T07:07:09.000Z</time>
      </trkpt>
      <trkpt lat="45.5805" lon="2.80865">
        <ele>1134.4</ele>
        <time>2021-09-18T07:07:18.000Z</time>
      </trkpt>
      <trkpt lat="45.58057" lon="2.80858">
        <ele>1133.8</ele>
        <time>2021-09-18T07:07:32.000Z</time>
      </trkpt>
      <trkpt lat="45.58064" lon="2.80853">
        <ele>1132.4</ele>
        <time>2021-09-18T07:07:38.000Z</time>
      </trkpt>
      <trkpt lat="45.58071" lon="2.80848">
        <ele>1130.8</ele>
        <time>2021-09-18T07:07:42.000Z</time>
      </trkpt>
      <trkpt lat="45.58079" lon="2.80844">
        <ele>1128.4</ele>
        <time>2021-09-18T07:07:49.000Z</time>
      </trkpt>
      <trkpt lat="45.58088" lon="2.80839">
        <ele>1127.2</ele>
        <time>2021-09-18T07:07:54.000Z</time>
      </trkpt>
      <trkpt lat="45.58096" lon="2.80839">
        <ele>1129.3</ele>
        <time>2021-09-18T07:07:59.000Z</time>
      </trkpt>
      <trkpt lat="45.58103" lon="2.80833">
        <ele>1129.8</ele>
        <time>2021-09-18T07:08:04.000Z</time>
      </trkpt>
      <trkpt lat="45.58108" lon="2.80823">
        <ele>1131.4</ele>
        <time>2021-09-18T07:08:10.000Z</time>
      </trkpt>
      <trkpt lat="45.58115" lon="2.80817">
        <ele>1132.1</ele>
        <time>2021-09-18T07:08:19.000Z</time>
      </trkpt>
      <trkpt lat="45.58121" lon="2.80812">
        <ele>1133.1</ele>
        <time>2021-09-18T07:08:29.000Z</time>
      </trkpt>
      <trkpt lat="45.58128" lon="2.80804">
        <ele>1132.9</ele>
        <time>2021-09-18T07:08:34.000Z</time>
      </trkpt>
      <trkpt lat="45.58135" lon="2.80799">
        <ele>1127.7</ele>
        <time>2021-09-18T07:08:41.000Z</time>
      </trkpt>
      <trkpt lat="45.58143" lon="2.80795">
        <ele>1127.7</ele>
        <time>2021-09-18T07:08:47.000Z</time>
      </trkpt>
      <trkpt lat="45.5815" lon="2.80788">
        <ele>1126.6</ele>
        <time>2021-09-18T07:08:55.000Z</time>
      </trkpt>
      <trkpt lat="45.58158" lon="2.80784">
        <ele>1126</ele>
        <time>2021-09-18T07:09:03.000Z</time>
      </trkpt>
      <trkpt lat="45.58164" lon="2.80775">
        <ele>1126.6</ele>
        <time>2021-09-18T07:09:11.000Z</time>
      </trkpt>
      <trkpt lat="45.5816" lon="2.80764">
        <ele>1126.2</ele>
        <time>2021-09-18T07:09:35.000Z</time>
      </trkpt>
      <trkpt lat="45.58163" lon="2.80753">
        <ele>1126.4</ele>
        <time>2021-09-18T07:09:47.000Z</time>
      </trkpt>
      <trkpt lat="45.5817" lon="2.80747">
        <ele>1126.7</ele>
        <time>2021-09-18T07:09:53.000Z</time>
      </trkpt>
      <trkpt lat="45.58177" lon="2.80744">
        <ele>1126.9</ele>
        <time>2021-09-18T07:09:58.000Z</time>
      </trkpt>
      <trkpt lat="45.58185" lon="2.80739">
        <ele>1127.1</ele>
        <time>2021-09-18T07:10:06.000Z</time>
      </trkpt>
      <trkpt lat="45.58193" lon="2.80734">
        <ele>1127.2</ele>
        <time>2021-09-18T07:10:13.000Z</time>
      </trkpt>
      <trkpt lat="45.58201" lon="2.80728">
        <ele>1128.4</ele>
        <time>2021-09-18T07:10:21.000Z</time>
      </trkpt>
      <trkpt lat="45.58207" lon="2.8072">
        <ele>1128.6</ele>
        <time>2021-09-18T07:10:28.000Z</time>
      </trkpt>
      <trkpt lat="45.58215" lon="2.80716">
        <ele>1128.8</ele>
        <time>2021-09-18T07:10:36.000Z</time>
      </trkpt>
      <trkpt lat="45.58223" lon="2.80711">
        <ele>1128.9</ele>
        <time>2021-09-18T07:10:44.000Z</time>
      </trkpt>
      <trkpt lat="45.5823" lon="2.80704">
        <ele>1130.1</ele>
        <time>2021-09-18T07:10:52.000Z</time>
      </trkpt>
      <trkpt lat="45.58237" lon="2.80698">
        <ele>1130.3</ele>
        <time>2021-09-18T07:11:00.000Z</time>
      </trkpt>
      <trkpt lat="45.58244" lon="2.8069">
        <ele>1130.9</ele>
        <time>2021-09-18T07:11:10.000Z</time>
      </trkpt>
      <trkpt lat="45.58251" lon="2.80686">
        <ele>1132.1</ele>
        <time>2021-09-18T07:11:16.000Z</time>
      </trkpt>
      <trkpt lat="45.58258" lon="2.80679">
        <ele>1131.9</ele>
        <time>2021-09-18T07:11:22.000Z</time>
      </trkpt>
      <trkpt lat="45.58264" lon="2.80673">
        <ele>1132</ele>
        <time>2021-09-18T07:11:27.000Z</time>
      </trkpt>
      <trkpt lat="45.58271" lon="2.80668">
        <ele>1132</ele>
        <time>2021-09-18T07:11:33.000Z</time>
      </trkpt>
      <trkpt lat="45.58279" lon="2.80662">
        <ele>1132.6</ele>
        <time>2021-09-18T07:11:41.000Z</time>
      </trkpt>
      <trkpt lat="45.58272" lon="2.80659">
        <ele>1132</ele>
        <time>2021-09-18T07:12:15.000Z</time>
      </trkpt>
      <trkpt lat="45.58235" lon="2.80664">
        <ele>1130.4</ele>
        <time>2021-09-18T07:12:19.000Z</time>
      </trkpt>
      <trkpt lat="45.5823" lon="2.80635">
        <ele>1132.7</ele>
        <time>2021-09-18T07:12:24.000Z</time>
      </trkpt>
      <trkpt lat="45.58239" lon="2.80653">
        <ele>1132.1</ele>
        <time>2021-09-18T07:12:28.000Z</time>
      </trkpt>
      <trkpt lat="45.58248" lon="2.80656">
        <ele>1131.6</ele>
        <time>2021-09-18T07:12:47.000Z</time>
      </trkpt>
      <trkpt lat="45.58257" lon="2.80648">
        <ele>1132.2</ele>
        <time>2021-09-18T07:12:51.000Z</time>
      </trkpt>
      <trkpt lat="45.58259" lon="2.80634">
        <ele>1133.3</ele>
        <time>2021-09-18T07:12:55.000Z</time>
      </trkpt>
      <trkpt lat="45.58268" lon="2.80635">
        <ele>1127.3</ele>
        <time>2021-09-18T07:13:02.000Z</time>
      </trkpt>
      <trkpt lat="45.58276" lon="2.80634">
        <ele>1127.8</ele>
        <time>2021-09-18T07:13:08.000Z</time>
      </trkpt>
      <trkpt lat="45.58284" lon="2.80631">
        <ele>1127.4</ele>
        <time>2021-09-18T07:13:13.000Z</time>
      </trkpt>
      <trkpt lat="45.5829" lon="2.80621">
        <ele>1127.3</ele>
        <time>2021-09-18T07:13:32.000Z</time>
      </trkpt>
      <trkpt lat="45.58297" lon="2.80614">
        <ele>1125.1</ele>
        <time>2021-09-18T07:13:42.000Z</time>
      </trkpt>
      <trkpt lat="45.58302" lon="2.80604">
        <ele>1123.9</ele>
        <time>2021-09-18T07:13:50.000Z</time>
      </trkpt>
      <trkpt lat="45.58306" lon="2.80593">
        <ele>1122.1</ele>
        <time>2021-09-18T07:14:01.000Z</time>
      </trkpt>
      <trkpt lat="45.58308" lon="2.80582">
        <ele>1120.1</ele>
        <time>2021-09-18T07:14:12.000Z</time>
      </trkpt>
      <trkpt lat="45.58313" lon="2.80571">
        <ele>1118.5</ele>
        <time>2021-09-18T07:14:21.000Z</time>
      </trkpt>
      <trkpt lat="45.58319" lon="2.80563">
        <ele>1116</ele>
        <time>2021-09-18T07:14:32.000Z</time>
      </trkpt>
      <trkpt lat="45.58325" lon="2.80555">
        <ele>1113.9</ele>
        <time>2021-09-18T07:14:42.000Z</time>
      </trkpt>
      <trkpt lat="45.58332" lon="2.80547">
        <ele>1111.9</ele>
        <time>2021-09-18T07:14:52.000Z</time>
      </trkpt>
      <trkpt lat="45.5834" lon="2.80543">
        <ele>1108.8</ele>
        <time>2021-09-18T07:15:07.000Z</time>
      </trkpt>
      <trkpt lat="45.58344" lon="2.80532">
        <ele>1107.1</ele>
        <time>2021-09-18T07:15:15.000Z</time>
      </trkpt>
      <trkpt lat="45.58351" lon="2.80526">
        <ele>1104.6</ele>
        <time>2021-09-18T07:15:25.000Z</time>
      </trkpt>
      <trkpt lat="45.5835" lon="2.80532">
        <ele>1103.9</ele>
        <time>2021-09-18T07:15:36.000Z</time>
      </trkpt>
      <trkpt lat="45.58275" lon="2.80665">
        <ele>1104.1</ele>
        <time>2021-09-18T07:15:54.000Z</time>
      </trkpt>
      <trkpt lat="45.58286" lon="2.80658">
        <ele>1101.4</ele>
        <time>2021-09-18T07:15:57.000Z</time>
      </trkpt>
      <trkpt lat="45.58286" lon="2.80658">
        <ele>1100</ele>
        <time>2021-09-18T07:16:01.000Z</time>
      </trkpt>
      <trkpt lat="45.58296" lon="2.80649">
        <ele>1099.9</ele>
        <time>2021-09-18T07:16:05.000Z</time>
      </trkpt>
      <trkpt lat="45.58296" lon="2.80649">
        <ele>1100.2</ele>
        <time>2021-09-18T07:16:07.000Z</time>
      </trkpt>
      <trkpt lat="45.58309" lon="2.80613">
        <ele>1094.5</ele>
        <time>2021-09-18T07:16:17.000Z</time>
      </trkpt>
      <trkpt lat="45.58309" lon="2.80613">
        <ele>1096.7</ele>
        <time>2021-09-18T07:16:22.000Z</time>
      </trkpt>
      <trkpt lat="45.58312" lon="2.80599">
        <ele>1096.9</ele>
        <time>2021-09-18T07:16:27.000Z</time>
      </trkpt>
      <trkpt lat="45.58312" lon="2.80599">
        <ele>1096.3</ele>
        <time>2021-09-18T07:16:31.000Z</time>
      </trkpt>
      <trkpt lat="45.58326" lon="2.80543">
        <ele>1090.7</ele>
        <time>2021-09-18T07:16:36.000Z</time>
      </trkpt>
      <trkpt lat="45.58326" lon="2.80534">
        <ele>1090.1</ele>
        <time>2021-09-18T07:17:32.000Z</time>
      </trkpt>
      <trkpt lat="45.58329" lon="2.80522">
        <ele>1089</ele>
        <time>2021-09-18T07:17:37.000Z</time>
      </trkpt>
      <trkpt lat="45.58329" lon="2.80522">
        <ele>1087.8</ele>
        <time>2021-09-18T07:17:44.000Z</time>
      </trkpt>
      <trkpt lat="45.58332" lon="2.80498">
        <ele>1086.8</ele>
        <time>2021-09-18T07:17:48.000Z</time>
      </trkpt>
      <trkpt lat="45.58332" lon="2.80485">
        <ele>1084.5</ele>
        <time>2021-09-18T07:17:53.000Z</time>
      </trkpt>
      <trkpt lat="45.5833" lon="2.80473">
        <ele>1080.4</ele>
        <time>2021-09-18T07:18:30.000Z</time>
      </trkpt>
      <trkpt lat="45.58329" lon="2.80464">
        <ele>1078.9</ele>
        <time>2021-09-18T07:18:44.000Z</time>
      </trkpt>
      <trkpt lat="45.58329" lon="2.80456">
        <ele>1079.1</ele>
        <time>2021-09-18T07:18:52.000Z</time>
      </trkpt>
      <trkpt lat="45.58335" lon="2.80447">
        <ele>1075.9</ele>
        <time>2021-09-18T07:19:36.000Z</time>
      </trkpt>
      <trkpt lat="45.58336" lon="2.80434">
        <ele>1075.3</ele>
        <time>2021-09-18T07:19:42.000Z</time>
      </trkpt>
      <trkpt lat="45.58339" lon="2.80423">
        <ele>1069.5</ele>
        <time>2021-09-18T07:20:22.000Z</time>
      </trkpt>
      <trkpt lat="45.58345" lon="2.80415">
        <ele>1067.6</ele>
        <time>2021-09-18T07:20:27.000Z</time>
      </trkpt>
      <trkpt lat="45.58347" lon="2.80402">
        <ele>1065.1</ele>
        <time>2021-09-18T07:20:44.000Z</time>
      </trkpt>
      <trkpt lat="45.58343" lon="2.80391">
        <ele>1060.9</ele>
        <time>2021-09-18T07:21:10.000Z</time>
      </trkpt>
      <trkpt lat="45.58351" lon="2.80389">
        <ele>1057.6</ele>
        <time>2021-09-18T07:23:34.000Z</time>
      </trkpt>
      <trkpt lat="45.58357" lon="2.80381">
        <ele>1056.7</ele>
        <time>2021-09-18T07:26:40.000Z</time>
      </trkpt>
      <trkpt lat="45.58365" lon="2.80376">
        <ele>1055.6</ele>
        <time>2021-09-18T07:26:51.000Z</time>
      </trkpt>
      <trkpt lat="45.58372" lon="2.80369">
        <ele>1055.7</ele>
        <time>2021-09-18T07:26:58.000Z</time>
      </trkpt>
      <trkpt lat="45.58379" lon="2.80364">
        <ele>1054.8</ele>
        <time>2021-09-18T07:27:06.000Z</time>
      </trkpt>
      <trkpt lat="45.58382" lon="2.80356">
        <ele>1054.6</ele>
        <time>2021-09-18T07:27:15.000Z</time>
      </trkpt>
      <trkpt lat="45.58387" lon="2.80346">
        <ele>1053.8</ele>
        <time>2021-09-18T07:27:21.000Z</time>
      </trkpt>
      <trkpt lat="45.58394" lon="2.8034">
        <ele>1054.6</ele>
        <time>2021-09-18T07:27:28.000Z</time>
      </trkpt>
      <trkpt lat="45.58402" lon="2.80335">
        <ele>1055.2</ele>
        <time>2021-09-18T07:27:36.000Z</time>
      </trkpt>
      <trkpt lat="45.58409" lon="2.80329">
        <ele>1055.3</ele>
        <time>2021-09-18T07:27:47.000Z</time>
      </trkpt>
      <trkpt lat="45.58416" lon="2.80321">
        <ele>1056.2</ele>
        <time>2021-09-18T07:27:56.000Z</time>
      </trkpt>
      <trkpt lat="45.58425" lon="2.80317">
        <ele>1056.6</ele>
        <time>2021-09-18T07:28:02.000Z</time>
      </trkpt>
      <trkpt lat="45.58432" lon="2.8031">
        <ele>1057.3</ele>
        <time>2021-09-18T07:28:10.000Z</time>
      </trkpt>
      <trkpt lat="45.58439" lon="2.80308">
        <ele>1057.7</ele>
        <time>2021-09-18T07:28:19.000Z</time>
      </trkpt>
      <trkpt lat="45.58447" lon="2.80304">
        <ele>1058.2</ele>
        <time>2021-09-18T07:28:23.000Z</time>
      </trkpt>
      <trkpt lat="45.58454" lon="2.80301">
        <ele>1059</ele>
        <time>2021-09-18T07:28:29.000Z</time>
      </trkpt>
      <trkpt lat="45.58462" lon="2.80295">
        <ele>1059.4</ele>
        <time>2021-09-18T07:28:36.000Z</time>
      </trkpt>
      <trkpt lat="45.5847" lon="2.8029">
        <ele>1058.4</ele>
        <time>2021-09-18T07:28:44.000Z</time>
      </trkpt>
      <trkpt lat="45.58476" lon="2.80283">
        <ele>1060.3</ele>
        <time>2021-09-18T07:28:52.000Z</time>
      </trkpt>
      <trkpt lat="45.58482" lon="2.80276">
        <ele>1060.8</ele>
        <time>2021-09-18T07:28:58.000Z</time>
      </trkpt>
      <trkpt lat="45.5849" lon="2.80272">
        <ele>1061.1</ele>
        <time>2021-09-18T07:29:04.000Z</time>
      </trkpt>
      <trkpt lat="45.58497" lon="2.80267">
        <ele>1062.3</ele>
        <time>2021-09-18T07:29:13.000Z</time>
      </trkpt>
      <trkpt lat="45.58506" lon="2.80263">
        <ele>1062.1</ele>
        <time>2021-09-18T07:29:20.000Z</time>
      </trkpt>
      <trkpt lat="45.58514" lon="2.80258">
        <ele>1062.8</ele>
        <time>2021-09-18T07:29:28.000Z</time>
      </trkpt>
      <trkpt lat="45.5852" lon="2.8025">
        <ele>1062.5</ele>
        <time>2021-09-18T07:29:35.000Z</time>
      </trkpt>
      <trkpt lat="45.58527" lon="2.80246">
        <ele>1062.9</ele>
        <time>2021-09-18T07:29:41.000Z</time>
      </trkpt>
      <trkpt lat="45.58535" lon="2.8024">
        <ele>1063.8</ele>
        <time>2021-09-18T07:29:49.000Z</time>
      </trkpt>
      <trkpt lat="45.58543" lon="2.80235">
        <ele>1063.7</ele>
        <time>2021-09-18T07:29:57.000Z</time>
      </trkpt>
      <trkpt lat="45.58551" lon="2.80229">
        <ele>1064.8</ele>
        <time>2021-09-18T07:30:04.000Z</time>
      </trkpt>
      <trkpt lat="45.58558" lon="2.80222">
        <ele>1064.9</ele>
        <time>2021-09-18T07:30:14.000Z</time>
      </trkpt>
      <trkpt lat="45.58565" lon="2.80215">
        <ele>1065</ele>
        <time>2021-09-18T07:30:21.000Z</time>
      </trkpt>
      <trkpt lat="45.58572" lon="2.8021">
        <ele>1065.3</ele>
        <time>2021-09-18T07:30:28.000Z</time>
      </trkpt>
      <trkpt lat="45.5858" lon="2.80203">
        <ele>1065.6</ele>
        <time>2021-09-18T07:30:36.000Z</time>
      </trkpt>
      <trkpt lat="45.58587" lon="2.80195">
        <ele>1066.4</ele>
        <time>2021-09-18T07:30:44.000Z</time>
      </trkpt>
      <trkpt lat="45.58594" lon="2.80189">
        <ele>1066.4</ele>
        <time>2021-09-18T07:30:50.000Z</time>
      </trkpt>
      <trkpt lat="45.58601" lon="2.80184">
        <ele>1067.4</ele>
        <time>2021-09-18T07:30:56.000Z</time>
      </trkpt>
      <trkpt lat="45.58609" lon="2.80181">
        <ele>1067.8</ele>
        <time>2021-09-18T07:31:04.000Z</time>
      </trkpt>
      <trkpt lat="45.58617" lon="2.80179">
        <ele>1068.2</ele>
        <time>2021-09-18T07:31:10.000Z</time>
      </trkpt>
      <trkpt lat="45.58625" lon="2.80177">
        <ele>1068.3</ele>
        <time>2021-09-18T07:31:17.000Z</time>
      </trkpt>
      <trkpt lat="45.58633" lon="2.80173">
        <ele>1069.3</ele>
        <time>2021-09-18T07:31:24.000Z</time>
      </trkpt>
      <trkpt lat="45.58642" lon="2.80169">
        <ele>1069.1</ele>
        <time>2021-09-18T07:31:32.000Z</time>
      </trkpt>
      <trkpt lat="45.5865" lon="2.80166">
        <ele>1069.5</ele>
        <time>2021-09-18T07:31:39.000Z</time>
      </trkpt>
      <trkpt lat="45.58658" lon="2.80166">
        <ele>1069.3</ele>
        <time>2021-09-18T07:31:45.000Z</time>
      </trkpt>
      <trkpt lat="45.58666" lon="2.80166">
        <ele>1069.4</ele>
        <time>2021-09-18T07:31:52.000Z</time>
      </trkpt>
      <trkpt lat="45.58675" lon="2.80164">
        <ele>1069.3</ele>
        <time>2021-09-18T07:32:00.000Z</time>
      </trkpt>
      <trkpt lat="45.58683" lon="2.80163">
        <ele>1069.6</ele>
        <time>2021-09-18T07:32:07.000Z</time>
      </trkpt>
      <trkpt lat="45.58691" lon="2.80162">
        <ele>1069.5</ele>
        <time>2021-09-18T07:32:14.000Z</time>
      </trkpt>
      <trkpt lat="45.587" lon="2.80163">
        <ele>1069.5</ele>
        <time>2021-09-18T07:32:21.000Z</time>
      </trkpt>
      <trkpt lat="45.58708" lon="2.80162">
        <ele>1070.2</ele>
        <time>2021-09-18T07:32:27.000Z</time>
      </trkpt>
      <trkpt lat="45.58716" lon="2.80161">
        <ele>1070.3</ele>
        <time>2021-09-18T07:32:33.000Z</time>
      </trkpt>
      <trkpt lat="45.58725" lon="2.80161">
        <ele>1070.6</ele>
        <time>2021-09-18T07:32:40.000Z</time>
      </trkpt>
      <trkpt lat="45.58733" lon="2.80164">
        <ele>1069.9</ele>
        <time>2021-09-18T07:32:48.000Z</time>
      </trkpt>
      <trkpt lat="45.58741" lon="2.80167">
        <ele>1070.1</ele>
        <time>2021-09-18T07:32:55.000Z</time>
      </trkpt>
      <trkpt lat="45.58749" lon="2.80173">
        <ele>1070.6</ele>
        <time>2021-09-18T07:33:03.000Z</time>
      </trkpt>
      <trkpt lat="45.58755" lon="2.8018">
        <ele>1070.3</ele>
        <time>2021-09-18T07:33:09.000Z</time>
      </trkpt>
      <trkpt lat="45.58762" lon="2.80188">
        <ele>1069.9</ele>
        <time>2021-09-18T07:33:16.000Z</time>
      </trkpt>
      <trkpt lat="45.58767" lon="2.80197">
        <ele>1070.7</ele>
        <time>2021-09-18T07:33:25.000Z</time>
      </trkpt>
      <trkpt lat="45.58773" lon="2.80207">
        <ele>1071</ele>
        <time>2021-09-18T07:33:32.000Z</time>
      </trkpt>
      <trkpt lat="45.5878" lon="2.80214">
        <ele>1071.7</ele>
        <time>2021-09-18T07:33:39.000Z</time>
      </trkpt>
      <trkpt lat="45.58786" lon="2.80222">
        <ele>1072.8</ele>
        <time>2021-09-18T07:33:46.000Z</time>
      </trkpt>
      <trkpt lat="45.58792" lon="2.80231">
        <ele>1073.8</ele>
        <time>2021-09-18T07:33:53.000Z</time>
      </trkpt>
      <trkpt lat="45.58797" lon="2.8024">
        <ele>1073.6</ele>
        <time>2021-09-18T07:34:00.000Z</time>
      </trkpt>
      <trkpt lat="45.58803" lon="2.80248">
        <ele>1073.4</ele>
        <time>2021-09-18T07:34:08.000Z</time>
      </trkpt>
      <trkpt lat="45.58809" lon="2.80256">
        <ele>1074.5</ele>
        <time>2021-09-18T07:34:16.000Z</time>
      </trkpt>
      <trkpt lat="45.58814" lon="2.80266">
        <ele>1074.4</ele>
        <time>2021-09-18T07:34:23.000Z</time>
      </trkpt>
      <trkpt lat="45.58817" lon="2.80277">
        <ele>1076</ele>
        <time>2021-09-18T07:34:30.000Z</time>
      </trkpt>
      <trkpt lat="45.58819" lon="2.80288">
        <ele>1075.1</ele>
        <time>2021-09-18T07:34:38.000Z</time>
      </trkpt>
      <trkpt lat="45.58821" lon="2.803">
        <ele>1075.4</ele>
        <time>2021-09-18T07:34:45.000Z</time>
      </trkpt>
      <trkpt lat="45.58821" lon="2.80312">
        <ele>1075.6</ele>
        <time>2021-09-18T07:34:52.000Z</time>
      </trkpt>
      <trkpt lat="45.58823" lon="2.80324">
        <ele>1075.2</ele>
        <time>2021-09-18T07:35:00.000Z</time>
      </trkpt>
      <trkpt lat="45.58824" lon="2.80336">
        <ele>1076.5</ele>
        <time>2021-09-18T07:35:07.000Z</time>
      </trkpt>
      <trkpt lat="45.58823" lon="2.80347">
        <ele>1077.6</ele>
        <time>2021-09-18T07:35:15.000Z</time>
      </trkpt>
      <trkpt lat="45.58822" lon="2.80359">
        <ele>1077.5</ele>
        <time>2021-09-18T07:35:22.000Z</time>
      </trkpt>
      <trkpt lat="45.5882" lon="2.80371">
        <ele>1077.5</ele>
        <time>2021-09-18T07:35:29.000Z</time>
      </trkpt>
      <trkpt lat="45.58819" lon="2.80383">
        <ele>1078</ele>
        <time>2021-09-18T07:35:36.000Z</time>
      </trkpt>
      <trkpt lat="45.58819" lon="2.80395">
        <ele>1079.2</ele>
        <time>2021-09-18T07:35:47.000Z</time>
      </trkpt>
      <trkpt lat="45.58819" lon="2.80407">
        <ele>1079.7</ele>
        <time>2021-09-18T07:35:54.000Z</time>
      </trkpt>
      <trkpt lat="45.58819" lon="2.8042">
        <ele>1080.4</ele>
        <time>2021-09-18T07:36:02.000Z</time>
      </trkpt>
      <trkpt lat="45.5882" lon="2.80432">
        <ele>1080.8</ele>
        <time>2021-09-18T07:36:11.000Z</time>
      </trkpt>
      <trkpt lat="45.58821" lon="2.80445">
        <ele>1082.3</ele>
        <time>2021-09-18T07:36:21.000Z</time>
      </trkpt>
      <trkpt lat="45.58822" lon="2.80456">
        <ele>1082.4</ele>
        <time>2021-09-18T07:36:28.000Z</time>
      </trkpt>
      <trkpt lat="45.58826" lon="2.80466">
        <ele>1084.1</ele>
        <time>2021-09-18T07:36:34.000Z</time>
      </trkpt>
      <trkpt lat="45.58829" lon="2.80477">
        <ele>1084.7</ele>
        <time>2021-09-18T07:36:41.000Z</time>
      </trkpt>
      <trkpt lat="45.58832" lon="2.80488">
        <ele>1086.6</ele>
        <time>2021-09-18T07:36:49.000Z</time>
      </trkpt>
      <trkpt lat="45.58831" lon="2.805">
        <ele>1087.1</ele>
        <time>2021-09-18T07:36:57.000Z</time>
      </trkpt>
      <trkpt lat="45.58827" lon="2.80511">
        <ele>1087.8</ele>
        <time>2021-09-18T07:37:07.000Z</time>
      </trkpt>
      <trkpt lat="45.58822" lon="2.80522">
        <ele>1088.9</ele>
        <time>2021-09-18T07:37:14.000Z</time>
      </trkpt>
      <trkpt lat="45.58821" lon="2.80535">
        <ele>1089.9</ele>
        <time>2021-09-18T07:37:24.000Z</time>
      </trkpt>
      <trkpt lat="45.58824" lon="2.80546">
        <ele>1090.5</ele>
        <time>2021-09-18T07:37:32.000Z</time>
      </trkpt>
      <trkpt lat="45.58826" lon="2.80557">
        <ele>1091.9</ele>
        <time>2021-09-18T07:37:42.000Z</time>
      </trkpt>
      <trkpt lat="45.58827" lon="2.8057">
        <ele>1092.4</ele>
        <time>2021-09-18T07:37:48.000Z</time>
      </trkpt>
      <trkpt lat="45.58831" lon="2.80579">
        <ele>1093.8</ele>
        <time>2021-09-18T07:38:00.000Z</time>
      </trkpt>
      <trkpt lat="45.58836" lon="2.80589">
        <ele>1093.9</ele>
        <time>2021-09-18T07:38:07.000Z</time>
      </trkpt>
      <trkpt lat="45.5884" lon="2.80599">
        <ele>1096</ele>
        <time>2021-09-18T07:38:16.000Z</time>
      </trkpt>
      <trkpt lat="45.58838" lon="2.80611">
        <ele>1096.7</ele>
        <time>2021-09-18T07:38:21.000Z</time>
      </trkpt>
      <trkpt lat="45.58837" lon="2.80623">
        <ele>1097.5</ele>
        <time>2021-09-18T07:38:29.000Z</time>
      </trkpt>
      <trkpt lat="45.58834" lon="2.80634">
        <ele>1099</ele>
        <time>2021-09-18T07:38:37.000Z</time>
      </trkpt>
      <trkpt lat="45.58834" lon="2.80646">
        <ele>1098.8</ele>
        <time>2021-09-18T07:38:45.000Z</time>
      </trkpt>
      <trkpt lat="45.58837" lon="2.80657">
        <ele>1099.1</ele>
        <time>2021-09-18T07:38:52.000Z</time>
      </trkpt>
      <trkpt lat="45.58842" lon="2.80668">
        <ele>1099.8</ele>
        <time>2021-09-18T07:39:02.000Z</time>
      </trkpt>
      <trkpt lat="45.58844" lon="2.80679">
        <ele>1101.2</ele>
        <time>2021-09-18T07:39:09.000Z</time>
      </trkpt>
      <trkpt lat="45.58845" lon="2.80692">
        <ele>1102.3</ele>
        <time>2021-09-18T07:39:17.000Z</time>
      </trkpt>
      <trkpt lat="45.58844" lon="2.80703">
        <ele>1101.8</ele>
        <time>2021-09-18T07:39:26.000Z</time>
      </trkpt>
      <trkpt lat="45.58845" lon="2.80716">
        <ele>1102.6</ele>
        <time>2021-09-18T07:39:33.000Z</time>
      </trkpt>
      <trkpt lat="45.58847" lon="2.80727">
        <ele>1102.3</ele>
        <time>2021-09-18T07:39:40.000Z</time>
      </trkpt>
      <trkpt lat="45.58851" lon="2.80737">
        <ele>1102.8</ele>
        <time>2021-09-18T07:39:47.000Z</time>
      </trkpt>
      <trkpt lat="45.58853" lon="2.80748">
        <ele>1103.9</ele>
        <time>2021-09-18T07:39:54.000Z</time>
      </trkpt>
      <trkpt lat="45.58853" lon="2.80759">
        <ele>1103.9</ele>
        <time>2021-09-18T07:40:00.000Z</time>
      </trkpt>
      <trkpt lat="45.58853" lon="2.8077">
        <ele>1105.6</ele>
        <time>2021-09-18T07:40:06.000Z</time>
      </trkpt>
      <trkpt lat="45.58856" lon="2.80781">
        <ele>1105.9</ele>
        <time>2021-09-18T07:40:14.000Z</time>
      </trkpt>
      <trkpt lat="45.58856" lon="2.80793">
        <ele>1107</ele>
        <time>2021-09-18T07:40:21.000Z</time>
      </trkpt>
      <trkpt lat="45.58858" lon="2.80805">
        <ele>1108</ele>
        <time>2021-09-18T07:40:30.000Z</time>
      </trkpt>
      <trkpt lat="45.58858" lon="2.80817">
        <ele>1108.2</ele>
        <time>2021-09-18T07:40:38.000Z</time>
      </trkpt>
      <trkpt lat="45.58858" lon="2.8083">
        <ele>1107</ele>
        <time>2021-09-18T07:40:47.000Z</time>
      </trkpt>
      <trkpt lat="45.58859" lon="2.80842">
        <ele>1106.5</ele>
        <time>2021-09-18T07:40:57.000Z</time>
      </trkpt>
      <trkpt lat="45.58858" lon="2.80854">
        <ele>1104.8</ele>
        <time>2021-09-18T07:41:06.000Z</time>
      </trkpt>
      <trkpt lat="45.58856" lon="2.80866">
        <ele>1104.4</ele>
        <time>2021-09-18T07:41:13.000Z</time>
      </trkpt>
      <trkpt lat="45.58854" lon="2.80877">
        <ele>1102.8</ele>
        <time>2021-09-18T07:41:21.000Z</time>
      </trkpt>
      <trkpt lat="45.58849" lon="2.80888">
        <ele>1101.9</ele>
        <time>2021-09-18T07:41:30.000Z</time>
      </trkpt>
      <trkpt lat="45.58842" lon="2.80893">
        <ele>1101.3</ele>
        <time>2021-09-18T07:41:38.000Z</time>
      </trkpt>
      <trkpt lat="45.58839" lon="2.80904">
        <ele>1100.9</ele>
        <time>2021-09-18T07:41:44.000Z</time>
      </trkpt>
      <trkpt lat="45.58835" lon="2.80914">
        <ele>1101.8</ele>
        <time>2021-09-18T07:41:50.000Z</time>
      </trkpt>
      <trkpt lat="45.5883" lon="2.80924">
        <ele>1101</ele>
        <time>2021-09-18T07:41:57.000Z</time>
      </trkpt>
      <trkpt lat="45.58826" lon="2.80934">
        <ele>1099.5</ele>
        <time>2021-09-18T07:42:08.000Z</time>
      </trkpt>
      <trkpt lat="45.58825" lon="2.80945">
        <ele>1099.6</ele>
        <time>2021-09-18T07:42:16.000Z</time>
      </trkpt>
      <trkpt lat="45.58826" lon="2.80957">
        <ele>1100.7</ele>
        <time>2021-09-18T07:43:38.000Z</time>
      </trkpt>
      <trkpt lat="45.58827" lon="2.8097">
        <ele>1100.5</ele>
        <time>2021-09-18T07:44:05.000Z</time>
      </trkpt>
      <trkpt lat="45.58828" lon="2.80981">
        <ele>1102.5</ele>
        <time>2021-09-18T07:44:15.000Z</time>
      </trkpt>
      <trkpt lat="45.58829" lon="2.80993">
        <ele>1103.1</ele>
        <time>2021-09-18T07:44:24.000Z</time>
      </trkpt>
      <trkpt lat="45.58832" lon="2.81005">
        <ele>1103.5</ele>
        <time>2021-09-18T07:44:32.000Z</time>
      </trkpt>
      <trkpt lat="45.58833" lon="2.81017">
        <ele>1105.3</ele>
        <time>2021-09-18T07:44:41.000Z</time>
      </trkpt>
      <trkpt lat="45.58834" lon="2.81028">
        <ele>1105.8</ele>
        <time>2021-09-18T07:44:49.000Z</time>
      </trkpt>
      <trkpt lat="45.58833" lon="2.8104">
        <ele>1106.3</ele>
        <time>2021-09-18T07:44:56.000Z</time>
      </trkpt>
      <trkpt lat="45.58831" lon="2.81052">
        <ele>1106.6</ele>
        <time>2021-09-18T07:45:03.000Z</time>
      </trkpt>
      <trkpt lat="45.58828" lon="2.81062">
        <ele>1108.2</ele>
        <time>2021-09-18T07:45:10.000Z</time>
      </trkpt>
      <trkpt lat="45.58824" lon="2.81071">
        <ele>1109.3</ele>
        <time>2021-09-18T07:45:18.000Z</time>
      </trkpt>
      <trkpt lat="45.58818" lon="2.8108">
        <ele>1110.7</ele>
        <time>2021-09-18T07:45:30.000Z</time>
      </trkpt>
      <trkpt lat="45.58815" lon="2.81091">
        <ele>1110.9</ele>
        <time>2021-09-18T07:45:38.000Z</time>
      </trkpt>
      <trkpt lat="45.58814" lon="2.81104">
        <ele>1111.2</ele>
        <time>2021-09-18T07:45:47.000Z</time>
      </trkpt>
      <trkpt lat="45.58816" lon="2.81115">
        <ele>1113</ele>
        <time>2021-09-18T07:45:55.000Z</time>
      </trkpt>
      <trkpt lat="45.58815" lon="2.81126">
        <ele>1113.1</ele>
        <time>2021-09-18T07:46:01.000Z</time>
      </trkpt>
      <trkpt lat="45.58814" lon="2.81138">
        <ele>1113.8</ele>
        <time>2021-09-18T07:46:08.000Z</time>
      </trkpt>
      <trkpt lat="45.58813" lon="2.81149">
        <ele>1114.4</ele>
        <time>2021-09-18T07:46:15.000Z</time>
      </trkpt>
      <trkpt lat="45.5881" lon="2.8116">
        <ele>1115.4</ele>
        <time>2021-09-18T07:46:23.000Z</time>
      </trkpt>
      <trkpt lat="45.58808" lon="2.81172">
        <ele>1115.6</ele>
        <time>2021-09-18T07:46:30.000Z</time>
      </trkpt>
      <trkpt lat="45.58806" lon="2.81184">
        <ele>1116.4</ele>
        <time>2021-09-18T07:46:37.000Z</time>
      </trkpt>
      <trkpt lat="45.58803" lon="2.81194">
        <ele>1114.9</ele>
        <time>2021-09-18T07:46:45.000Z</time>
      </trkpt>
      <trkpt lat="45.588" lon="2.81205">
        <ele>1115.4</ele>
        <time>2021-09-18T07:46:52.000Z</time>
      </trkpt>
      <trkpt lat="45.58796" lon="2.81216">
        <ele>1116.7</ele>
        <time>2021-09-18T07:47:00.000Z</time>
      </trkpt>
      <trkpt lat="45.58795" lon="2.81229">
        <ele>1117.4</ele>
        <time>2021-09-18T07:47:09.000Z</time>
      </trkpt>
      <trkpt lat="45.58797" lon="2.8124">
        <ele>1117.7</ele>
        <time>2021-09-18T07:47:16.000Z</time>
      </trkpt>
      <trkpt lat="45.588" lon="2.8125">
        <ele>1118.4</ele>
        <time>2021-09-18T07:47:22.000Z</time>
      </trkpt>
      <trkpt lat="45.58802" lon="2.81261">
        <ele>1119.5</ele>
        <time>2021-09-18T07:47:32.000Z</time>
      </trkpt>
      <trkpt lat="45.58801" lon="2.81272">
        <ele>1119.7</ele>
        <time>2021-09-18T07:47:38.000Z</time>
      </trkpt>
      <trkpt lat="45.588" lon="2.81284">
        <ele>1121.2</ele>
        <time>2021-09-18T07:47:47.000Z</time>
      </trkpt>
      <trkpt lat="45.58798" lon="2.81296">
        <ele>1122.1</ele>
        <time>2021-09-18T07:47:55.000Z</time>
      </trkpt>
      <trkpt lat="45.58793" lon="2.81306">
        <ele>1124.1</ele>
        <time>2021-09-18T07:48:05.000Z</time>
      </trkpt>
      <trkpt lat="45.58787" lon="2.81315">
        <ele>1125.7</ele>
        <time>2021-09-18T07:48:12.000Z</time>
      </trkpt>
      <trkpt lat="45.58782" lon="2.81324">
        <ele>1127.7</ele>
        <time>2021-09-18T07:48:23.000Z</time>
      </trkpt>
      <trkpt lat="45.58775" lon="2.8133">
        <ele>1128.2</ele>
        <time>2021-09-18T07:48:34.000Z</time>
      </trkpt>
      <trkpt lat="45.58768" lon="2.81338">
        <ele>1129.2</ele>
        <time>2021-09-18T07:48:41.000Z</time>
      </trkpt>
      <trkpt lat="45.58763" lon="2.81348">
        <ele>1130.4</ele>
        <time>2021-09-18T07:48:54.000Z</time>
      </trkpt>
      <trkpt lat="45.58763" lon="2.8136">
        <ele>1129.7</ele>
        <time>2021-09-18T07:49:52.000Z</time>
      </trkpt>
      <trkpt lat="45.58767" lon="2.81369">
        <ele>1128.4</ele>
        <time>2021-09-18T07:49:58.000Z</time>
      </trkpt>
      <trkpt lat="45.58772" lon="2.81378">
        <ele>1128.8</ele>
        <time>2021-09-18T07:50:05.000Z</time>
      </trkpt>
      <trkpt lat="45.58775" lon="2.8139">
        <ele>1128</ele>
        <time>2021-09-18T07:50:13.000Z</time>
      </trkpt>
      <trkpt lat="45.58776" lon="2.81402">
        <ele>1127.1</ele>
        <time>2021-09-18T07:50:23.000Z</time>
      </trkpt>
      <trkpt lat="45.5878" lon="2.81414">
        <ele>1126</ele>
        <time>2021-09-18T07:50:30.000Z</time>
      </trkpt>
      <trkpt lat="45.58783" lon="2.81424">
        <ele>1124.8</ele>
        <time>2021-09-18T07:50:36.000Z</time>
      </trkpt>
      <trkpt lat="45.58787" lon="2.81436">
        <ele>1122.6</ele>
        <time>2021-09-18T07:50:46.000Z</time>
      </trkpt>
      <trkpt lat="45.58788" lon="2.81447">
        <ele>1122.1</ele>
        <time>2021-09-18T07:50:55.000Z</time>
      </trkpt>
      <trkpt lat="45.58787" lon="2.8146">
        <ele>1123.1</ele>
        <time>2021-09-18T07:51:03.000Z</time>
      </trkpt>
      <trkpt lat="45.58789" lon="2.81467">
        <ele>1122.6</ele>
        <time>2021-09-18T07:51:19.000Z</time>
      </trkpt>
      <trkpt lat="45.58767" lon="2.81432">
        <ele>1122.2</ele>
        <time>2021-09-18T07:51:24.000Z</time>
      </trkpt>
      <trkpt lat="45.58758" lon="2.81414">
        <ele>1122.5</ele>
        <time>2021-09-18T07:51:28.000Z</time>
      </trkpt>
      <trkpt lat="45.58767" lon="2.81417">
        <ele>1122.7</ele>
        <time>2021-09-18T07:51:42.000Z</time>
      </trkpt>
      <trkpt lat="45.58768" lon="2.81428">
        <ele>1119.8</ele>
        <time>2021-09-18T07:51:50.000Z</time>
      </trkpt>
      <trkpt lat="45.58773" lon="2.81438">
        <ele>1121</ele>
        <time>2021-09-18T07:52:01.000Z</time>
      </trkpt>
      <trkpt lat="45.58767" lon="2.8143">
        <ele>1121.5</ele>
        <time>2021-09-18T07:52:13.000Z</time>
      </trkpt>
      <trkpt lat="45.58758" lon="2.81432">
        <ele>1122.4</ele>
        <time>2021-09-18T07:52:22.000Z</time>
      </trkpt>
      <trkpt lat="45.58755" lon="2.81423">
        <ele>1124.9</ele>
        <time>2021-09-18T07:52:39.000Z</time>
      </trkpt>
      <trkpt lat="45.58756" lon="2.81406">
        <ele>1123.4</ele>
        <time>2021-09-18T07:52:43.000Z</time>
      </trkpt>
      <trkpt lat="45.58763" lon="2.81413">
        <ele>1122.8</ele>
        <time>2021-09-18T07:53:02.000Z</time>
      </trkpt>
      <trkpt lat="45.58767" lon="2.81421">
        <ele>1119.3</ele>
        <time>2021-09-18T07:53:12.000Z</time>
      </trkpt>
      <trkpt lat="45.58765" lon="2.81453">
        <ele>1119.9</ele>
        <time>2021-09-18T07:53:16.000Z</time>
      </trkpt>
      <trkpt lat="45.58769" lon="2.81473">
        <ele>1122.2</ele>
        <time>2021-09-18T07:53:20.000Z</time>
      </trkpt>
      <trkpt lat="45.58777" lon="2.81469">
        <ele>1120.3</ele>
        <time>2021-09-18T07:53:25.000Z</time>
      </trkpt>
      <trkpt lat="45.58786" lon="2.81471">
        <ele>1119.5</ele>
        <time>2021-09-18T07:53:42.000Z</time>
      </trkpt>
      <trkpt lat="45.58781" lon="2.8148">
        <ele>1121.7</ele>
        <time>2021-09-18T07:56:35.000Z</time>
      </trkpt>
      <trkpt lat="45.58786" lon="2.81472">
        <ele>1122.7</ele>
        <time>2021-09-18T07:57:25.000Z</time>
      </trkpt>
      <trkpt lat="45.58791" lon="2.81463">
        <ele>1122.5</ele>
        <time>2021-09-18T07:57:35.000Z</time>
      </trkpt>
      <trkpt lat="45.58789" lon="2.81475">
        <ele>1124.2</ele>
        <time>2021-09-18T07:58:14.000Z</time>
      </trkpt>
      <trkpt lat="45.58797" lon="2.81479">
        <ele>1124.2</ele>
        <time>2021-09-18T07:58:20.000Z</time>
      </trkpt>
      <trkpt lat="45.58794" lon="2.81472">
        <ele>1122.4</ele>
        <time>2021-09-18T07:58:33.000Z</time>
      </trkpt>
      <trkpt lat="45.58796" lon="2.8146">
        <ele>1121.2</ele>
        <time>2021-09-18T07:59:44.000Z</time>
      </trkpt>
      <trkpt lat="45.58796" lon="2.81449">
        <ele>1121</ele>
        <time>2021-09-18T07:59:49.000Z</time>
      </trkpt>
      <trkpt lat="45.58792" lon="2.81438">
        <ele>1122.4</ele>
        <time>2021-09-18T08:00:04.000Z</time>
      </trkpt>
      <trkpt lat="45.58792" lon="2.81428">
        <ele>1121.6</ele>
        <time>2021-09-18T08:00:15.000Z</time>
      </trkpt>
      <trkpt lat="45.58791" lon="2.81417">
        <ele>1120.8</ele>
        <time>2021-09-18T08:00:20.000Z</time>
      </trkpt>
      <trkpt lat="45.58795" lon="2.81408">
        <ele>1120.1</ele>
        <time>2021-09-18T08:00:28.000Z</time>
      </trkpt>
      <trkpt lat="45.58799" lon="2.81399">
        <ele>1120.1</ele>
        <time>2021-09-18T08:00:36.000Z</time>
      </trkpt>
      <trkpt lat="45.58806" lon="2.81393">
        <ele>1118.8</ele>
        <time>2021-09-18T08:00:46.000Z</time>
      </trkpt>
      <trkpt lat="45.58814" lon="2.81388">
        <ele>1118.3</ele>
        <time>2021-09-18T08:00:53.000Z</time>
      </trkpt>
      <trkpt lat="45.58822" lon="2.81385">
        <ele>1117.8</ele>
        <time>2021-09-18T08:00:59.000Z</time>
      </trkpt>
      <trkpt lat="45.58831" lon="2.81385">
        <ele>1116.8</ele>
        <time>2021-09-18T08:01:13.000Z</time>
      </trkpt>
      <trkpt lat="45.58838" lon="2.81387">
        <ele>1115.9</ele>
        <time>2021-09-18T08:01:18.000Z</time>
      </trkpt>
      <trkpt lat="45.58845" lon="2.81391">
        <ele>1115.3</ele>
        <time>2021-09-18T08:01:23.000Z</time>
      </trkpt>
      <trkpt lat="45.58853" lon="2.81396">
        <ele>1114.1</ele>
        <time>2021-09-18T08:01:32.000Z</time>
      </trkpt>
      <trkpt lat="45.58859" lon="2.81405">
        <ele>1112.9</ele>
        <time>2021-09-18T08:01:40.000Z</time>
      </trkpt>
      <trkpt lat="45.58866" lon="2.81411">
        <ele>1111.4</ele>
        <time>2021-09-18T08:01:53.000Z</time>
      </trkpt>
      <trkpt lat="45.58874" lon="2.81416">
        <ele>1111.1</ele>
        <time>2021-09-18T08:02:02.000Z</time>
      </trkpt>
      <trkpt lat="45.58883" lon="2.81414">
        <ele>1109.9</ele>
        <time>2021-09-18T08:02:10.000Z</time>
      </trkpt>
      <trkpt lat="45.5889" lon="2.8141">
        <ele>1109.5</ele>
        <time>2021-09-18T08:02:15.000Z</time>
      </trkpt>
      <trkpt lat="45.58897" lon="2.81402">
        <ele>1109.2</ele>
        <time>2021-09-18T08:02:22.000Z</time>
      </trkpt>
      <trkpt lat="45.58902" lon="2.81393">
        <ele>1108.6</ele>
        <time>2021-09-18T08:02:29.000Z</time>
      </trkpt>
      <trkpt lat="45.58909" lon="2.81385">
        <ele>1107.9</ele>
        <time>2021-09-18T08:02:38.000Z</time>
      </trkpt>
      <trkpt lat="45.58917" lon="2.81378">
        <ele>1108</ele>
        <time>2021-09-18T08:02:50.000Z</time>
      </trkpt>
      <trkpt lat="45.58924" lon="2.81376">
        <ele>1108.3</ele>
        <time>2021-09-18T08:02:58.000Z</time>
      </trkpt>
      <trkpt lat="45.58933" lon="2.81374">
        <ele>1108.3</ele>
        <time>2021-09-18T08:03:06.000Z</time>
      </trkpt>
      <trkpt lat="45.58941" lon="2.81376">
        <ele>1108.1</ele>
        <time>2021-09-18T08:03:12.000Z</time>
      </trkpt>
      <trkpt lat="45.58949" lon="2.81378">
        <ele>1108.4</ele>
        <time>2021-09-18T08:03:17.000Z</time>
      </trkpt>
      <trkpt lat="45.58957" lon="2.8138">
        <ele>1108.2</ele>
        <time>2021-09-18T08:03:22.000Z</time>
      </trkpt>
      <trkpt lat="45.58964" lon="2.81379">
        <ele>1107.9</ele>
        <time>2021-09-18T08:03:27.000Z</time>
      </trkpt>
      <trkpt lat="45.58971" lon="2.81372">
        <ele>1107.6</ele>
        <time>2021-09-18T08:03:31.000Z</time>
      </trkpt>
      <trkpt lat="45.58977" lon="2.81365">
        <ele>1108.4</ele>
        <time>2021-09-18T08:03:36.000Z</time>
      </trkpt>
      <trkpt lat="45.58982" lon="2.81355">
        <ele>1108.7</ele>
        <time>2021-09-18T08:03:42.000Z</time>
      </trkpt>
      <trkpt lat="45.58985" lon="2.81344">
        <ele>1109.1</ele>
        <time>2021-09-18T08:03:51.000Z</time>
      </trkpt>
      <trkpt lat="45.58992" lon="2.81337">
        <ele>1108.7</ele>
        <time>2021-09-18T08:04:57.000Z</time>
      </trkpt>
      <trkpt lat="45.58996" lon="2.81347">
        <ele>1108.7</ele>
        <time>2021-09-18T08:05:17.000Z</time>
      </trkpt>
      <trkpt lat="45.58999" lon="2.81358">
        <ele>1109.4</ele>
        <time>2021-09-18T08:05:24.000Z</time>
      </trkpt>
      <trkpt lat="45.59003" lon="2.81369">
        <ele>1110</ele>
        <time>2021-09-18T08:05:31.000Z</time>
      </trkpt>
      <trkpt lat="45.59009" lon="2.81377">
        <ele>1110.5</ele>
        <time>2021-09-18T08:05:38.000Z</time>
      </trkpt>
      <trkpt lat="45.59017" lon="2.81381">
        <ele>1109.9</ele>
        <time>2021-09-18T08:07:05.000Z</time>
      </trkpt>
      <trkpt lat="45.59024" lon="2.8139">
        <ele>1111.3</ele>
        <time>2021-09-18T08:07:38.000Z</time>
      </trkpt>
      <trkpt lat="45.59028" lon="2.814">
        <ele>1111.3</ele>
        <time>2021-09-18T08:07:48.000Z</time>
      </trkpt>
      <trkpt lat="45.59033" lon="2.81411">
        <ele>1111.7</ele>
        <time>2021-09-18T08:07:56.000Z</time>
      </trkpt>
      <trkpt lat="45.59036" lon="2.81422">
        <ele>1112.1</ele>
        <time>2021-09-18T08:08:00.000Z</time>
      </trkpt>
      <trkpt lat="45.59039" lon="2.81433">
        <ele>1113</ele>
        <time>2021-09-18T08:08:07.000Z</time>
      </trkpt>
      <trkpt lat="45.59043" lon="2.81444">
        <ele>1113.2</ele>
        <time>2021-09-18T08:08:12.000Z</time>
      </trkpt>
      <trkpt lat="45.59047" lon="2.81453">
        <ele>1114.1</ele>
        <time>2021-09-18T08:08:17.000Z</time>
      </trkpt>
      <trkpt lat="45.59053" lon="2.81462">
        <ele>1115</ele>
        <time>2021-09-18T08:08:26.000Z</time>
      </trkpt>
      <trkpt lat="45.59059" lon="2.8147">
        <ele>1115.7</ele>
        <time>2021-09-18T08:08:33.000Z</time>
      </trkpt>
      <trkpt lat="45.59062" lon="2.81482">
        <ele>1116.5</ele>
        <time>2021-09-18T08:08:40.000Z</time>
      </trkpt>
      <trkpt lat="45.59067" lon="2.81489">
        <ele>1117.2</ele>
        <time>2021-09-18T08:08:48.000Z</time>
      </trkpt>
      <trkpt lat="45.59074" lon="2.81497">
        <ele>1117.5</ele>
        <time>2021-09-18T08:08:55.000Z</time>
      </trkpt>
      <trkpt lat="45.59081" lon="2.81501">
        <ele>1117.6</ele>
        <time>2021-09-18T08:09:01.000Z</time>
      </trkpt>
      <trkpt lat="45.59088" lon="2.81507">
        <ele>1118</ele>
        <time>2021-09-18T08:09:07.000Z</time>
      </trkpt>
      <trkpt lat="45.59096" lon="2.81511">
        <ele>1118.4</ele>
        <time>2021-09-18T08:09:13.000Z</time>
      </trkpt>
      <trkpt lat="45.59105" lon="2.81515">
        <ele>1119.2</ele>
        <time>2021-09-18T08:09:21.000Z</time>
      </trkpt>
      <trkpt lat="45.59112" lon="2.81521">
        <ele>1120.4</ele>
        <time>2021-09-18T08:09:28.000Z</time>
      </trkpt>
      <trkpt lat="45.59119" lon="2.81528">
        <ele>1121</ele>
        <time>2021-09-18T08:09:36.000Z</time>
      </trkpt>
      <trkpt lat="45.59127" lon="2.81535">
        <ele>1121.5</ele>
        <time>2021-09-18T08:09:45.000Z</time>
      </trkpt>
      <trkpt lat="45.59131" lon="2.81544">
        <ele>1122.3</ele>
        <time>2021-09-18T08:09:54.000Z</time>
      </trkpt>
      <trkpt lat="45.59135" lon="2.81554">
        <ele>1123.3</ele>
        <time>2021-09-18T08:10:02.000Z</time>
      </trkpt>
      <trkpt lat="45.59139" lon="2.81563">
        <ele>1123.2</ele>
        <time>2021-09-18T08:10:07.000Z</time>
      </trkpt>
      <trkpt lat="45.59145" lon="2.81572">
        <ele>1124.7</ele>
        <time>2021-09-18T08:10:19.000Z</time>
      </trkpt>
      <trkpt lat="45.59149" lon="2.8158">
        <ele>1125.1</ele>
        <time>2021-09-18T08:10:23.000Z</time>
      </trkpt>
      <trkpt lat="45.59153" lon="2.81591">
        <ele>1125.7</ele>
        <time>2021-09-18T08:10:28.000Z</time>
      </trkpt>
      <trkpt lat="45.59159" lon="2.81599">
        <ele>1126.7</ele>
        <time>2021-09-18T08:10:34.000Z</time>
      </trkpt>
      <trkpt lat="45.59162" lon="2.81608">
        <ele>1126.8</ele>
        <time>2021-09-18T08:10:38.000Z</time>
      </trkpt>
      <trkpt lat="45.59168" lon="2.81619">
        <ele>1127.3</ele>
        <time>2021-09-18T08:10:42.000Z</time>
      </trkpt>
      <trkpt lat="45.59173" lon="2.81629">
        <ele>1128.1</ele>
        <time>2021-09-18T08:10:47.000Z</time>
      </trkpt>
      <trkpt lat="45.59178" lon="2.81639">
        <ele>1130.2</ele>
        <time>2021-09-18T08:10:56.000Z</time>
      </trkpt>
      <trkpt lat="45.59184" lon="2.81646">
        <ele>1131.5</ele>
        <time>2021-09-18T08:11:05.000Z</time>
      </trkpt>
      <trkpt lat="45.59187" lon="2.81657">
        <ele>1131.7</ele>
        <time>2021-09-18T08:11:11.000Z</time>
      </trkpt>
      <trkpt lat="45.59192" lon="2.81667">
        <ele>1132.7</ele>
        <time>2021-09-18T08:11:19.000Z</time>
      </trkpt>
      <trkpt lat="45.59196" lon="2.81677">
        <ele>1133.8</ele>
        <time>2021-09-18T08:11:32.000Z</time>
      </trkpt>
      <trkpt lat="45.59201" lon="2.81687">
        <ele>1133.9</ele>
        <time>2021-09-18T08:11:39.000Z</time>
      </trkpt>
      <trkpt lat="45.59207" lon="2.81697">
        <ele>1134.7</ele>
        <time>2021-09-18T08:11:44.000Z</time>
      </trkpt>
      <trkpt lat="45.59211" lon="2.81707">
        <ele>1136.1</ele>
        <time>2021-09-18T08:11:51.000Z</time>
      </trkpt>
      <trkpt lat="45.59214" lon="2.81717">
        <ele>1137.5</ele>
        <time>2021-09-18T08:11:57.000Z</time>
      </trkpt>
      <trkpt lat="45.59217" lon="2.81729">
        <ele>1138</ele>
        <time>2021-09-18T08:12:07.000Z</time>
      </trkpt>
      <trkpt lat="45.59217" lon="2.8174">
        <ele>1138.4</ele>
        <time>2021-09-18T08:12:13.000Z</time>
      </trkpt>
      <trkpt lat="45.59217" lon="2.81753">
        <ele>1139.6</ele>
        <time>2021-09-18T08:12:20.000Z</time>
      </trkpt>
      <trkpt lat="45.59217" lon="2.81765">
        <ele>1141.5</ele>
        <time>2021-09-18T08:12:30.000Z</time>
      </trkpt>
      <trkpt lat="45.59219" lon="2.81777">
        <ele>1140.5</ele>
        <time>2021-09-18T08:12:36.000Z</time>
      </trkpt>
      <trkpt lat="45.59222" lon="2.81789">
        <ele>1142.1</ele>
        <time>2021-09-18T08:12:43.000Z</time>
      </trkpt>
      <trkpt lat="45.59223" lon="2.81801">
        <ele>1144.1</ele>
        <time>2021-09-18T08:12:52.000Z</time>
      </trkpt>
      <trkpt lat="45.59223" lon="2.81814">
        <ele>1145.6</ele>
        <time>2021-09-18T08:13:02.000Z</time>
      </trkpt>
      <trkpt lat="45.59227" lon="2.81825">
        <ele>1146.8</ele>
        <time>2021-09-18T08:13:09.000Z</time>
      </trkpt>
      <trkpt lat="45.5923" lon="2.81836">
        <ele>1147.5</ele>
        <time>2021-09-18T08:13:20.000Z</time>
      </trkpt>
      <trkpt lat="45.59233" lon="2.81846">
        <ele>1148.1</ele>
        <time>2021-09-18T08:13:25.000Z</time>
      </trkpt>
      <trkpt lat="45.59236" lon="2.81858">
        <ele>1149.2</ele>
        <time>2021-09-18T08:13:30.000Z</time>
      </trkpt>
      <trkpt lat="45.59238" lon="2.8187">
        <ele>1150.4</ele>
        <time>2021-09-18T08:13:37.000Z</time>
      </trkpt>
      <trkpt lat="45.5924" lon="2.8188">
        <ele>1151.9</ele>
        <time>2021-09-18T08:13:44.000Z</time>
      </trkpt>
      <trkpt lat="45.59244" lon="2.81891">
        <ele>1151.8</ele>
        <time>2021-09-18T08:13:52.000Z</time>
      </trkpt>
      <trkpt lat="45.59248" lon="2.81902">
        <ele>1153.4</ele>
        <time>2021-09-18T08:13:59.000Z</time>
      </trkpt>
      <trkpt lat="45.59249" lon="2.81913">
        <ele>1153.4</ele>
        <time>2021-09-18T08:14:06.000Z</time>
      </trkpt>
      <trkpt lat="45.59253" lon="2.81923">
        <ele>1154.2</ele>
        <time>2021-09-18T08:14:12.000Z</time>
      </trkpt>
      <trkpt lat="45.59255" lon="2.81934">
        <ele>1155.1</ele>
        <time>2021-09-18T08:14:17.000Z</time>
      </trkpt>
      <trkpt lat="45.59257" lon="2.81944">
        <ele>1155.6</ele>
        <time>2021-09-18T08:14:23.000Z</time>
      </trkpt>
      <trkpt lat="45.5926" lon="2.81955">
        <ele>1156.3</ele>
        <time>2021-09-18T08:14:29.000Z</time>
      </trkpt>
      <trkpt lat="45.59263" lon="2.81966">
        <ele>1157.5</ele>
        <time>2021-09-18T08:14:36.000Z</time>
      </trkpt>
      <trkpt lat="45.59267" lon="2.81977">
        <ele>1157.9</ele>
        <time>2021-09-18T08:14:42.000Z</time>
      </trkpt>
      <trkpt lat="45.5927" lon="2.81987">
        <ele>1158.4</ele>
        <time>2021-09-18T08:14:48.000Z</time>
      </trkpt>
      <trkpt lat="45.59272" lon="2.81998">
        <ele>1159.6</ele>
        <time>2021-09-18T08:14:56.000Z</time>
      </trkpt>
      <trkpt lat="45.59272" lon="2.82009">
        <ele>1159.5</ele>
        <time>2021-09-18T08:15:01.000Z</time>
      </trkpt>
      <trkpt lat="45.59271" lon="2.82021">
        <ele>1160.2</ele>
        <time>2021-09-18T08:15:08.000Z</time>
      </trkpt>
      <trkpt lat="45.59274" lon="2.82033">
        <ele>1161.9</ele>
        <time>2021-09-18T08:15:26.000Z</time>
      </trkpt>
      <trkpt lat="45.59285" lon="2.82052">
        <ele>1160.6</ele>
        <time>2021-09-18T08:15:31.000Z</time>
      </trkpt>
      <trkpt lat="45.59289" lon="2.82059">
        <ele>1162</ele>
        <time>2021-09-18T08:15:49.000Z</time>
      </trkpt>
      <trkpt lat="45.59299" lon="2.82065">
        <ele>1161.1</ele>
        <time>2021-09-18T08:15:53.000Z</time>
      </trkpt>
      <trkpt lat="45.59306" lon="2.82071">
        <ele>1160.1</ele>
        <time>2021-09-18T08:15:59.000Z</time>
      </trkpt>
      <trkpt lat="45.59315" lon="2.82077">
        <ele>1162.3</ele>
        <time>2021-09-18T08:16:03.000Z</time>
      </trkpt>
      <trkpt lat="45.59323" lon="2.82076">
        <ele>1160.5</ele>
        <time>2021-09-18T08:16:10.000Z</time>
      </trkpt>
      <trkpt lat="45.59315" lon="2.82083">
        <ele>1162.9</ele>
        <time>2021-09-18T08:16:38.000Z</time>
      </trkpt>
      <trkpt lat="45.59308" lon="2.82074">
        <ele>1162.9</ele>
        <time>2021-09-18T08:16:41.000Z</time>
      </trkpt>
      <trkpt lat="45.59302" lon="2.82069">
        <ele>1161.4</ele>
        <time>2021-09-18T08:16:56.000Z</time>
      </trkpt>
      <trkpt lat="45.59295" lon="2.82059">
        <ele>1161.8</ele>
        <time>2021-09-18T08:17:00.000Z</time>
      </trkpt>
      <trkpt lat="45.59291" lon="2.82052">
        <ele>1160</ele>
        <time>2021-09-18T08:17:12.000Z</time>
      </trkpt>
      <trkpt lat="45.59281" lon="2.82049">
        <ele>1160.7</ele>
        <time>2021-09-18T08:17:17.000Z</time>
      </trkpt>
      <trkpt lat="45.59283" lon="2.82039">
        <ele>1162.6</ele>
        <time>2021-09-18T08:17:41.000Z</time>
      </trkpt>
      <trkpt lat="45.59286" lon="2.82031">
        <ele>1163.7</ele>
        <time>2021-09-18T08:17:55.000Z</time>
      </trkpt>
      <trkpt lat="45.59288" lon="2.8202">
        <ele>1164</ele>
        <time>2021-09-18T08:18:07.000Z</time>
      </trkpt>
      <trkpt lat="45.59292" lon="2.82005">
        <ele>1164.1</ele>
        <time>2021-09-18T08:18:11.000Z</time>
      </trkpt>
      <trkpt lat="45.59296" lon="2.8199">
        <ele>1163.7</ele>
        <time>2021-09-18T08:18:15.000Z</time>
      </trkpt>
      <trkpt lat="45.59297" lon="2.81978">
        <ele>1165.1</ele>
        <time>2021-09-18T08:18:22.000Z</time>
      </trkpt>
      <trkpt lat="45.59298" lon="2.81966">
        <ele>1166.3</ele>
        <time>2021-09-18T08:18:26.000Z</time>
      </trkpt>
      <trkpt lat="45.59297" lon="2.81954">
        <ele>1167.7</ele>
        <time>2021-09-18T08:18:33.000Z</time>
      </trkpt>
      <trkpt lat="45.59298" lon="2.81943">
        <ele>1169.9</ele>
        <time>2021-09-18T08:18:45.000Z</time>
      </trkpt>
      <trkpt lat="45.59302" lon="2.81934">
        <ele>1172</ele>
        <time>2021-09-18T08:19:03.000Z</time>
      </trkpt>
      <trkpt lat="45.59308" lon="2.81928">
        <ele>1173.9</ele>
        <time>2021-09-18T08:19:14.000Z</time>
      </trkpt>
      <trkpt lat="45.59314" lon="2.81921">
        <ele>1174.5</ele>
        <time>2021-09-18T08:19:18.000Z</time>
      </trkpt>
      <trkpt lat="45.59319" lon="2.81917">
        <ele>1176.4</ele>
        <time>2021-09-18T08:19:28.000Z</time>
      </trkpt>
      <trkpt lat="45.59327" lon="2.8192">
        <ele>1177.8</ele>
        <time>2021-09-18T08:19:38.000Z</time>
      </trkpt>
      <trkpt lat="45.5933" lon="2.81929">
        <ele>1178.9</ele>
        <time>2021-09-18T08:19:50.000Z</time>
      </trkpt>
      <trkpt lat="45.5933" lon="2.81941">
        <ele>1179.6</ele>
        <time>2021-09-18T08:19:55.000Z</time>
      </trkpt>
      <trkpt lat="45.59329" lon="2.81951">
        <ele>1180.8</ele>
        <time>2021-09-18T08:20:04.000Z</time>
      </trkpt>
      <trkpt lat="45.59327" lon="2.81963">
        <ele>1181.3</ele>
        <time>2021-09-18T08:20:14.000Z</time>
      </trkpt>
      <trkpt lat="45.59326" lon="2.81973">
        <ele>1182.4</ele>
        <time>2021-09-18T08:20:29.000Z</time>
      </trkpt>
      <trkpt lat="45.59327" lon="2.81983">
        <ele>1183.7</ele>
        <time>2021-09-18T08:20:44.000Z</time>
      </trkpt>
      <trkpt lat="45.5933" lon="2.81992">
        <ele>1185.2</ele>
        <time>2021-09-18T08:20:56.000Z</time>
      </trkpt>
      <trkpt lat="45.59333" lon="2.82007">
        <ele>1185.9</ele>
        <time>2021-09-18T08:21:00.000Z</time>
      </trkpt>
      <trkpt lat="45.59336" lon="2.82018">
        <ele>1188.3</ele>
        <time>2021-09-18T08:21:17.000Z</time>
      </trkpt>
      <trkpt lat="45.59338" lon="2.82027">
        <ele>1188.9</ele>
        <time>2021-09-18T08:21:27.000Z</time>
      </trkpt>
      <trkpt lat="45.59339" lon="2.82038">
        <ele>1188.6</ele>
        <time>2021-09-18T08:21:32.000Z</time>
      </trkpt>
      <trkpt lat="45.59341" lon="2.82056">
        <ele>1189.3</ele>
        <time>2021-09-18T08:21:37.000Z</time>
      </trkpt>
      <trkpt lat="45.59341" lon="2.82062">
        <ele>1192.6</ele>
        <time>2021-09-18T08:22:00.000Z</time>
      </trkpt>
      <trkpt lat="45.59343" lon="2.82074">
        <ele>1193.2</ele>
        <time>2021-09-18T08:22:05.000Z</time>
      </trkpt>
      <trkpt lat="45.59344" lon="2.82084">
        <ele>1195</ele>
        <time>2021-09-18T08:22:21.000Z</time>
      </trkpt>
      <trkpt lat="45.59346" lon="2.82091">
        <ele>1195.9</ele>
        <time>2021-09-18T08:22:30.000Z</time>
      </trkpt>
      <trkpt lat="45.59347" lon="2.82097">
        <ele>1196.8</ele>
        <time>2021-09-18T08:22:37.000Z</time>
      </trkpt>
      <trkpt lat="45.59351" lon="2.82122">
        <ele>1196.8</ele>
        <time>2021-09-18T08:22:42.000Z</time>
      </trkpt>
      <trkpt lat="45.59352" lon="2.82128">
        <ele>1198.7</ele>
        <time>2021-09-18T08:22:51.000Z</time>
      </trkpt>
      <trkpt lat="45.59354" lon="2.82139">
        <ele>1200.1</ele>
        <time>2021-09-18T08:23:00.000Z</time>
      </trkpt>
      <trkpt lat="45.59356" lon="2.82148">
        <ele>1200.5</ele>
        <time>2021-09-18T08:23:05.000Z</time>
      </trkpt>
      <trkpt lat="45.59359" lon="2.82158">
        <ele>1201.8</ele>
        <time>2021-09-18T08:23:15.000Z</time>
      </trkpt>
      <trkpt lat="45.59361" lon="2.82165">
        <ele>1203.1</ele>
        <time>2021-09-18T08:23:23.000Z</time>
      </trkpt>
      <trkpt lat="45.59367" lon="2.82178">
        <ele>1203.1</ele>
        <time>2021-09-18T08:23:27.000Z</time>
      </trkpt>
      <trkpt lat="45.59371" lon="2.8219">
        <ele>1206</ele>
        <time>2021-09-18T08:23:38.000Z</time>
      </trkpt>
      <trkpt lat="45.59374" lon="2.82201">
        <ele>1207.3</ele>
        <time>2021-09-18T08:23:48.000Z</time>
      </trkpt>
      <trkpt lat="45.59375" lon="2.82208">
        <ele>1208</ele>
        <time>2021-09-18T08:24:00.000Z</time>
      </trkpt>
      <trkpt lat="45.59377" lon="2.8222">
        <ele>1209.2</ele>
        <time>2021-09-18T08:24:07.000Z</time>
      </trkpt>
      <trkpt lat="45.59378" lon="2.82227">
        <ele>1211.1</ele>
        <time>2021-09-18T08:24:28.000Z</time>
      </trkpt>
      <trkpt lat="45.59381" lon="2.8224">
        <ele>1211.4</ele>
        <time>2021-09-18T08:24:33.000Z</time>
      </trkpt>
      <trkpt lat="45.59381" lon="2.8224">
        <ele>1212.3</ele>
        <time>2021-09-18T08:24:46.000Z</time>
      </trkpt>
      <trkpt lat="45.59386" lon="2.82252">
        <ele>1212.5</ele>
        <time>2021-09-18T08:24:50.000Z</time>
      </trkpt>
      <trkpt lat="45.59386" lon="2.82252">
        <ele>1214</ele>
        <time>2021-09-18T08:25:04.000Z</time>
      </trkpt>
      <trkpt lat="45.59391" lon="2.82263">
        <ele>1214.8</ele>
        <time>2021-09-18T08:25:09.000Z</time>
      </trkpt>
      <trkpt lat="45.59391" lon="2.82263">
        <ele>1215.5</ele>
        <time>2021-09-18T08:25:16.000Z</time>
      </trkpt>
      <trkpt lat="45.59397" lon="2.82277">
        <ele>1215.9</ele>
        <time>2021-09-18T08:25:21.000Z</time>
      </trkpt>
      <trkpt lat="45.59399" lon="2.82287">
        <ele>1215.2</ele>
        <time>2021-09-18T08:25:25.000Z</time>
      </trkpt>
      <trkpt lat="45.59401" lon="2.82297">
        <ele>1216.1</ele>
        <time>2021-09-18T08:25:35.000Z</time>
      </trkpt>
      <trkpt lat="45.59405" lon="2.82309">
        <ele>1217.3</ele>
        <time>2021-09-18T08:25:43.000Z</time>
      </trkpt>
      <trkpt lat="45.59406" lon="2.8231">
        <ele>1219.2</ele>
        <time>2021-09-18T08:26:01.000Z</time>
      </trkpt>
      <trkpt lat="45.59412" lon="2.8233">
        <ele>1219.8</ele>
        <time>2021-09-18T08:26:06.000Z</time>
      </trkpt>
      <trkpt lat="45.59416" lon="2.82342">
        <ele>1220.7</ele>
        <time>2021-09-18T08:26:11.000Z</time>
      </trkpt>
      <trkpt lat="45.59419" lon="2.82352">
        <ele>1222</ele>
        <time>2021-09-18T08:26:20.000Z</time>
      </trkpt>
      <trkpt lat="45.59424" lon="2.82362">
        <ele>1223.4</ele>
        <time>2021-09-18T08:26:35.000Z</time>
      </trkpt>
      <trkpt lat="45.59429" lon="2.82372">
        <ele>1224.4</ele>
        <time>2021-09-18T08:26:44.000Z</time>
      </trkpt>
      <trkpt lat="45.59436" lon="2.8238">
        <ele>1227.1</ele>
        <time>2021-09-18T08:27:00.000Z</time>
      </trkpt>
      <trkpt lat="45.59441" lon="2.8239">
        <ele>1227.9</ele>
        <time>2021-09-18T08:27:05.000Z</time>
      </trkpt>
      <trkpt lat="45.59445" lon="2.824">
        <ele>1228.3</ele>
        <time>2021-09-18T08:27:11.000Z</time>
      </trkpt>
      <trkpt lat="45.59447" lon="2.82413">
        <ele>1229.2</ele>
        <time>2021-09-18T08:27:16.000Z</time>
      </trkpt>
      <trkpt lat="45.5945" lon="2.82425">
        <ele>1233.9</ele>
        <time>2021-09-18T08:27:33.000Z</time>
      </trkpt>
      <trkpt lat="45.59459" lon="2.82425">
        <ele>1236</ele>
        <time>2021-09-18T08:28:00.000Z</time>
      </trkpt>
      <trkpt lat="45.59463" lon="2.82436">
        <ele>1236.4</ele>
        <time>2021-09-18T08:28:10.000Z</time>
      </trkpt>
      <trkpt lat="45.59465" lon="2.82448">
        <ele>1237.9</ele>
        <time>2021-09-18T08:28:59.000Z</time>
      </trkpt>
      <trkpt lat="45.59469" lon="2.82459">
        <ele>1237.5</ele>
        <time>2021-09-18T08:29:07.000Z</time>
      </trkpt>
      <trkpt lat="45.59475" lon="2.82465">
        <ele>1238.7</ele>
        <time>2021-09-18T08:29:13.000Z</time>
      </trkpt>
      <trkpt lat="45.59481" lon="2.82473">
        <ele>1239.6</ele>
        <time>2021-09-18T08:29:20.000Z</time>
      </trkpt>
      <trkpt lat="45.59488" lon="2.82481">
        <ele>1241.3</ele>
        <time>2021-09-18T08:29:29.000Z</time>
      </trkpt>
      <trkpt lat="45.59493" lon="2.82489">
        <ele>1241.2</ele>
        <time>2021-09-18T08:29:39.000Z</time>
      </trkpt>
      <trkpt lat="45.59502" lon="2.82494">
        <ele>1243.5</ele>
        <time>2021-09-18T08:43:12.000Z</time>
      </trkpt>
      <trkpt lat="45.5951" lon="2.82502">
        <ele>1243.5</ele>
        <time>2021-09-18T08:43:16.000Z</time>
      </trkpt>
      <trkpt lat="45.59517" lon="2.82508">
        <ele>1243.6</ele>
        <time>2021-09-18T08:43:22.000Z</time>
      </trkpt>
      <trkpt lat="45.59523" lon="2.82518">
        <ele>1245.4</ele>
        <time>2021-09-18T08:43:28.000Z</time>
      </trkpt>
      <trkpt lat="45.59527" lon="2.82528">
        <ele>1246.2</ele>
        <time>2021-09-18T08:43:35.000Z</time>
      </trkpt>
      <trkpt lat="45.59532" lon="2.82538">
        <ele>1248.1</ele>
        <time>2021-09-18T08:43:43.000Z</time>
      </trkpt>
      <trkpt lat="45.59537" lon="2.82548">
        <ele>1249.4</ele>
        <time>2021-09-18T08:43:53.000Z</time>
      </trkpt>
      <trkpt lat="45.59543" lon="2.82557">
        <ele>1250.4</ele>
        <time>2021-09-18T08:44:02.000Z</time>
      </trkpt>
      <trkpt lat="45.5955" lon="2.82564">
        <ele>1251.4</ele>
        <time>2021-09-18T08:44:11.000Z</time>
      </trkpt>
      <trkpt lat="45.59555" lon="2.82574">
        <ele>1252.5</ele>
        <time>2021-09-18T08:44:21.000Z</time>
      </trkpt>
      <trkpt lat="45.5956" lon="2.82583">
        <ele>1253.3</ele>
        <time>2021-09-18T08:44:31.000Z</time>
      </trkpt>
      <trkpt lat="45.59565" lon="2.82592">
        <ele>1254.8</ele>
        <time>2021-09-18T08:44:39.000Z</time>
      </trkpt>
      <trkpt lat="45.59569" lon="2.82603">
        <ele>1255.6</ele>
        <time>2021-09-18T08:44:48.000Z</time>
      </trkpt>
      <trkpt lat="45.59574" lon="2.82613">
        <ele>1257.6</ele>
        <time>2021-09-18T08:44:56.000Z</time>
      </trkpt>
      <trkpt lat="45.5958" lon="2.82623">
        <ele>1259</ele>
        <time>2021-09-18T08:45:09.000Z</time>
      </trkpt>
      <trkpt lat="45.59585" lon="2.82633">
        <ele>1260</ele>
        <time>2021-09-18T08:45:17.000Z</time>
      </trkpt>
      <trkpt lat="45.59589" lon="2.82644">
        <ele>1260.5</ele>
        <time>2021-09-18T08:45:25.000Z</time>
      </trkpt>
      <trkpt lat="45.59593" lon="2.82655">
        <ele>1261</ele>
        <time>2021-09-18T08:45:33.000Z</time>
      </trkpt>
      <trkpt lat="45.59598" lon="2.82665">
        <ele>1262</ele>
        <time>2021-09-18T08:45:43.000Z</time>
      </trkpt>
      <trkpt lat="45.59604" lon="2.82675">
        <ele>1262.6</ele>
        <time>2021-09-18T08:45:52.000Z</time>
      </trkpt>
      <trkpt lat="45.5961" lon="2.82683">
        <ele>1264.7</ele>
        <time>2021-09-18T08:46:00.000Z</time>
      </trkpt>
      <trkpt lat="45.59615" lon="2.82692">
        <ele>1265.1</ele>
        <time>2021-09-18T08:46:09.000Z</time>
      </trkpt>
      <trkpt lat="45.59621" lon="2.82701">
        <ele>1267.1</ele>
        <time>2021-09-18T08:46:17.000Z</time>
      </trkpt>
      <trkpt lat="45.59625" lon="2.82712">
        <ele>1268</ele>
        <time>2021-09-18T08:46:27.000Z</time>
      </trkpt>
      <trkpt lat="45.5963" lon="2.82723">
        <ele>1268.7</ele>
        <time>2021-09-18T08:46:37.000Z</time>
      </trkpt>
      <trkpt lat="45.59637" lon="2.82732">
        <ele>1269.2</ele>
        <time>2021-09-18T08:46:46.000Z</time>
      </trkpt>
      <trkpt lat="45.59642" lon="2.82742">
        <ele>1269.8</ele>
        <time>2021-09-18T08:46:55.000Z</time>
      </trkpt>
      <trkpt lat="45.59647" lon="2.82752">
        <ele>1269.4</ele>
        <time>2021-09-18T08:47:04.000Z</time>
      </trkpt>
      <trkpt lat="45.59652" lon="2.82762">
        <ele>1270.9</ele>
        <time>2021-09-18T08:47:13.000Z</time>
      </trkpt>
      <trkpt lat="45.59658" lon="2.8277">
        <ele>1272.2</ele>
        <time>2021-09-18T08:47:21.000Z</time>
      </trkpt>
      <trkpt lat="45.59663" lon="2.8278">
        <ele>1274.3</ele>
        <time>2021-09-18T08:47:29.000Z</time>
      </trkpt>
      <trkpt lat="45.59669" lon="2.82788">
        <ele>1274.4</ele>
        <time>2021-09-18T08:47:37.000Z</time>
      </trkpt>
      <trkpt lat="45.59675" lon="2.82796">
        <ele>1274.8</ele>
        <time>2021-09-18T08:47:46.000Z</time>
      </trkpt>
      <trkpt lat="45.59681" lon="2.82806">
        <ele>1275.8</ele>
        <time>2021-09-18T08:47:55.000Z</time>
      </trkpt>
      <trkpt lat="45.59687" lon="2.82815">
        <ele>1276.3</ele>
        <time>2021-09-18T08:48:03.000Z</time>
      </trkpt>
      <trkpt lat="45.59693" lon="2.82824">
        <ele>1277.3</ele>
        <time>2021-09-18T08:48:12.000Z</time>
      </trkpt>
      <trkpt lat="45.597" lon="2.82832">
        <ele>1278.3</ele>
        <time>2021-09-18T08:48:20.000Z</time>
      </trkpt>
      <trkpt lat="45.59707" lon="2.82839">
        <ele>1279</ele>
        <time>2021-09-18T08:48:28.000Z</time>
      </trkpt>
      <trkpt lat="45.59713" lon="2.82847">
        <ele>1280.4</ele>
        <time>2021-09-18T08:48:37.000Z</time>
      </trkpt>
      <trkpt lat="45.59721" lon="2.82853">
        <ele>1280.8</ele>
        <time>2021-09-18T08:48:46.000Z</time>
      </trkpt>
      <trkpt lat="45.59727" lon="2.82861">
        <ele>1282.4</ele>
        <time>2021-09-18T08:48:54.000Z</time>
      </trkpt>
      <trkpt lat="45.59733" lon="2.82867">
        <ele>1283.4</ele>
        <time>2021-09-18T08:49:01.000Z</time>
      </trkpt>
      <trkpt lat="45.59739" lon="2.82875">
        <ele>1284.2</ele>
        <time>2021-09-18T08:49:09.000Z</time>
      </trkpt>
      <trkpt lat="45.59745" lon="2.82883">
        <ele>1283.6</ele>
        <time>2021-09-18T08:49:18.000Z</time>
      </trkpt>
      <trkpt lat="45.5975" lon="2.82893">
        <ele>1284.8</ele>
        <time>2021-09-18T08:49:26.000Z</time>
      </trkpt>
      <trkpt lat="45.59756" lon="2.82901">
        <ele>1285.8</ele>
        <time>2021-09-18T08:49:34.000Z</time>
      </trkpt>
      <trkpt lat="45.59763" lon="2.82907">
        <ele>1286.3</ele>
        <time>2021-09-18T08:49:43.000Z</time>
      </trkpt>
      <trkpt lat="45.59768" lon="2.82917">
        <ele>1287</ele>
        <time>2021-09-18T08:49:58.000Z</time>
      </trkpt>
      <trkpt lat="45.59773" lon="2.82928">
        <ele>1287.5</ele>
        <time>2021-09-18T08:51:38.000Z</time>
      </trkpt>
      <trkpt lat="45.59776" lon="2.82938">
        <ele>1287.5</ele>
        <time>2021-09-18T08:51:46.000Z</time>
      </trkpt>
      <trkpt lat="45.59781" lon="2.82948">
        <ele>1289</ele>
        <time>2021-09-18T08:51:55.000Z</time>
      </trkpt>
      <trkpt lat="45.59785" lon="2.82959">
        <ele>1288.7</ele>
        <time>2021-09-18T08:52:02.000Z</time>
      </trkpt>
      <trkpt lat="45.59788" lon="2.82971">
        <ele>1289.4</ele>
        <time>2021-09-18T08:52:10.000Z</time>
      </trkpt>
      <trkpt lat="45.59788" lon="2.82983">
        <ele>1289.1</ele>
        <time>2021-09-18T08:52:19.000Z</time>
      </trkpt>
      <trkpt lat="45.59784" lon="2.82994">
        <ele>1288.9</ele>
        <time>2021-09-18T08:52:26.000Z</time>
      </trkpt>
      <trkpt lat="45.5978" lon="2.83004">
        <ele>1290</ele>
        <time>2021-09-18T08:52:34.000Z</time>
      </trkpt>
      <trkpt lat="45.59776" lon="2.83014">
        <ele>1292</ele>
        <time>2021-09-18T08:52:42.000Z</time>
      </trkpt>
      <trkpt lat="45.59772" lon="2.83024">
        <ele>1292.7</ele>
        <time>2021-09-18T08:52:49.000Z</time>
      </trkpt>
      <trkpt lat="45.59768" lon="2.83035">
        <ele>1292.7</ele>
        <time>2021-09-18T08:52:57.000Z</time>
      </trkpt>
      <trkpt lat="45.59765" lon="2.83046">
        <ele>1293.4</ele>
        <time>2021-09-18T08:53:05.000Z</time>
      </trkpt>
      <trkpt lat="45.5976" lon="2.83057">
        <ele>1294.1</ele>
        <time>2021-09-18T08:53:12.000Z</time>
      </trkpt>
      <trkpt lat="45.59755" lon="2.83066">
        <ele>1294.2</ele>
        <time>2021-09-18T08:53:20.000Z</time>
      </trkpt>
      <trkpt lat="45.59751" lon="2.83077">
        <ele>1296.4</ele>
        <time>2021-09-18T08:53:28.000Z</time>
      </trkpt>
      <trkpt lat="45.59747" lon="2.83087">
        <ele>1296.9</ele>
        <time>2021-09-18T08:53:37.000Z</time>
      </trkpt>
      <trkpt lat="45.59742" lon="2.83097">
        <ele>1297</ele>
        <time>2021-09-18T08:53:45.000Z</time>
      </trkpt>
      <trkpt lat="45.59743" lon="2.8311">
        <ele>1297.6</ele>
        <time>2021-09-18T08:55:15.000Z</time>
      </trkpt>
      <trkpt lat="45.59752" lon="2.83111">
        <ele>1297.8</ele>
        <time>2021-09-18T08:55:23.000Z</time>
      </trkpt>
      <trkpt lat="45.59761" lon="2.83111">
        <ele>1298.4</ele>
        <time>2021-09-18T08:55:31.000Z</time>
      </trkpt>
      <trkpt lat="45.59769" lon="2.83111">
        <ele>1299</ele>
        <time>2021-09-18T08:55:39.000Z</time>
      </trkpt>
      <trkpt lat="45.59778" lon="2.83109">
        <ele>1299.8</ele>
        <time>2021-09-18T08:55:48.000Z</time>
      </trkpt>
      <trkpt lat="45.59786" lon="2.83109">
        <ele>1300</ele>
        <time>2021-09-18T08:55:55.000Z</time>
      </trkpt>
      <trkpt lat="45.59794" lon="2.8311">
        <ele>1299.2</ele>
        <time>2021-09-18T08:56:03.000Z</time>
      </trkpt>
      <trkpt lat="45.59802" lon="2.83112">
        <ele>1300.7</ele>
        <time>2021-09-18T08:56:10.000Z</time>
      </trkpt>
      <trkpt lat="45.59809" lon="2.83117">
        <ele>1301.7</ele>
        <time>2021-09-18T08:56:17.000Z</time>
      </trkpt>
      <trkpt lat="45.59817" lon="2.83123">
        <ele>1303.4</ele>
        <time>2021-09-18T08:56:26.000Z</time>
      </trkpt>
      <trkpt lat="45.59824" lon="2.83131">
        <ele>1304.9</ele>
        <time>2021-09-18T08:56:35.000Z</time>
      </trkpt>
      <trkpt lat="45.59831" lon="2.83139">
        <ele>1305.4</ele>
        <time>2021-09-18T08:56:44.000Z</time>
      </trkpt>
      <trkpt lat="45.59836" lon="2.8315">
        <ele>1306.7</ele>
        <time>2021-09-18T08:56:54.000Z</time>
      </trkpt>
      <trkpt lat="45.59842" lon="2.83159">
        <ele>1308.7</ele>
        <time>2021-09-18T08:57:04.000Z</time>
      </trkpt>
      <trkpt lat="45.59846" lon="2.83169">
        <ele>1309.1</ele>
        <time>2021-09-18T08:57:12.000Z</time>
      </trkpt>
      <trkpt lat="45.59851" lon="2.8318">
        <ele>1309.1</ele>
        <time>2021-09-18T08:57:20.000Z</time>
      </trkpt>
      <trkpt lat="45.59856" lon="2.83191">
        <ele>1309.4</ele>
        <time>2021-09-18T08:57:29.000Z</time>
      </trkpt>
      <trkpt lat="45.59861" lon="2.83201">
        <ele>1310.1</ele>
        <time>2021-09-18T08:57:44.000Z</time>
      </trkpt>
      <trkpt lat="45.59864" lon="2.83212">
        <ele>1310.7</ele>
        <time>2021-09-18T08:57:52.000Z</time>
      </trkpt>
      <trkpt lat="45.59868" lon="2.83224">
        <ele>1312</ele>
        <time>2021-09-18T08:58:01.000Z</time>
      </trkpt>
      <trkpt lat="45.59872" lon="2.83235">
        <ele>1312.7</ele>
        <time>2021-09-18T08:58:10.000Z</time>
      </trkpt>
      <trkpt lat="45.59875" lon="2.83244">
        <ele>1314.1</ele>
        <time>2021-09-18T08:58:17.000Z</time>
      </trkpt>
      <trkpt lat="45.5988" lon="2.83255">
        <ele>1314.9</ele>
        <time>2021-09-18T08:58:26.000Z</time>
      </trkpt>
      <trkpt lat="45.59884" lon="2.83265">
        <ele>1315.8</ele>
        <time>2021-09-18T08:58:34.000Z</time>
      </trkpt>
      <trkpt lat="45.59888" lon="2.83276">
        <ele>1316.4</ele>
        <time>2021-09-18T08:58:42.000Z</time>
      </trkpt>
      <trkpt lat="45.59892" lon="2.83287">
        <ele>1317.2</ele>
        <time>2021-09-18T08:58:50.000Z</time>
      </trkpt>
      <trkpt lat="45.59895" lon="2.83299">
        <ele>1317</ele>
        <time>2021-09-18T08:58:59.000Z</time>
      </trkpt>
      <trkpt lat="45.59899" lon="2.83309">
        <ele>1316.7</ele>
        <time>2021-09-18T08:59:07.000Z</time>
      </trkpt>
      <trkpt lat="45.59902" lon="2.83321">
        <ele>1317.7</ele>
        <time>2021-09-18T08:59:16.000Z</time>
      </trkpt>
      <trkpt lat="45.59907" lon="2.8333">
        <ele>1318.9</ele>
        <time>2021-09-18T08:59:25.000Z</time>
      </trkpt>
      <trkpt lat="45.59911" lon="2.83341">
        <ele>1320</ele>
        <time>2021-09-18T08:59:33.000Z</time>
      </trkpt>
      <trkpt lat="45.59915" lon="2.83353">
        <ele>1320.8</ele>
        <time>2021-09-18T08:59:42.000Z</time>
      </trkpt>
      <trkpt lat="45.59917" lon="2.83364">
        <ele>1321.8</ele>
        <time>2021-09-18T08:59:49.000Z</time>
      </trkpt>
      <trkpt lat="45.59922" lon="2.83374">
        <ele>1322.8</ele>
        <time>2021-09-18T08:59:58.000Z</time>
      </trkpt>
      <trkpt lat="45.59925" lon="2.83383">
        <ele>1323.1</ele>
        <time>2021-09-18T09:00:05.000Z</time>
      </trkpt>
      <trkpt lat="45.59929" lon="2.83393">
        <ele>1323.3</ele>
        <time>2021-09-18T09:00:11.000Z</time>
      </trkpt>
      <trkpt lat="45.59933" lon="2.83404">
        <ele>1323.6</ele>
        <time>2021-09-18T09:00:19.000Z</time>
      </trkpt>
      <trkpt lat="45.59937" lon="2.83414">
        <ele>1323.5</ele>
        <time>2021-09-18T09:00:27.000Z</time>
      </trkpt>
      <trkpt lat="45.59941" lon="2.83425">
        <ele>1323.7</ele>
        <time>2021-09-18T09:00:36.000Z</time>
      </trkpt>
      <trkpt lat="45.59946" lon="2.83435">
        <ele>1324.4</ele>
        <time>2021-09-18T09:00:44.000Z</time>
      </trkpt>
      <trkpt lat="45.59951" lon="2.83445">
        <ele>1324.8</ele>
        <time>2021-09-18T09:00:52.000Z</time>
      </trkpt>
      <trkpt lat="45.59956" lon="2.83455">
        <ele>1326</ele>
        <time>2021-09-18T09:01:00.000Z</time>
      </trkpt>
      <trkpt lat="45.59959" lon="2.83466">
        <ele>1326</ele>
        <time>2021-09-18T09:01:07.000Z</time>
      </trkpt>
      <trkpt lat="45.59964" lon="2.83476">
        <ele>1327.6</ele>
        <time>2021-09-18T09:01:16.000Z</time>
      </trkpt>
      <trkpt lat="45.59966" lon="2.83488">
        <ele>1328.2</ele>
        <time>2021-09-18T09:01:25.000Z</time>
      </trkpt>
      <trkpt lat="45.59971" lon="2.83499">
        <ele>1329.8</ele>
        <time>2021-09-18T09:01:34.000Z</time>
      </trkpt>
      <trkpt lat="45.59975" lon="2.83509">
        <ele>1330.2</ele>
        <time>2021-09-18T09:01:42.000Z</time>
      </trkpt>
      <trkpt lat="45.59978" lon="2.8352">
        <ele>1331.4</ele>
        <time>2021-09-18T09:01:50.000Z</time>
      </trkpt>
      <trkpt lat="45.59981" lon="2.83532">
        <ele>1332.4</ele>
        <time>2021-09-18T09:01:57.000Z</time>
      </trkpt>
      <trkpt lat="45.59984" lon="2.83543">
        <ele>1332.9</ele>
        <time>2021-09-18T09:02:08.000Z</time>
      </trkpt>
      <trkpt lat="45.59988" lon="2.83553">
        <ele>1333.7</ele>
        <time>2021-09-18T09:02:16.000Z</time>
      </trkpt>
      <trkpt lat="45.5999" lon="2.83565">
        <ele>1335.2</ele>
        <time>2021-09-18T09:02:27.000Z</time>
      </trkpt>
      <trkpt lat="45.59994" lon="2.83575">
        <ele>1335.3</ele>
        <time>2021-09-18T09:02:34.000Z</time>
      </trkpt>
      <trkpt lat="45.59998" lon="2.83586">
        <ele>1336.7</ele>
        <time>2021-09-18T09:02:44.000Z</time>
      </trkpt>
      <trkpt lat="45.60002" lon="2.83597">
        <ele>1337.6</ele>
        <time>2021-09-18T09:02:53.000Z</time>
      </trkpt>
      <trkpt lat="45.60005" lon="2.83608">
        <ele>1338.1</ele>
        <time>2021-09-18T09:03:01.000Z</time>
      </trkpt>
      <trkpt lat="45.60008" lon="2.83619">
        <ele>1338.8</ele>
        <time>2021-09-18T09:03:09.000Z</time>
      </trkpt>
      <trkpt lat="45.60012" lon="2.83629">
        <ele>1339.3</ele>
        <time>2021-09-18T09:03:16.000Z</time>
      </trkpt>
      <trkpt lat="45.60015" lon="2.83641">
        <ele>1340.6</ele>
        <time>2021-09-18T09:03:25.000Z</time>
      </trkpt>
      <trkpt lat="45.60018" lon="2.83653">
        <ele>1341.1</ele>
        <time>2021-09-18T09:03:36.000Z</time>
      </trkpt>
      <trkpt lat="45.60019" lon="2.83664">
        <ele>1341.4</ele>
        <time>2021-09-18T09:03:45.000Z</time>
      </trkpt>
      <trkpt lat="45.60022" lon="2.83675">
        <ele>1341.9</ele>
        <time>2021-09-18T09:03:53.000Z</time>
      </trkpt>
      <trkpt lat="45.60026" lon="2.83685">
        <ele>1342.7</ele>
        <time>2021-09-18T09:04:01.000Z</time>
      </trkpt>
      <trkpt lat="45.6003" lon="2.83696">
        <ele>1343.6</ele>
        <time>2021-09-18T09:04:09.000Z</time>
      </trkpt>
      <trkpt lat="45.60034" lon="2.83708">
        <ele>1344.4</ele>
        <time>2021-09-18T09:04:18.000Z</time>
      </trkpt>
      <trkpt lat="45.60036" lon="2.8372">
        <ele>1345.7</ele>
        <time>2021-09-18T09:04:26.000Z</time>
      </trkpt>
      <trkpt lat="45.60039" lon="2.83732">
        <ele>1346.3</ele>
        <time>2021-09-18T09:04:37.000Z</time>
      </trkpt>
      <trkpt lat="45.6004" lon="2.83743">
        <ele>1347.3</ele>
        <time>2021-09-18T09:04:47.000Z</time>
      </trkpt>
      <trkpt lat="45.60039" lon="2.83754">
        <ele>1347.4</ele>
        <time>2021-09-18T09:04:53.000Z</time>
      </trkpt>
      <trkpt lat="45.60038" lon="2.83766">
        <ele>1348.1</ele>
        <time>2021-09-18T09:05:01.000Z</time>
      </trkpt>
      <trkpt lat="45.60038" lon="2.83778">
        <ele>1349.3</ele>
        <time>2021-09-18T09:05:08.000Z</time>
      </trkpt>
      <trkpt lat="45.60039" lon="2.83788">
        <ele>1351.3</ele>
        <time>2021-09-18T09:05:29.000Z</time>
      </trkpt>
      <trkpt lat="45.60045" lon="2.83804">
        <ele>1351.7</ele>
        <time>2021-09-18T09:05:34.000Z</time>
      </trkpt>
      <trkpt lat="45.60049" lon="2.83814">
        <ele>1351.6</ele>
        <time>2021-09-18T09:05:39.000Z</time>
      </trkpt>
      <trkpt lat="45.60054" lon="2.83824">
        <ele>1351.9</ele>
        <time>2021-09-18T09:05:45.000Z</time>
      </trkpt>
      <trkpt lat="45.60059" lon="2.83835">
        <ele>1352.3</ele>
        <time>2021-09-18T09:05:52.000Z</time>
      </trkpt>
      <trkpt lat="45.60061" lon="2.83846">
        <ele>1354</ele>
        <time>2021-09-18T09:06:00.000Z</time>
      </trkpt>
      <trkpt lat="45.60061" lon="2.83857">
        <ele>1354.4</ele>
        <time>2021-09-18T09:06:07.000Z</time>
      </trkpt>
      <trkpt lat="45.60064" lon="2.83868">
        <ele>1355.3</ele>
        <time>2021-09-18T09:06:16.000Z</time>
      </trkpt>
      <trkpt lat="45.60066" lon="2.8388">
        <ele>1357</ele>
        <time>2021-09-18T09:06:29.000Z</time>
      </trkpt>
      <trkpt lat="45.60066" lon="2.83893">
        <ele>1357</ele>
        <time>2021-09-18T09:06:38.000Z</time>
      </trkpt>
      <trkpt lat="45.60067" lon="2.83905">
        <ele>1357.5</ele>
        <time>2021-09-18T09:06:46.000Z</time>
      </trkpt>
      <trkpt lat="45.60064" lon="2.83917">
        <ele>1359.6</ele>
        <time>2021-09-18T09:07:00.000Z</time>
      </trkpt>
      <trkpt lat="45.60063" lon="2.83928">
        <ele>1359.5</ele>
        <time>2021-09-18T09:07:07.000Z</time>
      </trkpt>
      <trkpt lat="45.60066" lon="2.83939">
        <ele>1360.3</ele>
        <time>2021-09-18T09:07:13.000Z</time>
      </trkpt>
      <trkpt lat="45.60067" lon="2.83952">
        <ele>1361</ele>
        <time>2021-09-18T09:07:20.000Z</time>
      </trkpt>
      <trkpt lat="45.6007" lon="2.83963">
        <ele>1362.8</ele>
        <time>2021-09-18T09:07:32.000Z</time>
      </trkpt>
      <trkpt lat="45.60072" lon="2.83975">
        <ele>1363.4</ele>
        <time>2021-09-18T09:07:41.000Z</time>
      </trkpt>
      <trkpt lat="45.60074" lon="2.83987">
        <ele>1364.5</ele>
        <time>2021-09-18T09:07:51.000Z</time>
      </trkpt>
      <trkpt lat="45.60078" lon="2.83999">
        <ele>1365.5</ele>
        <time>2021-09-18T09:08:01.000Z</time>
      </trkpt>
      <trkpt lat="45.60082" lon="2.84009">
        <ele>1366.6</ele>
        <time>2021-09-18T09:08:09.000Z</time>
      </trkpt>
      <trkpt lat="45.60087" lon="2.84019">
        <ele>1366.6</ele>
        <time>2021-09-18T09:08:19.000Z</time>
      </trkpt>
      <trkpt lat="45.60089" lon="2.84031">
        <ele>1366.8</ele>
        <time>2021-09-18T09:08:28.000Z</time>
      </trkpt>
      <trkpt lat="45.60091" lon="2.84042">
        <ele>1367.7</ele>
        <time>2021-09-18T09:08:36.000Z</time>
      </trkpt>
      <trkpt lat="45.6009" lon="2.84054">
        <ele>1367.9</ele>
        <time>2021-09-18T09:08:47.000Z</time>
      </trkpt>
      <trkpt lat="45.60087" lon="2.84066">
        <ele>1368.4</ele>
        <time>2021-09-18T09:08:56.000Z</time>
      </trkpt>
      <trkpt lat="45.60086" lon="2.84077">
        <ele>1370.2</ele>
        <time>2021-09-18T09:09:07.000Z</time>
      </trkpt>
      <trkpt lat="45.60084" lon="2.84089">
        <ele>1372</ele>
        <time>2021-09-18T09:09:18.000Z</time>
      </trkpt>
      <trkpt lat="45.60082" lon="2.84101">
        <ele>1374</ele>
        <time>2021-09-18T09:09:28.000Z</time>
      </trkpt>
      <trkpt lat="45.6008" lon="2.84112">
        <ele>1373.7</ele>
        <time>2021-09-18T09:09:35.000Z</time>
      </trkpt>
      <trkpt lat="45.6008" lon="2.84124">
        <ele>1374.1</ele>
        <time>2021-09-18T09:09:44.000Z</time>
      </trkpt>
      <trkpt lat="45.60079" lon="2.84136">
        <ele>1374.8</ele>
        <time>2021-09-18T09:10:00.000Z</time>
      </trkpt>
      <trkpt lat="45.60081" lon="2.84147">
        <ele>1375.4</ele>
        <time>2021-09-18T09:10:07.000Z</time>
      </trkpt>
      <trkpt lat="45.6008" lon="2.84159">
        <ele>1376.8</ele>
        <time>2021-09-18T09:10:29.000Z</time>
      </trkpt>
      <trkpt lat="45.60082" lon="2.84171">
        <ele>1377.2</ele>
        <time>2021-09-18T09:10:46.000Z</time>
      </trkpt>
      <trkpt lat="45.60081" lon="2.84182">
        <ele>1377.5</ele>
        <time>2021-09-18T09:10:50.000Z</time>
      </trkpt>
      <trkpt lat="45.60082" lon="2.84194">
        <ele>1378</ele>
        <time>2021-09-18T09:10:55.000Z</time>
      </trkpt>
      <trkpt lat="45.6008" lon="2.84208">
        <ele>1378.7</ele>
        <time>2021-09-18T09:10:59.000Z</time>
      </trkpt>
      <trkpt lat="45.60079" lon="2.84219">
        <ele>1379.9</ele>
        <time>2021-09-18T09:11:06.000Z</time>
      </trkpt>
      <trkpt lat="45.60076" lon="2.84231">
        <ele>1381.8</ele>
        <time>2021-09-18T09:11:14.000Z</time>
      </trkpt>
      <trkpt lat="45.60072" lon="2.84242">
        <ele>1383.5</ele>
        <time>2021-09-18T09:11:27.000Z</time>
      </trkpt>
      <trkpt lat="45.60068" lon="2.84253">
        <ele>1383.6</ele>
        <time>2021-09-18T09:11:37.000Z</time>
      </trkpt>
      <trkpt lat="45.60065" lon="2.84265">
        <ele>1384.8</ele>
        <time>2021-09-18T09:11:51.000Z</time>
      </trkpt>
      <trkpt lat="45.60061" lon="2.84275">
        <ele>1385.7</ele>
        <time>2021-09-18T09:12:00.000Z</time>
      </trkpt>
      <trkpt lat="45.60054" lon="2.84281">
        <ele>1385.9</ele>
        <time>2021-09-18T09:12:10.000Z</time>
      </trkpt>
      <trkpt lat="45.60049" lon="2.84291">
        <ele>1387.7</ele>
        <time>2021-09-18T09:21:07.000Z</time>
      </trkpt>
      <trkpt lat="45.60054" lon="2.84302">
        <ele>1388.3</ele>
        <time>2021-09-18T09:21:17.000Z</time>
      </trkpt>
      <trkpt lat="45.60058" lon="2.84312">
        <ele>1388.7</ele>
        <time>2021-09-18T09:21:25.000Z</time>
      </trkpt>
      <trkpt lat="45.60059" lon="2.84323">
        <ele>1389.4</ele>
        <time>2021-09-18T09:21:33.000Z</time>
      </trkpt>
      <trkpt lat="45.60062" lon="2.84334">
        <ele>1389.6</ele>
        <time>2021-09-18T09:21:42.000Z</time>
      </trkpt>
      <trkpt lat="45.60062" lon="2.84346">
        <ele>1390</ele>
        <time>2021-09-18T09:21:50.000Z</time>
      </trkpt>
      <trkpt lat="45.60061" lon="2.84358">
        <ele>1391</ele>
        <time>2021-09-18T09:21:58.000Z</time>
      </trkpt>
      <trkpt lat="45.60059" lon="2.8437">
        <ele>1392.3</ele>
        <time>2021-09-18T09:22:07.000Z</time>
      </trkpt>
      <trkpt lat="45.60057" lon="2.84381">
        <ele>1393.8</ele>
        <time>2021-09-18T09:22:16.000Z</time>
      </trkpt>
      <trkpt lat="45.60051" lon="2.84391">
        <ele>1394.6</ele>
        <time>2021-09-18T09:22:27.000Z</time>
      </trkpt>
      <trkpt lat="45.60045" lon="2.84398">
        <ele>1395.4</ele>
        <time>2021-09-18T09:22:33.000Z</time>
      </trkpt>
      <trkpt lat="45.60041" lon="2.84408">
        <ele>1396.9</ele>
        <time>2021-09-18T09:22:41.000Z</time>
      </trkpt>
      <trkpt lat="45.60036" lon="2.84419">
        <ele>1397.5</ele>
        <time>2021-09-18T09:22:50.000Z</time>
      </trkpt>
      <trkpt lat="45.60033" lon="2.8443">
        <ele>1399.1</ele>
        <time>2021-09-18T09:22:58.000Z</time>
      </trkpt>
      <trkpt lat="45.60029" lon="2.84441">
        <ele>1399.8</ele>
        <time>2021-09-18T09:23:07.000Z</time>
      </trkpt>
      <trkpt lat="45.60025" lon="2.84451">
        <ele>1400.9</ele>
        <time>2021-09-18T09:23:15.000Z</time>
      </trkpt>
      <trkpt lat="45.6002" lon="2.8446">
        <ele>1401.9</ele>
        <time>2021-09-18T09:23:23.000Z</time>
      </trkpt>
      <trkpt lat="45.60014" lon="2.84468">
        <ele>1402.7</ele>
        <time>2021-09-18T09:23:30.000Z</time>
      </trkpt>
      <trkpt lat="45.60007" lon="2.84476">
        <ele>1403.3</ele>
        <time>2021-09-18T09:23:38.000Z</time>
      </trkpt>
      <trkpt lat="45.60001" lon="2.84486">
        <ele>1405.3</ele>
        <time>2021-09-18T09:23:47.000Z</time>
      </trkpt>
      <trkpt lat="45.59995" lon="2.84494">
        <ele>1406</ele>
        <time>2021-09-18T09:23:55.000Z</time>
      </trkpt>
      <trkpt lat="45.5999" lon="2.84503">
        <ele>1407.1</ele>
        <time>2021-09-18T09:24:03.000Z</time>
      </trkpt>
      <trkpt lat="45.59984" lon="2.84511">
        <ele>1407.9</ele>
        <time>2021-09-18T09:24:11.000Z</time>
      </trkpt>
      <trkpt lat="45.59977" lon="2.84519">
        <ele>1408.6</ele>
        <time>2021-09-18T09:24:19.000Z</time>
      </trkpt>
      <trkpt lat="45.59971" lon="2.84527">
        <ele>1409.6</ele>
        <time>2021-09-18T09:24:27.000Z</time>
      </trkpt>
      <trkpt lat="45.59965" lon="2.84536">
        <ele>1410</ele>
        <time>2021-09-18T09:24:36.000Z</time>
      </trkpt>
      <trkpt lat="45.59957" lon="2.84531">
        <ele>1411.3</ele>
        <time>2021-09-18T09:26:33.000Z</time>
      </trkpt>
      <trkpt lat="45.59955" lon="2.84518">
        <ele>1412.8</ele>
        <time>2021-09-18T09:27:07.000Z</time>
      </trkpt>
      <trkpt lat="45.59951" lon="2.84507">
        <ele>1414.2</ele>
        <time>2021-09-18T09:27:16.000Z</time>
      </trkpt>
      <trkpt lat="45.59942" lon="2.84509">
        <ele>1415.7</ele>
        <time>2021-09-18T09:27:31.000Z</time>
      </trkpt>
      <trkpt lat="45.59937" lon="2.8452">
        <ele>1416.9</ele>
        <time>2021-09-18T09:27:41.000Z</time>
      </trkpt>
      <trkpt lat="45.59933" lon="2.84531">
        <ele>1416.1</ele>
        <time>2021-09-18T09:27:50.000Z</time>
      </trkpt>
      <trkpt lat="45.59929" lon="2.84542">
        <ele>1416.2</ele>
        <time>2021-09-18T09:27:58.000Z</time>
      </trkpt>
      <trkpt lat="45.59925" lon="2.84552">
        <ele>1417</ele>
        <time>2021-09-18T09:28:06.000Z</time>
      </trkpt>
      <trkpt lat="45.5992" lon="2.84563">
        <ele>1416.8</ele>
        <time>2021-09-18T09:28:15.000Z</time>
      </trkpt>
      <trkpt lat="45.59916" lon="2.84574">
        <ele>1416.3</ele>
        <time>2021-09-18T09:28:23.000Z</time>
      </trkpt>
      <trkpt lat="45.59912" lon="2.84584">
        <ele>1416.8</ele>
        <time>2021-09-18T09:28:30.000Z</time>
      </trkpt>
      <trkpt lat="45.59908" lon="2.84595">
        <ele>1417.6</ele>
        <time>2021-09-18T09:28:38.000Z</time>
      </trkpt>
      <trkpt lat="45.59902" lon="2.84605">
        <ele>1418.1</ele>
        <time>2021-09-18T09:28:46.000Z</time>
      </trkpt>
      <trkpt lat="45.59899" lon="2.84615">
        <ele>1419</ele>
        <time>2021-09-18T09:28:52.000Z</time>
      </trkpt>
      <trkpt lat="45.59895" lon="2.84625">
        <ele>1419.2</ele>
        <time>2021-09-18T09:29:00.000Z</time>
      </trkpt>
      <trkpt lat="45.5989" lon="2.84636">
        <ele>1421.8</ele>
        <time>2021-09-18T09:29:07.000Z</time>
      </trkpt>
      <trkpt lat="45.59887" lon="2.84647">
        <ele>1419.7</ele>
        <time>2021-09-18T09:29:17.000Z</time>
      </trkpt>
      <trkpt lat="45.59883" lon="2.84659">
        <ele>1421.1</ele>
        <time>2021-09-18T09:29:24.000Z</time>
      </trkpt>
      <trkpt lat="45.59878" lon="2.84668">
        <ele>1422.4</ele>
        <time>2021-09-18T09:29:31.000Z</time>
      </trkpt>
      <trkpt lat="45.59875" lon="2.8468">
        <ele>1422.6</ele>
        <time>2021-09-18T09:29:39.000Z</time>
      </trkpt>
      <trkpt lat="45.5987" lon="2.8469">
        <ele>1424.5</ele>
        <time>2021-09-18T09:29:46.000Z</time>
      </trkpt>
      <trkpt lat="45.59866" lon="2.847">
        <ele>1424.7</ele>
        <time>2021-09-18T09:29:54.000Z</time>
      </trkpt>
      <trkpt lat="45.59861" lon="2.8471">
        <ele>1425.3</ele>
        <time>2021-09-18T09:30:01.000Z</time>
      </trkpt>
      <trkpt lat="45.59857" lon="2.84721">
        <ele>1426.6</ele>
        <time>2021-09-18T09:30:08.000Z</time>
      </trkpt>
      <trkpt lat="45.59853" lon="2.84733">
        <ele>1425.9</ele>
        <time>2021-09-18T09:30:16.000Z</time>
      </trkpt>
      <trkpt lat="45.59849" lon="2.84744">
        <ele>1425.9</ele>
        <time>2021-09-18T09:30:24.000Z</time>
      </trkpt>
      <trkpt lat="45.59844" lon="2.84754">
        <ele>1427.4</ele>
        <time>2021-09-18T09:30:31.000Z</time>
      </trkpt>
      <trkpt lat="45.59841" lon="2.84764">
        <ele>1427</ele>
        <time>2021-09-18T09:30:38.000Z</time>
      </trkpt>
      <trkpt lat="45.59837" lon="2.84776">
        <ele>1428.5</ele>
        <time>2021-09-18T09:30:46.000Z</time>
      </trkpt>
      <trkpt lat="45.59832" lon="2.84787">
        <ele>1430</ele>
        <time>2021-09-18T09:30:55.000Z</time>
      </trkpt>
      <trkpt lat="45.59828" lon="2.84796">
        <ele>1429.9</ele>
        <time>2021-09-18T09:31:02.000Z</time>
      </trkpt>
      <trkpt lat="45.59824" lon="2.84806">
        <ele>1431</ele>
        <time>2021-09-18T09:31:09.000Z</time>
      </trkpt>
      <trkpt lat="45.59821" lon="2.84817">
        <ele>1431</ele>
        <time>2021-09-18T09:31:15.000Z</time>
      </trkpt>
      <trkpt lat="45.59816" lon="2.84827">
        <ele>1431.5</ele>
        <time>2021-09-18T09:31:22.000Z</time>
      </trkpt>
      <trkpt lat="45.59813" lon="2.84837">
        <ele>1430.4</ele>
        <time>2021-09-18T09:31:31.000Z</time>
      </trkpt>
      <trkpt lat="45.59808" lon="2.84847">
        <ele>1432.1</ele>
        <time>2021-09-18T09:31:37.000Z</time>
      </trkpt>
      <trkpt lat="45.59804" lon="2.84857">
        <ele>1434.2</ele>
        <time>2021-09-18T09:31:44.000Z</time>
      </trkpt>
      <trkpt lat="45.59799" lon="2.84867">
        <ele>1435.6</ele>
        <time>2021-09-18T09:31:51.000Z</time>
      </trkpt>
      <trkpt lat="45.59796" lon="2.84878">
        <ele>1435.6</ele>
        <time>2021-09-18T09:31:58.000Z</time>
      </trkpt>
      <trkpt lat="45.59792" lon="2.84889">
        <ele>1435.7</ele>
        <time>2021-09-18T09:32:06.000Z</time>
      </trkpt>
      <trkpt lat="45.59788" lon="2.849">
        <ele>1435.3</ele>
        <time>2021-09-18T09:32:13.000Z</time>
      </trkpt>
      <trkpt lat="45.59784" lon="2.84909">
        <ele>1435.7</ele>
        <time>2021-09-18T09:32:21.000Z</time>
      </trkpt>
      <trkpt lat="45.59779" lon="2.8492">
        <ele>1436.7</ele>
        <time>2021-09-18T09:32:28.000Z</time>
      </trkpt>
      <trkpt lat="45.59775" lon="2.8493">
        <ele>1437.5</ele>
        <time>2021-09-18T09:32:35.000Z</time>
      </trkpt>
      <trkpt lat="45.5977" lon="2.84941">
        <ele>1438.3</ele>
        <time>2021-09-18T09:32:42.000Z</time>
      </trkpt>
      <trkpt lat="45.59766" lon="2.8495">
        <ele>1438.9</ele>
        <time>2021-09-18T09:32:49.000Z</time>
      </trkpt>
      <trkpt lat="45.59762" lon="2.84961">
        <ele>1440.3</ele>
        <time>2021-09-18T09:32:55.000Z</time>
      </trkpt>
      <trkpt lat="45.59758" lon="2.84971">
        <ele>1441.2</ele>
        <time>2021-09-18T09:33:04.000Z</time>
      </trkpt>
      <trkpt lat="45.59754" lon="2.84981">
        <ele>1442.3</ele>
        <time>2021-09-18T09:33:11.000Z</time>
      </trkpt>
      <trkpt lat="45.59751" lon="2.84992">
        <ele>1442.4</ele>
        <time>2021-09-18T09:33:18.000Z</time>
      </trkpt>
      <trkpt lat="45.59747" lon="2.85002">
        <ele>1443.1</ele>
        <time>2021-09-18T09:33:26.000Z</time>
      </trkpt>
      <trkpt lat="45.59742" lon="2.85012">
        <ele>1443.9</ele>
        <time>2021-09-18T09:33:33.000Z</time>
      </trkpt>
      <trkpt lat="45.59738" lon="2.85022">
        <ele>1445.2</ele>
        <time>2021-09-18T09:33:40.000Z</time>
      </trkpt>
      <trkpt lat="45.59734" lon="2.85033">
        <ele>1446.6</ele>
        <time>2021-09-18T09:33:47.000Z</time>
      </trkpt>
      <trkpt lat="45.5973" lon="2.85043">
        <ele>1446.8</ele>
        <time>2021-09-18T09:33:54.000Z</time>
      </trkpt>
      <trkpt lat="45.59725" lon="2.85053">
        <ele>1446.6</ele>
        <time>2021-09-18T09:34:01.000Z</time>
      </trkpt>
      <trkpt lat="45.59721" lon="2.85063">
        <ele>1446.9</ele>
        <time>2021-09-18T09:34:08.000Z</time>
      </trkpt>
      <trkpt lat="45.59717" lon="2.85074">
        <ele>1447.8</ele>
        <time>2021-09-18T09:34:15.000Z</time>
      </trkpt>
      <trkpt lat="45.59713" lon="2.85084">
        <ele>1447.6</ele>
        <time>2021-09-18T09:34:22.000Z</time>
      </trkpt>
      <trkpt lat="45.59709" lon="2.85094">
        <ele>1448.5</ele>
        <time>2021-09-18T09:34:29.000Z</time>
      </trkpt>
      <trkpt lat="45.59706" lon="2.85106">
        <ele>1447.7</ele>
        <time>2021-09-18T09:34:37.000Z</time>
      </trkpt>
      <trkpt lat="45.597" lon="2.85116">
        <ele>1447.4</ele>
        <time>2021-09-18T09:37:54.000Z</time>
      </trkpt>
      <trkpt lat="45.59692" lon="2.85111">
        <ele>1447.1</ele>
        <time>2021-09-18T09:39:02.000Z</time>
      </trkpt>
      <trkpt lat="45.59685" lon="2.85104">
        <ele>1446.9</ele>
        <time>2021-09-18T09:39:09.000Z</time>
      </trkpt>
      <trkpt lat="45.59679" lon="2.85097">
        <ele>1447.9</ele>
        <time>2021-09-18T09:39:18.000Z</time>
      </trkpt>
      <trkpt lat="45.59675" lon="2.85086">
        <ele>1447.5</ele>
        <time>2021-09-18T09:39:26.000Z</time>
      </trkpt>
      <trkpt lat="45.59673" lon="2.85074">
        <ele>1448</ele>
        <time>2021-09-18T09:39:34.000Z</time>
      </trkpt>
      <trkpt lat="45.59671" lon="2.85062">
        <ele>1448.1</ele>
        <time>2021-09-18T09:39:42.000Z</time>
      </trkpt>
      <trkpt lat="45.5967" lon="2.85051">
        <ele>1449.5</ele>
        <time>2021-09-18T09:39:49.000Z</time>
      </trkpt>
      <trkpt lat="45.59671" lon="2.85039">
        <ele>1449.8</ele>
        <time>2021-09-18T09:39:57.000Z</time>
      </trkpt>
      <trkpt lat="45.5967" lon="2.85027">
        <ele>1449.4</ele>
        <time>2021-09-18T09:40:04.000Z</time>
      </trkpt>
      <trkpt lat="45.59665" lon="2.85017">
        <ele>1449.3</ele>
        <time>2021-09-18T09:40:43.000Z</time>
      </trkpt>
      <trkpt lat="45.59659" lon="2.85008">
        <ele>1449.2</ele>
        <time>2021-09-18T09:40:54.000Z</time>
      </trkpt>
      <trkpt lat="45.59654" lon="2.84999">
        <ele>1450.4</ele>
        <time>2021-09-18T09:41:00.000Z</time>
      </trkpt>
      <trkpt lat="45.5965" lon="2.8499">
        <ele>1450.1</ele>
        <time>2021-09-18T09:41:06.000Z</time>
      </trkpt>
      <trkpt lat="45.59645" lon="2.84981">
        <ele>1449.9</ele>
        <time>2021-09-18T09:41:12.000Z</time>
      </trkpt>
      <trkpt lat="45.5964" lon="2.84971">
        <ele>1449.1</ele>
        <time>2021-09-18T09:41:19.000Z</time>
      </trkpt>
      <trkpt lat="45.59634" lon="2.84962">
        <ele>1449.6</ele>
        <time>2021-09-18T09:41:25.000Z</time>
      </trkpt>
      <trkpt lat="45.59628" lon="2.84954">
        <ele>1449.2</ele>
        <time>2021-09-18T09:41:31.000Z</time>
      </trkpt>
      <trkpt lat="45.59621" lon="2.84946">
        <ele>1449.1</ele>
        <time>2021-09-18T09:41:38.000Z</time>
      </trkpt>
      <trkpt lat="45.59615" lon="2.8494">
        <ele>1450.1</ele>
        <time>2021-09-18T09:41:46.000Z</time>
      </trkpt>
      <trkpt lat="45.59608" lon="2.84932">
        <ele>1450.4</ele>
        <time>2021-09-18T09:41:54.000Z</time>
      </trkpt>
      <trkpt lat="45.59601" lon="2.84924">
        <ele>1452.6</ele>
        <time>2021-09-18T09:42:04.000Z</time>
      </trkpt>
      <trkpt lat="45.59595" lon="2.84916">
        <ele>1453.4</ele>
        <time>2021-09-18T09:42:14.000Z</time>
      </trkpt>
      <trkpt lat="45.59587" lon="2.8491">
        <ele>1454.4</ele>
        <time>2021-09-18T09:42:25.000Z</time>
      </trkpt>
      <trkpt lat="45.59583" lon="2.84899">
        <ele>1456.1</ele>
        <time>2021-09-18T09:42:35.000Z</time>
      </trkpt>
      <trkpt lat="45.59579" lon="2.84888">
        <ele>1457.4</ele>
        <time>2021-09-18T09:42:45.000Z</time>
      </trkpt>
      <trkpt lat="45.59574" lon="2.84878">
        <ele>1459.5</ele>
        <time>2021-09-18T09:42:57.000Z</time>
      </trkpt>
      <trkpt lat="45.59569" lon="2.84868">
        <ele>1461</ele>
        <time>2021-09-18T09:43:12.000Z</time>
      </trkpt>
      <trkpt lat="45.59563" lon="2.84858">
        <ele>1463.3</ele>
        <time>2021-09-18T09:43:24.000Z</time>
      </trkpt>
      <trkpt lat="45.5956" lon="2.84847">
        <ele>1466.7</ele>
        <time>2021-09-18T09:43:38.000Z</time>
      </trkpt>
      <trkpt lat="45.59556" lon="2.84836">
        <ele>1469.2</ele>
        <time>2021-09-18T09:43:53.000Z</time>
      </trkpt>
      <trkpt lat="45.59553" lon="2.84825">
        <ele>1470.8</ele>
        <time>2021-09-18T09:44:02.000Z</time>
      </trkpt>
      <trkpt lat="45.5955" lon="2.84815">
        <ele>1472.5</ele>
        <time>2021-09-18T09:44:18.000Z</time>
      </trkpt>
      <trkpt lat="45.59546" lon="2.84803">
        <ele>1474.8</ele>
        <time>2021-09-18T09:45:10.000Z</time>
      </trkpt>
      <trkpt lat="45.59543" lon="2.84791">
        <ele>1476.8</ele>
        <time>2021-09-18T09:45:22.000Z</time>
      </trkpt>
      <trkpt lat="45.5954" lon="2.84781">
        <ele>1478.3</ele>
        <time>2021-09-18T09:45:33.000Z</time>
      </trkpt>
      <trkpt lat="45.59534" lon="2.84771">
        <ele>1478.4</ele>
        <time>2021-09-18T09:45:42.000Z</time>
      </trkpt>
      <trkpt lat="45.59529" lon="2.84761">
        <ele>1480.4</ele>
        <time>2021-09-18T09:45:54.000Z</time>
      </trkpt>
      <trkpt lat="45.59525" lon="2.84751">
        <ele>1483</ele>
        <time>2021-09-18T09:46:16.000Z</time>
      </trkpt>
      <trkpt lat="45.59522" lon="2.84739">
        <ele>1485.2</ele>
        <time>2021-09-18T09:46:30.000Z</time>
      </trkpt>
      <trkpt lat="45.5952" lon="2.84727">
        <ele>1487.4</ele>
        <time>2021-09-18T09:46:40.000Z</time>
      </trkpt>
      <trkpt lat="45.59517" lon="2.84716">
        <ele>1490.5</ele>
        <time>2021-09-18T09:47:14.000Z</time>
      </trkpt>
      <trkpt lat="45.59515" lon="2.84704">
        <ele>1492.2</ele>
        <time>2021-09-18T09:47:25.000Z</time>
      </trkpt>
      <trkpt lat="45.59507" lon="2.84699">
        <ele>1493</ele>
        <time>2021-09-18T09:47:42.000Z</time>
      </trkpt>
      <trkpt lat="45.59499" lon="2.84702">
        <ele>1497.2</ele>
        <time>2021-09-18T09:47:56.000Z</time>
      </trkpt>
      <trkpt lat="45.59492" lon="2.84708">
        <ele>1499.5</ele>
        <time>2021-09-18T09:48:12.000Z</time>
      </trkpt>
      <trkpt lat="45.59485" lon="2.84715">
        <ele>1502.6</ele>
        <time>2021-09-18T09:48:35.000Z</time>
      </trkpt>
      <trkpt lat="45.59477" lon="2.84721">
        <ele>1505.1</ele>
        <time>2021-09-18T09:49:25.000Z</time>
      </trkpt>
      <trkpt lat="45.59469" lon="2.84726">
        <ele>1506.5</ele>
        <time>2021-09-18T09:49:37.000Z</time>
      </trkpt>
      <trkpt lat="45.59462" lon="2.84731">
        <ele>1510.2</ele>
        <time>2021-09-18T09:49:49.000Z</time>
      </trkpt>
      <trkpt lat="45.59456" lon="2.84722">
        <ele>1513.3</ele>
        <time>2021-09-18T09:50:06.000Z</time>
      </trkpt>
      <trkpt lat="45.59456" lon="2.8471">
        <ele>1515.4</ele>
        <time>2021-09-18T09:50:18.000Z</time>
      </trkpt>
      <trkpt lat="45.59456" lon="2.84698">
        <ele>1516.5</ele>
        <time>2021-09-18T09:50:29.000Z</time>
      </trkpt>
      <trkpt lat="45.59456" lon="2.84686">
        <ele>1520</ele>
        <time>2021-09-18T09:51:40.000Z</time>
      </trkpt>
      <trkpt lat="45.59457" lon="2.84675">
        <ele>1520.8</ele>
        <time>2021-09-18T09:51:48.000Z</time>
      </trkpt>
      <trkpt lat="45.59456" lon="2.84664">
        <ele>1521.4</ele>
        <time>2021-09-18T09:51:55.000Z</time>
      </trkpt>
      <trkpt lat="45.59452" lon="2.84653">
        <ele>1522.7</ele>
        <time>2021-09-18T09:52:05.000Z</time>
      </trkpt>
      <trkpt lat="45.5945" lon="2.84641">
        <ele>1523.4</ele>
        <time>2021-09-18T09:52:14.000Z</time>
      </trkpt>
      <trkpt lat="45.59453" lon="2.84629">
        <ele>1524.9</ele>
        <time>2021-09-18T09:52:25.000Z</time>
      </trkpt>
      <trkpt lat="45.59451" lon="2.84617">
        <ele>1526.9</ele>
        <time>2021-09-18T09:52:36.000Z</time>
      </trkpt>
      <trkpt lat="45.59453" lon="2.84605">
        <ele>1528.7</ele>
        <time>2021-09-18T09:52:50.000Z</time>
      </trkpt>
      <trkpt lat="45.59455" lon="2.84593">
        <ele>1532.3</ele>
        <time>2021-09-18T09:53:00.000Z</time>
      </trkpt>
      <trkpt lat="45.59457" lon="2.84582">
        <ele>1531.6</ele>
        <time>2021-09-18T09:53:07.000Z</time>
      </trkpt>
      <trkpt lat="45.59458" lon="2.8457">
        <ele>1532</ele>
        <time>2021-09-18T09:53:15.000Z</time>
      </trkpt>
      <trkpt lat="45.59462" lon="2.84559">
        <ele>1533.6</ele>
        <time>2021-09-18T09:53:23.000Z</time>
      </trkpt>
      <trkpt lat="45.5946" lon="2.84547">
        <ele>1534.6</ele>
        <time>2021-09-18T09:53:33.000Z</time>
      </trkpt>
      <trkpt lat="45.59458" lon="2.84534">
        <ele>1535.9</ele>
        <time>2021-09-18T09:53:45.000Z</time>
      </trkpt>
      <trkpt lat="45.59458" lon="2.84522">
        <ele>1537</ele>
        <time>2021-09-18T09:53:54.000Z</time>
      </trkpt>
      <trkpt lat="45.59457" lon="2.8451">
        <ele>1537.4</ele>
        <time>2021-09-18T09:54:05.000Z</time>
      </trkpt>
      <trkpt lat="45.59457" lon="2.84498">
        <ele>1538.1</ele>
        <time>2021-09-18T09:54:15.000Z</time>
      </trkpt>
      <trkpt lat="45.59456" lon="2.84486">
        <ele>1540.8</ele>
        <time>2021-09-18T09:54:25.000Z</time>
      </trkpt>
      <trkpt lat="45.59457" lon="2.84473">
        <ele>1542.4</ele>
        <time>2021-09-18T09:54:40.000Z</time>
      </trkpt>
      <trkpt lat="45.59457" lon="2.84461">
        <ele>1543.4</ele>
        <time>2021-09-18T09:54:50.000Z</time>
      </trkpt>
      <trkpt lat="45.59456" lon="2.84449">
        <ele>1545.2</ele>
        <time>2021-09-18T09:55:02.000Z</time>
      </trkpt>
      <trkpt lat="45.59457" lon="2.84438">
        <ele>1546.9</ele>
        <time>2021-09-18T09:55:14.000Z</time>
      </trkpt>
      <trkpt lat="45.59457" lon="2.84426">
        <ele>1548.2</ele>
        <time>2021-09-18T09:55:22.000Z</time>
      </trkpt>
      <trkpt lat="45.59457" lon="2.84414">
        <ele>1551.2</ele>
        <time>2021-09-18T09:55:33.000Z</time>
      </trkpt>
      <trkpt lat="45.59456" lon="2.84401">
        <ele>1552.9</ele>
        <time>2021-09-18T09:55:45.000Z</time>
      </trkpt>
      <trkpt lat="45.59454" lon="2.84389">
        <ele>1554.3</ele>
        <time>2021-09-18T09:55:55.000Z</time>
      </trkpt>
      <trkpt lat="45.59455" lon="2.84378">
        <ele>1555.5</ele>
        <time>2021-09-18T09:56:02.000Z</time>
      </trkpt>
      <trkpt lat="45.59447" lon="2.84382">
        <ele>1558</ele>
        <time>2021-09-18T09:59:49.000Z</time>
      </trkpt>
      <trkpt lat="45.59442" lon="2.84391">
        <ele>1558.8</ele>
        <time>2021-09-18T09:59:58.000Z</time>
      </trkpt>
      <trkpt lat="45.59438" lon="2.84401">
        <ele>1561</ele>
        <time>2021-09-18T10:00:08.000Z</time>
      </trkpt>
      <trkpt lat="45.59433" lon="2.84412">
        <ele>1563.4</ele>
        <time>2021-09-18T10:00:25.000Z</time>
      </trkpt>
      <trkpt lat="45.59429" lon="2.84421">
        <ele>1564.3</ele>
        <time>2021-09-18T10:00:33.000Z</time>
      </trkpt>
      <trkpt lat="45.59424" lon="2.84431">
        <ele>1565.1</ele>
        <time>2021-09-18T10:00:50.000Z</time>
      </trkpt>
      <trkpt lat="45.59419" lon="2.84439">
        <ele>1565.8</ele>
        <time>2021-09-18T10:01:00.000Z</time>
      </trkpt>
      <trkpt lat="45.59415" lon="2.84449">
        <ele>1566.9</ele>
        <time>2021-09-18T10:01:08.000Z</time>
      </trkpt>
      <trkpt lat="45.5941" lon="2.84459">
        <ele>1568.5</ele>
        <time>2021-09-18T10:01:16.000Z</time>
      </trkpt>
      <trkpt lat="45.59405" lon="2.84468">
        <ele>1569.8</ele>
        <time>2021-09-18T10:01:26.000Z</time>
      </trkpt>
      <trkpt lat="45.59398" lon="2.84474">
        <ele>1573.1</ele>
        <time>2021-09-18T10:01:45.000Z</time>
      </trkpt>
      <trkpt lat="45.59395" lon="2.84485">
        <ele>1573.3</ele>
        <time>2021-09-18T10:01:52.000Z</time>
      </trkpt>
      <trkpt lat="45.5939" lon="2.84495">
        <ele>1574.4</ele>
        <time>2021-09-18T10:01:59.000Z</time>
      </trkpt>
      <trkpt lat="45.59386" lon="2.84484">
        <ele>1577.4</ele>
        <time>2021-09-18T10:02:15.000Z</time>
      </trkpt>
      <trkpt lat="45.59387" lon="2.84472">
        <ele>1577.9</ele>
        <time>2021-09-18T10:02:23.000Z</time>
      </trkpt>
      <trkpt lat="45.59386" lon="2.84459">
        <ele>1579.5</ele>
        <time>2021-09-18T10:02:31.000Z</time>
      </trkpt>
      <trkpt lat="45.59388" lon="2.84447">
        <ele>1581.9</ele>
        <time>2021-09-18T10:02:40.000Z</time>
      </trkpt>
      <trkpt lat="45.59389" lon="2.84434">
        <ele>1585.2</ele>
        <time>2021-09-18T10:02:50.000Z</time>
      </trkpt>
      <trkpt lat="45.59388" lon="2.84422">
        <ele>1586.8</ele>
        <time>2021-09-18T10:02:59.000Z</time>
      </trkpt>
      <trkpt lat="45.5939" lon="2.84411">
        <ele>1587.4</ele>
        <time>2021-09-18T10:03:07.000Z</time>
      </trkpt>
      <trkpt lat="45.5939" lon="2.84399">
        <ele>1588</ele>
        <time>2021-09-18T10:03:15.000Z</time>
      </trkpt>
      <trkpt lat="45.5939" lon="2.84386">
        <ele>1590.1</ele>
        <time>2021-09-18T10:03:23.000Z</time>
      </trkpt>
      <trkpt lat="45.59388" lon="2.84374">
        <ele>1591.5</ele>
        <time>2021-09-18T10:03:33.000Z</time>
      </trkpt>
      <trkpt lat="45.59387" lon="2.84362">
        <ele>1592.6</ele>
        <time>2021-09-18T10:03:41.000Z</time>
      </trkpt>
      <trkpt lat="45.59388" lon="2.84351">
        <ele>1593</ele>
        <time>2021-09-18T10:03:48.000Z</time>
      </trkpt>
      <trkpt lat="45.59387" lon="2.84339">
        <ele>1593</ele>
        <time>2021-09-18T10:03:55.000Z</time>
      </trkpt>
      <trkpt lat="45.59385" lon="2.84327">
        <ele>1594.2</ele>
        <time>2021-09-18T10:04:05.000Z</time>
      </trkpt>
      <trkpt lat="45.59383" lon="2.84316">
        <ele>1595.6</ele>
        <time>2021-09-18T10:04:14.000Z</time>
      </trkpt>
      <trkpt lat="45.5938" lon="2.84305">
        <ele>1596.7</ele>
        <time>2021-09-18T10:04:21.000Z</time>
      </trkpt>
      <trkpt lat="45.59378" lon="2.84294">
        <ele>1597.7</ele>
        <time>2021-09-18T10:04:27.000Z</time>
      </trkpt>
      <trkpt lat="45.59374" lon="2.84283">
        <ele>1600.4</ele>
        <time>2021-09-18T10:04:37.000Z</time>
      </trkpt>
      <trkpt lat="45.59367" lon="2.84275">
        <ele>1601.6</ele>
        <time>2021-09-18T10:04:44.000Z</time>
      </trkpt>
      <trkpt lat="45.59361" lon="2.84269">
        <ele>1603.3</ele>
        <time>2021-09-18T10:04:52.000Z</time>
      </trkpt>
      <trkpt lat="45.59356" lon="2.84258">
        <ele>1603.8</ele>
        <time>2021-09-18T10:04:59.000Z</time>
      </trkpt>
      <trkpt lat="45.59352" lon="2.84269">
        <ele>1606.1</ele>
        <time>2021-09-18T10:05:18.000Z</time>
      </trkpt>
      <trkpt lat="45.5935" lon="2.84281">
        <ele>1607.6</ele>
        <time>2021-09-18T10:05:26.000Z</time>
      </trkpt>
      <trkpt lat="45.59347" lon="2.84293">
        <ele>1610.8</ele>
        <time>2021-09-18T10:05:39.000Z</time>
      </trkpt>
      <trkpt lat="45.59338" lon="2.84296">
        <ele>1612.6</ele>
        <time>2021-09-18T10:05:57.000Z</time>
      </trkpt>
      <trkpt lat="45.59332" lon="2.84305">
        <ele>1616.9</ele>
        <time>2021-09-18T10:06:11.000Z</time>
      </trkpt>
      <trkpt lat="45.59325" lon="2.84312">
        <ele>1619.9</ele>
        <time>2021-09-18T10:06:36.000Z</time>
      </trkpt>
      <trkpt lat="45.5932" lon="2.84322">
        <ele>1621.5</ele>
        <time>2021-09-18T10:06:43.000Z</time>
      </trkpt>
      <trkpt lat="45.59316" lon="2.84333">
        <ele>1624.1</ele>
        <time>2021-09-18T10:07:13.000Z</time>
      </trkpt>
      <trkpt lat="45.59314" lon="2.84345">
        <ele>1626.1</ele>
        <time>2021-09-18T10:07:24.000Z</time>
      </trkpt>
      <trkpt lat="45.59308" lon="2.84354">
        <ele>1628.1</ele>
        <time>2021-09-18T10:07:38.000Z</time>
      </trkpt>
      <trkpt lat="45.59304" lon="2.84365">
        <ele>1630.5</ele>
        <time>2021-09-18T10:07:54.000Z</time>
      </trkpt>
      <trkpt lat="45.59298" lon="2.84373">
        <ele>1635.1</ele>
        <time>2021-09-18T10:08:17.000Z</time>
      </trkpt>
      <trkpt lat="45.59294" lon="2.84385">
        <ele>1638.9</ele>
        <time>2021-09-18T10:08:37.000Z</time>
      </trkpt>
      <trkpt lat="45.5929" lon="2.84396">
        <ele>1641.7</ele>
        <time>2021-09-18T10:08:59.000Z</time>
      </trkpt>
      <trkpt lat="45.59282" lon="2.84401">
        <ele>1644.2</ele>
        <time>2021-09-18T10:09:25.000Z</time>
      </trkpt>
      <trkpt lat="45.59274" lon="2.84406">
        <ele>1646.1</ele>
        <time>2021-09-18T10:09:39.000Z</time>
      </trkpt>
      <trkpt lat="45.59272" lon="2.84418">
        <ele>1650.2</ele>
        <time>2021-09-18T10:09:57.000Z</time>
      </trkpt>
      <trkpt lat="45.59265" lon="2.84425">
        <ele>1652.7</ele>
        <time>2021-09-18T10:10:12.000Z</time>
      </trkpt>
      <trkpt lat="45.59258" lon="2.84432">
        <ele>1655.8</ele>
        <time>2021-09-18T10:10:27.000Z</time>
      </trkpt>
      <trkpt lat="45.59252" lon="2.8444">
        <ele>1657.5</ele>
        <time>2021-09-18T10:10:41.000Z</time>
      </trkpt>
      <trkpt lat="45.59245" lon="2.84449">
        <ele>1659.1</ele>
        <time>2021-09-18T10:10:55.000Z</time>
      </trkpt>
      <trkpt lat="45.59238" lon="2.84456">
        <ele>1661.4</ele>
        <time>2021-09-18T10:11:08.000Z</time>
      </trkpt>
      <trkpt lat="45.59233" lon="2.84466">
        <ele>1663.3</ele>
        <time>2021-09-18T10:11:19.000Z</time>
      </trkpt>
      <trkpt lat="45.59225" lon="2.84473">
        <ele>1665.3</ele>
        <time>2021-09-18T10:11:29.000Z</time>
      </trkpt>
      <trkpt lat="45.5922" lon="2.84483">
        <ele>1666.1</ele>
        <time>2021-09-18T10:11:41.000Z</time>
      </trkpt>
      <trkpt lat="45.59216" lon="2.84494">
        <ele>1665.8</ele>
        <time>2021-09-18T10:11:50.000Z</time>
      </trkpt>
      <trkpt lat="45.5922" lon="2.84484">
        <ele>1669.1</ele>
        <time>2021-09-18T10:12:55.000Z</time>
      </trkpt>
      <trkpt lat="45.59224" lon="2.84475">
        <ele>1669.1</ele>
        <time>2021-09-18T10:13:01.000Z</time>
      </trkpt>
      <trkpt lat="45.59231" lon="2.84467">
        <ele>1668.4</ele>
        <time>2021-09-18T10:13:10.000Z</time>
      </trkpt>
      <trkpt lat="45.59237" lon="2.8446">
        <ele>1667.3</ele>
        <time>2021-09-18T10:13:18.000Z</time>
      </trkpt>
      <trkpt lat="45.59244" lon="2.84453">
        <ele>1666.1</ele>
        <time>2021-09-18T10:13:26.000Z</time>
      </trkpt>
      <trkpt lat="45.59249" lon="2.84444">
        <ele>1664.6</ele>
        <time>2021-09-18T10:13:36.000Z</time>
      </trkpt>
      <trkpt lat="45.59255" lon="2.84436">
        <ele>1663.5</ele>
        <time>2021-09-18T10:13:45.000Z</time>
      </trkpt>
      <trkpt lat="45.59262" lon="2.8443">
        <ele>1659.7</ele>
        <time>2021-09-18T10:14:10.000Z</time>
      </trkpt>
      <trkpt lat="45.5927" lon="2.84423">
        <ele>1656.6</ele>
        <time>2021-09-18T10:14:32.000Z</time>
      </trkpt>
      <trkpt lat="45.59273" lon="2.84412">
        <ele>1655.5</ele>
        <time>2021-09-18T10:14:44.000Z</time>
      </trkpt>
      <trkpt lat="45.5928" lon="2.84403">
        <ele>1650.8</ele>
        <time>2021-09-18T10:15:32.000Z</time>
      </trkpt>
      <trkpt lat="45.59287" lon="2.84399">
        <ele>1648</ele>
        <time>2021-09-18T10:15:53.000Z</time>
      </trkpt>
      <trkpt lat="45.59289" lon="2.84387">
        <ele>1645.7</ele>
        <time>2021-09-18T10:16:09.000Z</time>
      </trkpt>
      <trkpt lat="45.59297" lon="2.84383">
        <ele>1643.2</ele>
        <time>2021-09-18T10:16:24.000Z</time>
      </trkpt>
      <trkpt lat="45.59302" lon="2.84373">
        <ele>1638.6</ele>
        <time>2021-09-18T10:16:49.000Z</time>
      </trkpt>
      <trkpt lat="45.59304" lon="2.84361">
        <ele>1637.8</ele>
        <time>2021-09-18T10:17:02.000Z</time>
      </trkpt>
      <trkpt lat="45.59311" lon="2.84352">
        <ele>1632.9</ele>
        <time>2021-09-18T10:17:24.000Z</time>
      </trkpt>
      <trkpt lat="45.59313" lon="2.8434">
        <ele>1630.8</ele>
        <time>2021-09-18T10:17:39.000Z</time>
      </trkpt>
      <trkpt lat="45.59317" lon="2.84329">
        <ele>1628.9</ele>
        <time>2021-09-18T10:17:52.000Z</time>
      </trkpt>
      <trkpt lat="45.59322" lon="2.8432">
        <ele>1625.7</ele>
        <time>2021-09-18T10:18:12.000Z</time>
      </trkpt>
      <trkpt lat="45.59328" lon="2.8431">
        <ele>1624.1</ele>
        <time>2021-09-18T10:18:21.000Z</time>
      </trkpt>
      <trkpt lat="45.59334" lon="2.84302">
        <ele>1622.2</ele>
        <time>2021-09-18T10:18:33.000Z</time>
      </trkpt>
      <trkpt lat="45.59341" lon="2.84293">
        <ele>1617.9</ele>
        <time>2021-09-18T10:18:53.000Z</time>
      </trkpt>
      <trkpt lat="45.59348" lon="2.84286">
        <ele>1614.2</ele>
        <time>2021-09-18T10:19:14.000Z</time>
      </trkpt>
      <trkpt lat="45.59349" lon="2.84274">
        <ele>1612.1</ele>
        <time>2021-09-18T10:19:28.000Z</time>
      </trkpt>
      <trkpt lat="45.59352" lon="2.84261">
        <ele>1610.8</ele>
        <time>2021-09-18T10:19:39.000Z</time>
      </trkpt>
      <trkpt lat="45.5936" lon="2.84266">
        <ele>1608.9</ele>
        <time>2021-09-18T10:19:50.000Z</time>
      </trkpt>
      <trkpt lat="45.59365" lon="2.84276">
        <ele>1607.1</ele>
        <time>2021-09-18T10:19:59.000Z</time>
      </trkpt>
      <trkpt lat="45.5936" lon="2.84266">
        <ele>1604.9</ele>
        <time>2021-09-18T10:22:23.000Z</time>
      </trkpt>
      <trkpt lat="45.59354" lon="2.84256">
        <ele>1605.4</ele>
        <time>2021-09-18T10:22:36.000Z</time>
      </trkpt>
      <trkpt lat="45.59352" lon="2.84268">
        <ele>1607</ele>
        <time>2021-09-18T10:22:59.000Z</time>
      </trkpt>
      <trkpt lat="45.5935" lon="2.84279">
        <ele>1607.9</ele>
        <time>2021-09-18T10:23:08.000Z</time>
      </trkpt>
      <trkpt lat="45.59348" lon="2.84291">
        <ele>1609</ele>
        <time>2021-09-18T10:23:22.000Z</time>
      </trkpt>
      <trkpt lat="45.5934" lon="2.84293">
        <ele>1612.9</ele>
        <time>2021-09-18T10:23:38.000Z</time>
      </trkpt>
      <trkpt lat="45.59333" lon="2.84302">
        <ele>1617.3</ele>
        <time>2021-09-18T10:23:57.000Z</time>
      </trkpt>
      <trkpt lat="45.59327" lon="2.84311">
        <ele>1619.7</ele>
        <time>2021-09-18T10:24:13.000Z</time>
      </trkpt>
      <trkpt lat="45.59321" lon="2.8432">
        <ele>1620.7</ele>
        <time>2021-09-18T10:24:24.000Z</time>
      </trkpt>
      <trkpt lat="45.59317" lon="2.8433">
        <ele>1623.1</ele>
        <time>2021-09-18T10:24:43.000Z</time>
      </trkpt>
      <trkpt lat="45.59313" lon="2.84341">
        <ele>1625.8</ele>
        <time>2021-09-18T10:24:57.000Z</time>
      </trkpt>
      <trkpt lat="45.59311" lon="2.84353">
        <ele>1627.2</ele>
        <time>2021-09-18T10:25:19.000Z</time>
      </trkpt>
      <trkpt lat="45.59306" lon="2.84364">
        <ele>1632.1</ele>
        <time>2021-09-18T10:28:46.000Z</time>
      </trkpt>
      <trkpt lat="45.59298" lon="2.8437">
        <ele>1634.1</ele>
        <time>2021-09-18T10:29:06.000Z</time>
      </trkpt>
      <trkpt lat="45.59296" lon="2.84382">
        <ele>1636.5</ele>
        <time>2021-09-18T10:29:23.000Z</time>
      </trkpt>
      <trkpt lat="45.59288" lon="2.84388">
        <ele>1638.7</ele>
        <time>2021-09-18T10:29:47.000Z</time>
      </trkpt>
      <trkpt lat="45.59286" lon="2.844">
        <ele>1641.1</ele>
        <time>2021-09-18T10:30:01.000Z</time>
      </trkpt>
      <trkpt lat="45.59277" lon="2.84401">
        <ele>1644.2</ele>
        <time>2021-09-18T10:30:17.000Z</time>
      </trkpt>
      <trkpt lat="45.59273" lon="2.84412">
        <ele>1648.1</ele>
        <time>2021-09-18T10:30:32.000Z</time>
      </trkpt>
      <trkpt lat="45.59269" lon="2.84422">
        <ele>1651.6</ele>
        <time>2021-09-18T10:30:55.000Z</time>
      </trkpt>
      <trkpt lat="45.59262" lon="2.84429">
        <ele>1653.7</ele>
        <time>2021-09-18T10:31:07.000Z</time>
      </trkpt>
      <trkpt lat="45.59255" lon="2.84436">
        <ele>1656</ele>
        <time>2021-09-18T10:31:19.000Z</time>
      </trkpt>
      <trkpt lat="45.59248" lon="2.84444">
        <ele>1658.4</ele>
        <time>2021-09-18T10:31:31.000Z</time>
      </trkpt>
      <trkpt lat="45.59241" lon="2.84449">
        <ele>1660.5</ele>
        <time>2021-09-18T10:31:41.000Z</time>
      </trkpt>
      <trkpt lat="45.59235" lon="2.84458">
        <ele>1662.2</ele>
        <time>2021-09-18T10:31:56.000Z</time>
      </trkpt>
      <trkpt lat="45.59228" lon="2.84464">
        <ele>1663.8</ele>
        <time>2021-09-18T10:32:06.000Z</time>
      </trkpt>
      <trkpt lat="45.59219" lon="2.84464">
        <ele>1665.2</ele>
        <time>2021-09-18T10:32:19.000Z</time>
      </trkpt>
      <trkpt lat="45.59212" lon="2.84458">
        <ele>1668.2</ele>
        <time>2021-09-18T10:33:37.000Z</time>
      </trkpt>
      <trkpt lat="45.59218" lon="2.84448">
        <ele>1666.8</ele>
        <time>2021-09-18T10:42:45.000Z</time>
      </trkpt>
      <trkpt lat="45.59222" lon="2.8444">
        <ele>1665.6</ele>
        <time>2021-09-18T10:42:51.000Z</time>
      </trkpt>
      <trkpt lat="45.59213" lon="2.8444">
        <ele>1662.8</ele>
        <time>2021-09-18T10:43:05.000Z</time>
      </trkpt>
      <trkpt lat="45.59212" lon="2.84453">
        <ele>1668.9</ele>
        <time>2021-09-18T10:43:33.000Z</time>
      </trkpt>
      <trkpt lat="45.5921" lon="2.84465">
        <ele>1665.9</ele>
        <time>2021-09-18T10:50:34.000Z</time>
      </trkpt>
      <trkpt lat="45.59211" lon="2.84452">
        <ele>1667.6</ele>
        <time>2021-09-18T10:53:35.000Z</time>
      </trkpt>
      <trkpt lat="45.59218" lon="2.84451">
        <ele>1669.5</ele>
        <time>2021-09-18T11:16:00.000Z</time>
      </trkpt>
      <trkpt lat="45.59226" lon="2.84432">
        <ele>1671.1</ele>
        <time>2021-09-18T11:16:05.000Z</time>
      </trkpt>
      <trkpt lat="45.59218" lon="2.84438">
        <ele>1671.8</ele>
        <time>2021-09-18T11:16:09.000Z</time>
      </trkpt>
      <trkpt lat="45.59213" lon="2.84448">
        <ele>1670.9</ele>
        <time>2021-09-18T11:16:17.000Z</time>
      </trkpt>
      <trkpt lat="45.59209" lon="2.84459">
        <ele>1670.7</ele>
        <time>2021-09-18T11:21:07.000Z</time>
      </trkpt>
      <trkpt lat="45.59211" lon="2.84471">
        <ele>1669.5</ele>
        <time>2021-09-18T11:21:37.000Z</time>
      </trkpt>
      <trkpt lat="45.59211" lon="2.84484">
        <ele>1669.2</ele>
        <time>2021-09-18T11:21:47.000Z</time>
      </trkpt>
      <trkpt lat="45.5921" lon="2.84496">
        <ele>1669.8</ele>
        <time>2021-09-18T11:21:56.000Z</time>
      </trkpt>
      <trkpt lat="45.59208" lon="2.84507">
        <ele>1669.2</ele>
        <time>2021-09-18T11:22:05.000Z</time>
      </trkpt>
      <trkpt lat="45.59204" lon="2.84518">
        <ele>1669.4</ele>
        <time>2021-09-18T11:22:15.000Z</time>
      </trkpt>
      <trkpt lat="45.59199" lon="2.84528">
        <ele>1669.7</ele>
        <time>2021-09-18T11:22:26.000Z</time>
      </trkpt>
      <trkpt lat="45.59196" lon="2.84539">
        <ele>1670.6</ele>
        <time>2021-09-18T11:22:38.000Z</time>
      </trkpt>
      <trkpt lat="45.59193" lon="2.84551">
        <ele>1670.4</ele>
        <time>2021-09-18T11:22:56.000Z</time>
      </trkpt>
      <trkpt lat="45.5919" lon="2.84562">
        <ele>1670.5</ele>
        <time>2021-09-18T11:23:09.000Z</time>
      </trkpt>
      <trkpt lat="45.59183" lon="2.84569">
        <ele>1669.7</ele>
        <time>2021-09-18T11:23:20.000Z</time>
      </trkpt>
      <trkpt lat="45.59176" lon="2.84575">
        <ele>1669</ele>
        <time>2021-09-18T11:23:30.000Z</time>
      </trkpt>
      <trkpt lat="45.59168" lon="2.8458">
        <ele>1667.4</ele>
        <time>2021-09-18T11:23:40.000Z</time>
      </trkpt>
      <trkpt lat="45.5916" lon="2.84582">
        <ele>1666.2</ele>
        <time>2021-09-18T11:23:47.000Z</time>
      </trkpt>
      <trkpt lat="45.59152" lon="2.84585">
        <ele>1664.8</ele>
        <time>2021-09-18T11:23:55.000Z</time>
      </trkpt>
      <trkpt lat="45.59144" lon="2.84587">
        <ele>1664.2</ele>
        <time>2021-09-18T11:24:03.000Z</time>
      </trkpt>
      <trkpt lat="45.59135" lon="2.84586">
        <ele>1661.7</ele>
        <time>2021-09-18T11:24:25.000Z</time>
      </trkpt>
      <trkpt lat="45.59127" lon="2.84587">
        <ele>1661</ele>
        <time>2021-09-18T11:24:35.000Z</time>
      </trkpt>
      <trkpt lat="45.59119" lon="2.84591">
        <ele>1660.4</ele>
        <time>2021-09-18T11:24:44.000Z</time>
      </trkpt>
      <trkpt lat="45.59111" lon="2.84596">
        <ele>1660</ele>
        <time>2021-09-18T11:24:52.000Z</time>
      </trkpt>
      <trkpt lat="45.59103" lon="2.84599">
        <ele>1659</ele>
        <time>2021-09-18T11:25:00.000Z</time>
      </trkpt>
      <trkpt lat="45.59094" lon="2.84601">
        <ele>1658.1</ele>
        <time>2021-09-18T11:25:09.000Z</time>
      </trkpt>
      <trkpt lat="45.59085" lon="2.84601">
        <ele>1657.1</ele>
        <time>2021-09-18T11:25:18.000Z</time>
      </trkpt>
      <trkpt lat="45.59077" lon="2.84602">
        <ele>1656.9</ele>
        <time>2021-09-18T11:25:26.000Z</time>
      </trkpt>
      <trkpt lat="45.59069" lon="2.84603">
        <ele>1656</ele>
        <time>2021-09-18T11:25:33.000Z</time>
      </trkpt>
      <trkpt lat="45.5906" lon="2.84602">
        <ele>1654.5</ele>
        <time>2021-09-18T11:25:41.000Z</time>
      </trkpt>
      <trkpt lat="45.59052" lon="2.84601">
        <ele>1654.5</ele>
        <time>2021-09-18T11:25:48.000Z</time>
      </trkpt>
      <trkpt lat="45.59044" lon="2.84596">
        <ele>1654.8</ele>
        <time>2021-09-18T11:25:56.000Z</time>
      </trkpt>
      <trkpt lat="45.59036" lon="2.8459">
        <ele>1653.6</ele>
        <time>2021-09-18T11:26:06.000Z</time>
      </trkpt>
      <trkpt lat="45.59029" lon="2.84584">
        <ele>1652.9</ele>
        <time>2021-09-18T11:26:14.000Z</time>
      </trkpt>
      <trkpt lat="45.59023" lon="2.84576">
        <ele>1653.3</ele>
        <time>2021-09-18T11:26:21.000Z</time>
      </trkpt>
      <trkpt lat="45.59018" lon="2.84568">
        <ele>1655</ele>
        <time>2021-09-18T11:26:27.000Z</time>
      </trkpt>
      <trkpt lat="45.5901" lon="2.84562">
        <ele>1654.3</ele>
        <time>2021-09-18T11:26:36.000Z</time>
      </trkpt>
      <trkpt lat="45.59004" lon="2.84555">
        <ele>1653.3</ele>
        <time>2021-09-18T11:26:45.000Z</time>
      </trkpt>
      <trkpt lat="45.58998" lon="2.84547">
        <ele>1652.4</ele>
        <time>2021-09-18T11:26:54.000Z</time>
      </trkpt>
      <trkpt lat="45.58991" lon="2.8454">
        <ele>1652.2</ele>
        <time>2021-09-18T11:27:04.000Z</time>
      </trkpt>
      <trkpt lat="45.58984" lon="2.84532">
        <ele>1649.9</ele>
        <time>2021-09-18T11:27:44.000Z</time>
      </trkpt>
      <trkpt lat="45.58978" lon="2.84522">
        <ele>1649.2</ele>
        <time>2021-09-18T11:27:55.000Z</time>
      </trkpt>
      <trkpt lat="45.58975" lon="2.84512">
        <ele>1647.3</ele>
        <time>2021-09-18T11:28:07.000Z</time>
      </trkpt>
      <trkpt lat="45.58969" lon="2.84504">
        <ele>1646.5</ele>
        <time>2021-09-18T11:28:15.000Z</time>
      </trkpt>
      <trkpt lat="45.58962" lon="2.84498">
        <ele>1645.7</ele>
        <time>2021-09-18T11:28:22.000Z</time>
      </trkpt>
      <trkpt lat="45.58953" lon="2.84497">
        <ele>1644.8</ele>
        <time>2021-09-18T11:28:31.000Z</time>
      </trkpt>
      <trkpt lat="45.58945" lon="2.84496">
        <ele>1644.8</ele>
        <time>2021-09-18T11:28:39.000Z</time>
      </trkpt>
      <trkpt lat="45.58936" lon="2.84495">
        <ele>1644</ele>
        <time>2021-09-18T11:28:47.000Z</time>
      </trkpt>
      <trkpt lat="45.58928" lon="2.84494">
        <ele>1644.5</ele>
        <time>2021-09-18T11:28:55.000Z</time>
      </trkpt>
      <trkpt lat="45.58919" lon="2.84491">
        <ele>1641.9</ele>
        <time>2021-09-18T11:29:08.000Z</time>
      </trkpt>
      <trkpt lat="45.58911" lon="2.84488">
        <ele>1640.5</ele>
        <time>2021-09-18T11:29:19.000Z</time>
      </trkpt>
      <trkpt lat="45.58903" lon="2.84484">
        <ele>1638.1</ele>
        <time>2021-09-18T11:29:32.000Z</time>
      </trkpt>
      <trkpt lat="45.58895" lon="2.84482">
        <ele>1635.8</ele>
        <time>2021-09-18T11:29:44.000Z</time>
      </trkpt>
      <trkpt lat="45.58887" lon="2.84478">
        <ele>1635.1</ele>
        <time>2021-09-18T11:30:08.000Z</time>
      </trkpt>
      <trkpt lat="45.58879" lon="2.84481">
        <ele>1631.4</ele>
        <time>2021-09-18T11:30:31.000Z</time>
      </trkpt>
      <trkpt lat="45.5887" lon="2.84483">
        <ele>1630.4</ele>
        <time>2021-09-18T11:30:39.000Z</time>
      </trkpt>
      <trkpt lat="45.58862" lon="2.84486">
        <ele>1630.6</ele>
        <time>2021-09-18T11:30:47.000Z</time>
      </trkpt>
      <trkpt lat="45.58853" lon="2.84487">
        <ele>1628.6</ele>
        <time>2021-09-18T11:30:56.000Z</time>
      </trkpt>
      <trkpt lat="45.58845" lon="2.84484">
        <ele>1627.3</ele>
        <time>2021-09-18T11:32:02.000Z</time>
      </trkpt>
      <trkpt lat="45.58836" lon="2.84484">
        <ele>1627.2</ele>
        <time>2021-09-18T11:32:13.000Z</time>
      </trkpt>
      <trkpt lat="45.58828" lon="2.84487">
        <ele>1625.4</ele>
        <time>2021-09-18T11:32:32.000Z</time>
      </trkpt>
      <trkpt lat="45.5882" lon="2.84491">
        <ele>1622.4</ele>
        <time>2021-09-18T11:32:47.000Z</time>
      </trkpt>
      <trkpt lat="45.58812" lon="2.84493">
        <ele>1620.8</ele>
        <time>2021-09-18T11:33:00.000Z</time>
      </trkpt>
      <trkpt lat="45.58803" lon="2.84496">
        <ele>1618.7</ele>
        <time>2021-09-18T11:33:09.000Z</time>
      </trkpt>
      <trkpt lat="45.58795" lon="2.84498">
        <ele>1616.7</ele>
        <time>2021-09-18T11:33:19.000Z</time>
      </trkpt>
      <trkpt lat="45.58786" lon="2.84501">
        <ele>1612.8</ele>
        <time>2021-09-18T11:33:31.000Z</time>
      </trkpt>
      <trkpt lat="45.58778" lon="2.84503">
        <ele>1609.7</ele>
        <time>2021-09-18T11:33:49.000Z</time>
      </trkpt>
      <trkpt lat="45.5877" lon="2.8451">
        <ele>1607</ele>
        <time>2021-09-18T11:33:59.000Z</time>
      </trkpt>
      <trkpt lat="45.58762" lon="2.84513">
        <ele>1606.6</ele>
        <time>2021-09-18T11:34:06.000Z</time>
      </trkpt>
      <trkpt lat="45.58755" lon="2.84515">
        <ele>1606</ele>
        <time>2021-09-18T11:34:12.000Z</time>
      </trkpt>
      <trkpt lat="45.58747" lon="2.84518">
        <ele>1606</ele>
        <time>2021-09-18T11:34:20.000Z</time>
      </trkpt>
      <trkpt lat="45.58738" lon="2.84519">
        <ele>1606.4</ele>
        <time>2021-09-18T11:34:28.000Z</time>
      </trkpt>
      <trkpt lat="45.5873" lon="2.84516">
        <ele>1606.5</ele>
        <time>2021-09-18T11:34:35.000Z</time>
      </trkpt>
      <trkpt lat="45.58721" lon="2.84514">
        <ele>1607.8</ele>
        <time>2021-09-18T11:34:43.000Z</time>
      </trkpt>
      <trkpt lat="45.58714" lon="2.84516">
        <ele>1607.9</ele>
        <time>2021-09-18T11:34:50.000Z</time>
      </trkpt>
      <trkpt lat="45.58705" lon="2.84517">
        <ele>1610.6</ele>
        <time>2021-09-18T11:35:02.000Z</time>
      </trkpt>
      <trkpt lat="45.58696" lon="2.84515">
        <ele>1610.9</ele>
        <time>2021-09-18T11:35:13.000Z</time>
      </trkpt>
      <trkpt lat="45.58688" lon="2.84515">
        <ele>1613.6</ele>
        <time>2021-09-18T11:36:17.000Z</time>
      </trkpt>
      <trkpt lat="45.58679" lon="2.84517">
        <ele>1614.6</ele>
        <time>2021-09-18T11:36:28.000Z</time>
      </trkpt>
      <trkpt lat="45.5867" lon="2.84514">
        <ele>1616.4</ele>
        <time>2021-09-18T11:36:50.000Z</time>
      </trkpt>
      <trkpt lat="45.58662" lon="2.84514">
        <ele>1619.5</ele>
        <time>2021-09-18T11:37:46.000Z</time>
      </trkpt>
      <trkpt lat="45.58655" lon="2.8451">
        <ele>1620.2</ele>
        <time>2021-09-18T11:37:57.000Z</time>
      </trkpt>
      <trkpt lat="45.58647" lon="2.84507">
        <ele>1621.6</ele>
        <time>2021-09-18T11:38:05.000Z</time>
      </trkpt>
      <trkpt lat="45.58639" lon="2.84505">
        <ele>1622.9</ele>
        <time>2021-09-18T11:38:14.000Z</time>
      </trkpt>
      <trkpt lat="45.58647" lon="2.84506">
        <ele>1623.6</ele>
        <time>2021-09-18T11:38:57.000Z</time>
      </trkpt>
      <trkpt lat="45.58655" lon="2.8451">
        <ele>1623.2</ele>
        <time>2021-09-18T11:39:05.000Z</time>
      </trkpt>
      <trkpt lat="45.58664" lon="2.84514">
        <ele>1622.1</ele>
        <time>2021-09-18T11:39:17.000Z</time>
      </trkpt>
      <trkpt lat="45.58655" lon="2.8451">
        <ele>1621.9</ele>
        <time>2021-09-18T11:40:37.000Z</time>
      </trkpt>
      <trkpt lat="45.58648" lon="2.84505">
        <ele>1622.4</ele>
        <time>2021-09-18T11:40:45.000Z</time>
      </trkpt>
      <trkpt lat="45.5864" lon="2.84502">
        <ele>1624</ele>
        <time>2021-09-18T11:40:53.000Z</time>
      </trkpt>
      <trkpt lat="45.58631" lon="2.84499">
        <ele>1625.2</ele>
        <time>2021-09-18T11:41:02.000Z</time>
      </trkpt>
      <trkpt lat="45.58623" lon="2.84495">
        <ele>1627.2</ele>
        <time>2021-09-18T11:41:11.000Z</time>
      </trkpt>
      <trkpt lat="45.58615" lon="2.84491">
        <ele>1627.8</ele>
        <time>2021-09-18T11:41:36.000Z</time>
      </trkpt>
      <trkpt lat="45.58606" lon="2.84488">
        <ele>1627.9</ele>
        <time>2021-09-18T11:41:49.000Z</time>
      </trkpt>
      <trkpt lat="45.58598" lon="2.84485">
        <ele>1629.4</ele>
        <time>2021-09-18T11:41:59.000Z</time>
      </trkpt>
      <trkpt lat="45.58589" lon="2.84484">
        <ele>1631.5</ele>
        <time>2021-09-18T11:42:09.000Z</time>
      </trkpt>
      <trkpt lat="45.58581" lon="2.84483">
        <ele>1632.7</ele>
        <time>2021-09-18T11:42:17.000Z</time>
      </trkpt>
      <trkpt lat="45.58573" lon="2.84484">
        <ele>1633.4</ele>
        <time>2021-09-18T11:42:26.000Z</time>
      </trkpt>
      <trkpt lat="45.58565" lon="2.84482">
        <ele>1635.9</ele>
        <time>2021-09-18T11:42:37.000Z</time>
      </trkpt>
      <trkpt lat="45.58557" lon="2.8448">
        <ele>1636.9</ele>
        <time>2021-09-18T11:42:46.000Z</time>
      </trkpt>
      <trkpt lat="45.58548" lon="2.84479">
        <ele>1638.4</ele>
        <time>2021-09-18T11:42:55.000Z</time>
      </trkpt>
      <trkpt lat="45.58541" lon="2.84477">
        <ele>1640.1</ele>
        <time>2021-09-18T11:43:03.000Z</time>
      </trkpt>
      <trkpt lat="45.58532" lon="2.84476">
        <ele>1641.7</ele>
        <time>2021-09-18T11:43:14.000Z</time>
      </trkpt>
      <trkpt lat="45.58536" lon="2.84487">
        <ele>1645.2</ele>
        <time>2021-09-18T11:43:36.000Z</time>
      </trkpt>
      <trkpt lat="45.58542" lon="2.84496">
        <ele>1646.8</ele>
        <time>2021-09-18T11:43:48.000Z</time>
      </trkpt>
      <trkpt lat="45.58545" lon="2.84506">
        <ele>1648.4</ele>
        <time>2021-09-18T11:44:09.000Z</time>
      </trkpt>
      <trkpt lat="45.58547" lon="2.84518">
        <ele>1650.7</ele>
        <time>2021-09-18T11:44:20.000Z</time>
      </trkpt>
      <trkpt lat="45.58548" lon="2.84531">
        <ele>1652.8</ele>
        <time>2021-09-18T11:44:33.000Z</time>
      </trkpt>
      <trkpt lat="45.5854" lon="2.84528">
        <ele>1655.1</ele>
        <time>2021-09-18T11:44:49.000Z</time>
      </trkpt>
      <trkpt lat="45.58532" lon="2.84527">
        <ele>1657.5</ele>
        <time>2021-09-18T11:45:02.000Z</time>
      </trkpt>
      <trkpt lat="45.58523" lon="2.84523">
        <ele>1659.3</ele>
        <time>2021-09-18T11:45:16.000Z</time>
      </trkpt>
      <trkpt lat="45.58526" lon="2.84534">
        <ele>1662.3</ele>
        <time>2021-09-18T11:45:31.000Z</time>
      </trkpt>
      <trkpt lat="45.58527" lon="2.84546">
        <ele>1664.1</ele>
        <time>2021-09-18T11:45:43.000Z</time>
      </trkpt>
      <trkpt lat="45.5853" lon="2.84558">
        <ele>1668.3</ele>
        <time>2021-09-18T11:50:06.000Z</time>
      </trkpt>
      <trkpt lat="45.58531" lon="2.8457">
        <ele>1671</ele>
        <time>2021-09-18T11:50:18.000Z</time>
      </trkpt>
      <trkpt lat="45.58529" lon="2.84582">
        <ele>1672</ele>
        <time>2021-09-18T11:50:32.000Z</time>
      </trkpt>
      <trkpt lat="45.58521" lon="2.84577">
        <ele>1672.8</ele>
        <time>2021-09-18T11:50:44.000Z</time>
      </trkpt>
      <trkpt lat="45.58513" lon="2.84576">
        <ele>1674.6</ele>
        <time>2021-09-18T11:51:01.000Z</time>
      </trkpt>
      <trkpt lat="45.58504" lon="2.84576">
        <ele>1677</ele>
        <time>2021-09-18T11:51:16.000Z</time>
      </trkpt>
      <trkpt lat="45.58496" lon="2.84574">
        <ele>1678.9</ele>
        <time>2021-09-18T11:51:32.000Z</time>
      </trkpt>
      <trkpt lat="45.58487" lon="2.84571">
        <ele>1681.1</ele>
        <time>2021-09-18T11:51:43.000Z</time>
      </trkpt>
      <trkpt lat="45.58479" lon="2.84568">
        <ele>1681.9</ele>
        <time>2021-09-18T11:51:52.000Z</time>
      </trkpt>
      <trkpt lat="45.58472" lon="2.84564">
        <ele>1682.8</ele>
        <time>2021-09-18T11:52:01.000Z</time>
      </trkpt>
      <trkpt lat="45.58464" lon="2.84561">
        <ele>1684.6</ele>
        <time>2021-09-18T11:52:10.000Z</time>
      </trkpt>
      <trkpt lat="45.58456" lon="2.84559">
        <ele>1685.3</ele>
        <time>2021-09-18T11:52:19.000Z</time>
      </trkpt>
      <trkpt lat="45.58447" lon="2.84558">
        <ele>1686.4</ele>
        <time>2021-09-18T11:52:29.000Z</time>
      </trkpt>
      <trkpt lat="45.58438" lon="2.84555">
        <ele>1689.2</ele>
        <time>2021-09-18T11:52:38.000Z</time>
      </trkpt>
      <trkpt lat="45.5843" lon="2.84554">
        <ele>1688.6</ele>
        <time>2021-09-18T11:52:49.000Z</time>
      </trkpt>
      <trkpt lat="45.58421" lon="2.84554">
        <ele>1689.6</ele>
        <time>2021-09-18T11:52:59.000Z</time>
      </trkpt>
      <trkpt lat="45.58413" lon="2.84557">
        <ele>1691</ele>
        <time>2021-09-18T11:53:08.000Z</time>
      </trkpt>
      <trkpt lat="45.58405" lon="2.8456">
        <ele>1692.3</ele>
        <time>2021-09-18T11:53:18.000Z</time>
      </trkpt>
      <trkpt lat="45.58397" lon="2.84563">
        <ele>1692.3</ele>
        <time>2021-09-18T11:53:29.000Z</time>
      </trkpt>
      <trkpt lat="45.58388" lon="2.84565">
        <ele>1694.5</ele>
        <time>2021-09-18T11:53:38.000Z</time>
      </trkpt>
      <trkpt lat="45.5838" lon="2.84567">
        <ele>1695.1</ele>
        <time>2021-09-18T11:53:47.000Z</time>
      </trkpt>
      <trkpt lat="45.58371" lon="2.84572">
        <ele>1696.8</ele>
        <time>2021-09-18T11:54:06.000Z</time>
      </trkpt>
      <trkpt lat="45.58363" lon="2.8457">
        <ele>1698.2</ele>
        <time>2021-09-18T11:54:20.000Z</time>
      </trkpt>
      <trkpt lat="45.58355" lon="2.84567">
        <ele>1698.6</ele>
        <time>2021-09-18T11:54:29.000Z</time>
      </trkpt>
      <trkpt lat="45.58347" lon="2.84561">
        <ele>1699.4</ele>
        <time>2021-09-18T11:54:38.000Z</time>
      </trkpt>
      <trkpt lat="45.58339" lon="2.84555">
        <ele>1700.1</ele>
        <time>2021-09-18T11:54:47.000Z</time>
      </trkpt>
      <trkpt lat="45.58332" lon="2.8455">
        <ele>1701.1</ele>
        <time>2021-09-18T11:54:56.000Z</time>
      </trkpt>
      <trkpt lat="45.58325" lon="2.84543">
        <ele>1702.4</ele>
        <time>2021-09-18T11:55:05.000Z</time>
      </trkpt>
      <trkpt lat="45.58318" lon="2.84535">
        <ele>1701.8</ele>
        <time>2021-09-18T11:55:15.000Z</time>
      </trkpt>
      <trkpt lat="45.58311" lon="2.84527">
        <ele>1701.5</ele>
        <time>2021-09-18T11:55:26.000Z</time>
      </trkpt>
      <trkpt lat="45.58304" lon="2.84522">
        <ele>1702.2</ele>
        <time>2021-09-18T11:55:36.000Z</time>
      </trkpt>
      <trkpt lat="45.58296" lon="2.84516">
        <ele>1701.3</ele>
        <time>2021-09-18T11:55:58.000Z</time>
      </trkpt>
      <trkpt lat="45.58289" lon="2.8451">
        <ele>1701.6</ele>
        <time>2021-09-18T11:56:08.000Z</time>
      </trkpt>
      <trkpt lat="45.58282" lon="2.84504">
        <ele>1701</ele>
        <time>2021-09-18T11:56:16.000Z</time>
      </trkpt>
      <trkpt lat="45.58274" lon="2.845">
        <ele>1700.8</ele>
        <time>2021-09-18T11:56:27.000Z</time>
      </trkpt>
      <trkpt lat="45.58266" lon="2.84493">
        <ele>1701.5</ele>
        <time>2021-09-18T11:56:37.000Z</time>
      </trkpt>
      <trkpt lat="45.58259" lon="2.84487">
        <ele>1702.6</ele>
        <time>2021-09-18T11:56:46.000Z</time>
      </trkpt>
      <trkpt lat="45.58253" lon="2.84478">
        <ele>1704.3</ele>
        <time>2021-09-18T11:57:00.000Z</time>
      </trkpt>
      <trkpt lat="45.58247" lon="2.84469">
        <ele>1705.3</ele>
        <time>2021-09-18T11:57:10.000Z</time>
      </trkpt>
      <trkpt lat="45.58241" lon="2.84462">
        <ele>1705.8</ele>
        <time>2021-09-18T11:57:21.000Z</time>
      </trkpt>
      <trkpt lat="45.58233" lon="2.84456">
        <ele>1705.6</ele>
        <time>2021-09-18T11:57:30.000Z</time>
      </trkpt>
      <trkpt lat="45.58226" lon="2.84451">
        <ele>1704.6</ele>
        <time>2021-09-18T11:57:39.000Z</time>
      </trkpt>
      <trkpt lat="45.58218" lon="2.84448">
        <ele>1704.6</ele>
        <time>2021-09-18T11:57:47.000Z</time>
      </trkpt>
      <trkpt lat="45.5821" lon="2.84444">
        <ele>1704.9</ele>
        <time>2021-09-18T11:57:56.000Z</time>
      </trkpt>
      <trkpt lat="45.58203" lon="2.8444">
        <ele>1704.5</ele>
        <time>2021-09-18T11:58:04.000Z</time>
      </trkpt>
      <trkpt lat="45.58194" lon="2.84437">
        <ele>1705.1</ele>
        <time>2021-09-18T11:58:12.000Z</time>
      </trkpt>
      <trkpt lat="45.58187" lon="2.84434">
        <ele>1704.1</ele>
        <time>2021-09-18T11:58:21.000Z</time>
      </trkpt>
      <trkpt lat="45.58179" lon="2.84432">
        <ele>1703.6</ele>
        <time>2021-09-18T11:58:29.000Z</time>
      </trkpt>
      <trkpt lat="45.5817" lon="2.84428">
        <ele>1703.2</ele>
        <time>2021-09-18T11:58:39.000Z</time>
      </trkpt>
      <trkpt lat="45.58162" lon="2.84424">
        <ele>1703</ele>
        <time>2021-09-18T11:58:48.000Z</time>
      </trkpt>
      <trkpt lat="45.58154" lon="2.84419">
        <ele>1702.3</ele>
        <time>2021-09-18T11:58:57.000Z</time>
      </trkpt>
      <trkpt lat="45.58147" lon="2.84414">
        <ele>1701.1</ele>
        <time>2021-09-18T11:59:05.000Z</time>
      </trkpt>
      <trkpt lat="45.58139" lon="2.84408">
        <ele>1699.9</ele>
        <time>2021-09-18T11:59:13.000Z</time>
      </trkpt>
      <trkpt lat="45.58135" lon="2.84397">
        <ele>1699.9</ele>
        <time>2021-09-18T11:59:24.000Z</time>
      </trkpt>
      <trkpt lat="45.58132" lon="2.84387">
        <ele>1698.1</ele>
        <time>2021-09-18T11:59:33.000Z</time>
      </trkpt>
      <trkpt lat="45.58128" lon="2.84377">
        <ele>1696.3</ele>
        <time>2021-09-18T11:59:42.000Z</time>
      </trkpt>
      <trkpt lat="45.58124" lon="2.84366">
        <ele>1695.4</ele>
        <time>2021-09-18T11:59:52.000Z</time>
      </trkpt>
      <trkpt lat="45.58119" lon="2.84357">
        <ele>1694.9</ele>
        <time>2021-09-18T12:00:01.000Z</time>
      </trkpt>
      <trkpt lat="45.58114" lon="2.84347">
        <ele>1693</ele>
        <time>2021-09-18T12:00:12.000Z</time>
      </trkpt>
      <trkpt lat="45.58108" lon="2.84338">
        <ele>1691</ele>
        <time>2021-09-18T12:00:23.000Z</time>
      </trkpt>
      <trkpt lat="45.58101" lon="2.84332">
        <ele>1688.7</ele>
        <time>2021-09-18T12:01:04.000Z</time>
      </trkpt>
      <trkpt lat="45.58098" lon="2.8432">
        <ele>1687.6</ele>
        <time>2021-09-18T12:08:01.000Z</time>
      </trkpt>
      <trkpt lat="45.58094" lon="2.84309">
        <ele>1687.3</ele>
        <time>2021-09-18T12:08:08.000Z</time>
      </trkpt>
      <trkpt lat="45.5809" lon="2.84298">
        <ele>1688</ele>
        <time>2021-09-18T12:08:15.000Z</time>
      </trkpt>
      <trkpt lat="45.58087" lon="2.84287">
        <ele>1686.2</ele>
        <time>2021-09-18T12:08:22.000Z</time>
      </trkpt>
      <trkpt lat="45.58085" lon="2.84276">
        <ele>1687.5</ele>
        <time>2021-09-18T12:08:30.000Z</time>
      </trkpt>
      <trkpt lat="45.58081" lon="2.84265">
        <ele>1687.4</ele>
        <time>2021-09-18T12:08:38.000Z</time>
      </trkpt>
      <trkpt lat="45.58077" lon="2.84254">
        <ele>1688.5</ele>
        <time>2021-09-18T12:08:45.000Z</time>
      </trkpt>
      <trkpt lat="45.58075" lon="2.84242">
        <ele>1688.3</ele>
        <time>2021-09-18T12:08:52.000Z</time>
      </trkpt>
      <trkpt lat="45.58071" lon="2.84231">
        <ele>1689.6</ele>
        <time>2021-09-18T12:09:00.000Z</time>
      </trkpt>
      <trkpt lat="45.58068" lon="2.8422">
        <ele>1690.2</ele>
        <time>2021-09-18T12:09:08.000Z</time>
      </trkpt>
      <trkpt lat="45.58065" lon="2.84208">
        <ele>1690.6</ele>
        <time>2021-09-18T12:09:16.000Z</time>
      </trkpt>
      <trkpt lat="45.58062" lon="2.84196">
        <ele>1690.6</ele>
        <time>2021-09-18T12:09:25.000Z</time>
      </trkpt>
      <trkpt lat="45.58057" lon="2.84187">
        <ele>1691.6</ele>
        <time>2021-09-18T12:09:33.000Z</time>
      </trkpt>
      <trkpt lat="45.58055" lon="2.84175">
        <ele>1692.7</ele>
        <time>2021-09-18T12:09:42.000Z</time>
      </trkpt>
      <trkpt lat="45.5805" lon="2.84164">
        <ele>1694.4</ele>
        <time>2021-09-18T12:09:52.000Z</time>
      </trkpt>
      <trkpt lat="45.58045" lon="2.84155">
        <ele>1694.5</ele>
        <time>2021-09-18T12:10:04.000Z</time>
      </trkpt>
      <trkpt lat="45.58039" lon="2.84147">
        <ele>1696.4</ele>
        <time>2021-09-18T12:10:14.000Z</time>
      </trkpt>
      <trkpt lat="45.58032" lon="2.84139">
        <ele>1699.2</ele>
        <time>2021-09-18T12:10:26.000Z</time>
      </trkpt>
      <trkpt lat="45.58025" lon="2.8413">
        <ele>1701</ele>
        <time>2021-09-18T12:10:37.000Z</time>
      </trkpt>
      <trkpt lat="45.58019" lon="2.84122">
        <ele>1702.7</ele>
        <time>2021-09-18T12:10:48.000Z</time>
      </trkpt>
      <trkpt lat="45.58011" lon="2.84116">
        <ele>1703.3</ele>
        <time>2021-09-18T12:10:59.000Z</time>
      </trkpt>
      <trkpt lat="45.58004" lon="2.84112">
        <ele>1704.6</ele>
        <time>2021-09-18T12:11:11.000Z</time>
      </trkpt>
      <trkpt lat="45.57995" lon="2.8411">
        <ele>1706</ele>
        <time>2021-09-18T12:11:21.000Z</time>
      </trkpt>
      <trkpt lat="45.57986" lon="2.84109">
        <ele>1707.8</ele>
        <time>2021-09-18T12:11:32.000Z</time>
      </trkpt>
      <trkpt lat="45.57977" lon="2.84105">
        <ele>1708.6</ele>
        <time>2021-09-18T12:11:42.000Z</time>
      </trkpt>
      <trkpt lat="45.57969" lon="2.84101">
        <ele>1709.6</ele>
        <time>2021-09-18T12:11:53.000Z</time>
      </trkpt>
      <trkpt lat="45.57962" lon="2.84097">
        <ele>1710.1</ele>
        <time>2021-09-18T12:12:01.000Z</time>
      </trkpt>
      <trkpt lat="45.57954" lon="2.8409">
        <ele>1712.8</ele>
        <time>2021-09-18T12:12:10.000Z</time>
      </trkpt>
      <trkpt lat="45.57947" lon="2.84082">
        <ele>1711.8</ele>
        <time>2021-09-18T12:12:19.000Z</time>
      </trkpt>
      <trkpt lat="45.5794" lon="2.84077">
        <ele>1713.8</ele>
        <time>2021-09-18T12:12:28.000Z</time>
      </trkpt>
      <trkpt lat="45.57932" lon="2.84073">
        <ele>1714.8</ele>
        <time>2021-09-18T12:12:37.000Z</time>
      </trkpt>
      <trkpt lat="45.57925" lon="2.84067">
        <ele>1715.6</ele>
        <time>2021-09-18T12:12:45.000Z</time>
      </trkpt>
      <trkpt lat="45.57918" lon="2.8406">
        <ele>1716.5</ele>
        <time>2021-09-18T12:12:53.000Z</time>
      </trkpt>
      <trkpt lat="45.57913" lon="2.84052">
        <ele>1717.2</ele>
        <time>2021-09-18T12:13:01.000Z</time>
      </trkpt>
      <trkpt lat="45.57905" lon="2.84045">
        <ele>1718.6</ele>
        <time>2021-09-18T12:13:11.000Z</time>
      </trkpt>
      <trkpt lat="45.57898" lon="2.84038">
        <ele>1720.2</ele>
        <time>2021-09-18T12:13:22.000Z</time>
      </trkpt>
      <trkpt lat="45.57891" lon="2.8403">
        <ele>1722.3</ele>
        <time>2021-09-18T12:13:32.000Z</time>
      </trkpt>
      <trkpt lat="45.57883" lon="2.84024">
        <ele>1724.4</ele>
        <time>2021-09-18T12:13:42.000Z</time>
      </trkpt>
      <trkpt lat="45.57877" lon="2.84018">
        <ele>1726.3</ele>
        <time>2021-09-18T12:13:51.000Z</time>
      </trkpt>
      <trkpt lat="45.5787" lon="2.84012">
        <ele>1727.4</ele>
        <time>2021-09-18T12:14:01.000Z</time>
      </trkpt>
      <trkpt lat="45.57863" lon="2.84004">
        <ele>1730.3</ele>
        <time>2021-09-18T12:14:18.000Z</time>
      </trkpt>
      <trkpt lat="45.57855" lon="2.83997">
        <ele>1732.7</ele>
        <time>2021-09-18T12:15:01.000Z</time>
      </trkpt>
      <trkpt lat="45.57849" lon="2.8399">
        <ele>1735.1</ele>
        <time>2021-09-18T12:15:13.000Z</time>
      </trkpt>
      <trkpt lat="45.57841" lon="2.83983">
        <ele>1736.8</ele>
        <time>2021-09-18T12:15:24.000Z</time>
      </trkpt>
      <trkpt lat="45.57834" lon="2.83977">
        <ele>1738.6</ele>
        <time>2021-09-18T12:15:34.000Z</time>
      </trkpt>
      <trkpt lat="45.57827" lon="2.8397">
        <ele>1738.9</ele>
        <time>2021-09-18T12:15:42.000Z</time>
      </trkpt>
      <trkpt lat="45.5782" lon="2.83961">
        <ele>1740.1</ele>
        <time>2021-09-18T12:15:53.000Z</time>
      </trkpt>
      <trkpt lat="45.57813" lon="2.83958">
        <ele>1742.6</ele>
        <time>2021-09-18T12:25:13.000Z</time>
      </trkpt>
      <trkpt lat="45.57806" lon="2.83951">
        <ele>1742.1</ele>
        <time>2021-09-18T12:25:23.000Z</time>
      </trkpt>
      <trkpt lat="45.578" lon="2.83942">
        <ele>1743</ele>
        <time>2021-09-18T12:25:32.000Z</time>
      </trkpt>
      <trkpt lat="45.57794" lon="2.83933">
        <ele>1742.6</ele>
        <time>2021-09-18T12:25:40.000Z</time>
      </trkpt>
      <trkpt lat="45.57788" lon="2.83925">
        <ele>1742.1</ele>
        <time>2021-09-18T12:25:47.000Z</time>
      </trkpt>
      <trkpt lat="45.57782" lon="2.83916">
        <ele>1741.4</ele>
        <time>2021-09-18T12:25:55.000Z</time>
      </trkpt>
      <trkpt lat="45.57775" lon="2.8391">
        <ele>1741.1</ele>
        <time>2021-09-18T12:26:08.000Z</time>
      </trkpt>
      <trkpt lat="45.57767" lon="2.83906">
        <ele>1739.3</ele>
        <time>2021-09-18T12:26:17.000Z</time>
      </trkpt>
      <trkpt lat="45.57758" lon="2.83907">
        <ele>1738.8</ele>
        <time>2021-09-18T12:26:29.000Z</time>
      </trkpt>
      <trkpt lat="45.57749" lon="2.83908">
        <ele>1737.9</ele>
        <time>2021-09-18T12:26:40.000Z</time>
      </trkpt>
      <trkpt lat="45.5774" lon="2.83909">
        <ele>1735.6</ele>
        <time>2021-09-18T12:26:51.000Z</time>
      </trkpt>
      <trkpt lat="45.57733" lon="2.83914">
        <ele>1734.9</ele>
        <time>2021-09-18T12:27:02.000Z</time>
      </trkpt>
      <trkpt lat="45.57724" lon="2.83917">
        <ele>1733.5</ele>
        <time>2021-09-18T12:27:11.000Z</time>
      </trkpt>
      <trkpt lat="45.57716" lon="2.83921">
        <ele>1730.7</ele>
        <time>2021-09-18T12:27:22.000Z</time>
      </trkpt>
      <trkpt lat="45.57707" lon="2.83923">
        <ele>1731.7</ele>
        <time>2021-09-18T12:27:30.000Z</time>
      </trkpt>
      <trkpt lat="45.57699" lon="2.83926">
        <ele>1729.8</ele>
        <time>2021-09-18T12:27:39.000Z</time>
      </trkpt>
      <trkpt lat="45.57691" lon="2.8393">
        <ele>1728.2</ele>
        <time>2021-09-18T12:27:48.000Z</time>
      </trkpt>
      <trkpt lat="45.57682" lon="2.83934">
        <ele>1726.7</ele>
        <time>2021-09-18T12:27:57.000Z</time>
      </trkpt>
      <trkpt lat="45.57674" lon="2.83935">
        <ele>1725.2</ele>
        <time>2021-09-18T12:28:06.000Z</time>
      </trkpt>
      <trkpt lat="45.57666" lon="2.83939">
        <ele>1723.8</ele>
        <time>2021-09-18T12:28:15.000Z</time>
      </trkpt>
      <trkpt lat="45.57657" lon="2.83941">
        <ele>1721.6</ele>
        <time>2021-09-18T12:28:24.000Z</time>
      </trkpt>
      <trkpt lat="45.57648" lon="2.83942">
        <ele>1721</ele>
        <time>2021-09-18T12:28:33.000Z</time>
      </trkpt>
      <trkpt lat="45.5764" lon="2.83944">
        <ele>1720.9</ele>
        <time>2021-09-18T12:28:41.000Z</time>
      </trkpt>
      <trkpt lat="45.57631" lon="2.83946">
        <ele>1721.1</ele>
        <time>2021-09-18T12:28:49.000Z</time>
      </trkpt>
      <trkpt lat="45.57623" lon="2.83949">
        <ele>1720.4</ele>
        <time>2021-09-18T12:28:56.000Z</time>
      </trkpt>
      <trkpt lat="45.57615" lon="2.83952">
        <ele>1719.4</ele>
        <time>2021-09-18T12:29:03.000Z</time>
      </trkpt>
      <trkpt lat="45.57607" lon="2.83952">
        <ele>1719.4</ele>
        <time>2021-09-18T12:29:10.000Z</time>
      </trkpt>
      <trkpt lat="45.57599" lon="2.83954">
        <ele>1720</ele>
        <time>2021-09-18T12:29:18.000Z</time>
      </trkpt>
      <trkpt lat="45.57591" lon="2.83957">
        <ele>1719.9</ele>
        <time>2021-09-18T12:29:25.000Z</time>
      </trkpt>
      <trkpt lat="45.57582" lon="2.83959">
        <ele>1717.3</ele>
        <time>2021-09-18T12:29:34.000Z</time>
      </trkpt>
      <trkpt lat="45.57573" lon="2.8396">
        <ele>1718.5</ele>
        <time>2021-09-18T12:29:42.000Z</time>
      </trkpt>
      <trkpt lat="45.57565" lon="2.83961">
        <ele>1719.3</ele>
        <time>2021-09-18T12:29:49.000Z</time>
      </trkpt>
      <trkpt lat="45.57556" lon="2.83961">
        <ele>1718</ele>
        <time>2021-09-18T12:29:56.000Z</time>
      </trkpt>
      <trkpt lat="45.57548" lon="2.83964">
        <ele>1719.5</ele>
        <time>2021-09-18T12:30:04.000Z</time>
      </trkpt>
      <trkpt lat="45.5754" lon="2.83967">
        <ele>1720.2</ele>
        <time>2021-09-18T12:30:11.000Z</time>
      </trkpt>
      <trkpt lat="45.57532" lon="2.83969">
        <ele>1721.2</ele>
        <time>2021-09-18T12:30:19.000Z</time>
      </trkpt>
      <trkpt lat="45.57523" lon="2.83969">
        <ele>1721.8</ele>
        <time>2021-09-18T12:30:27.000Z</time>
      </trkpt>
      <trkpt lat="45.57515" lon="2.8397">
        <ele>1722.6</ele>
        <time>2021-09-18T12:30:36.000Z</time>
      </trkpt>
      <trkpt lat="45.57506" lon="2.83971">
        <ele>1724.8</ele>
        <time>2021-09-18T12:30:45.000Z</time>
      </trkpt>
      <trkpt lat="45.57497" lon="2.83972">
        <ele>1726</ele>
        <time>2021-09-18T12:30:56.000Z</time>
      </trkpt>
      <trkpt lat="45.57489" lon="2.83974">
        <ele>1727.9</ele>
        <time>2021-09-18T12:31:05.000Z</time>
      </trkpt>
      <trkpt lat="45.57481" lon="2.83975">
        <ele>1728.4</ele>
        <time>2021-09-18T12:31:14.000Z</time>
      </trkpt>
      <trkpt lat="45.57472" lon="2.83976">
        <ele>1729</ele>
        <time>2021-09-18T12:31:24.000Z</time>
      </trkpt>
      <trkpt lat="45.57463" lon="2.83974">
        <ele>1730.9</ele>
        <time>2021-09-18T12:31:35.000Z</time>
      </trkpt>
      <trkpt lat="45.57455" lon="2.83973">
        <ele>1731.8</ele>
        <time>2021-09-18T12:31:46.000Z</time>
      </trkpt>
      <trkpt lat="45.57446" lon="2.83972">
        <ele>1732.7</ele>
        <time>2021-09-18T12:31:58.000Z</time>
      </trkpt>
      <trkpt lat="45.57438" lon="2.83975">
        <ele>1734.7</ele>
        <time>2021-09-18T12:32:11.000Z</time>
      </trkpt>
      <trkpt lat="45.57429" lon="2.83975">
        <ele>1737.3</ele>
        <time>2021-09-18T12:32:23.000Z</time>
      </trkpt>
      <trkpt lat="45.5742" lon="2.83978">
        <ele>1739.6</ele>
        <time>2021-09-18T12:32:37.000Z</time>
      </trkpt>
      <trkpt lat="45.57411" lon="2.83979">
        <ele>1741.6</ele>
        <time>2021-09-18T12:32:50.000Z</time>
      </trkpt>
      <trkpt lat="45.57403" lon="2.8398">
        <ele>1743.4</ele>
        <time>2021-09-18T12:33:05.000Z</time>
      </trkpt>
      <trkpt lat="45.57394" lon="2.83978">
        <ele>1745.1</ele>
        <time>2021-09-18T12:33:21.000Z</time>
      </trkpt>
      <trkpt lat="45.57386" lon="2.83976">
        <ele>1749.1</ele>
        <time>2021-09-18T12:33:43.000Z</time>
      </trkpt>
      <trkpt lat="45.57377" lon="2.83979">
        <ele>1750.2</ele>
        <time>2021-09-18T12:33:57.000Z</time>
      </trkpt>
      <trkpt lat="45.57368" lon="2.83979">
        <ele>1752.5</ele>
        <time>2021-09-18T12:34:11.000Z</time>
      </trkpt>
      <trkpt lat="45.5736" lon="2.83979">
        <ele>1755.5</ele>
        <time>2021-09-18T12:34:33.000Z</time>
      </trkpt>
      <trkpt lat="45.57351" lon="2.83978">
        <ele>1757.6</ele>
        <time>2021-09-18T12:34:48.000Z</time>
      </trkpt>
      <trkpt lat="45.57342" lon="2.83979">
        <ele>1760.1</ele>
        <time>2021-09-18T12:35:06.000Z</time>
      </trkpt>
      <trkpt lat="45.57334" lon="2.83977">
        <ele>1764.1</ele>
        <time>2021-09-18T12:35:39.000Z</time>
      </trkpt>
      <trkpt lat="45.57325" lon="2.83979">
        <ele>1767.2</ele>
        <time>2021-09-18T12:35:55.000Z</time>
      </trkpt>
      <trkpt lat="45.57317" lon="2.83982">
        <ele>1770.8</ele>
        <time>2021-09-18T12:36:09.000Z</time>
      </trkpt>
      <trkpt lat="45.57308" lon="2.83984">
        <ele>1773.6</ele>
        <time>2021-09-18T12:36:23.000Z</time>
      </trkpt>
      <trkpt lat="45.573" lon="2.83989">
        <ele>1775.8</ele>
        <time>2021-09-18T12:36:40.000Z</time>
      </trkpt>
      <trkpt lat="45.57294" lon="2.83981">
        <ele>1778.5</ele>
        <time>2021-09-18T12:46:46.000Z</time>
      </trkpt>
      <trkpt lat="45.57289" lon="2.83971">
        <ele>1778.6</ele>
        <time>2021-09-18T12:47:05.000Z</time>
      </trkpt>
      <trkpt lat="45.57287" lon="2.83958">
        <ele>1777.8</ele>
        <time>2021-09-18T12:47:38.000Z</time>
      </trkpt>
      <trkpt lat="45.57282" lon="2.83948">
        <ele>1776.6</ele>
        <time>2021-09-18T12:48:55.000Z</time>
      </trkpt>
      <trkpt lat="45.57277" lon="2.83939">
        <ele>1776.8</ele>
        <time>2021-09-18T12:49:08.000Z</time>
      </trkpt>
      <trkpt lat="45.57272" lon="2.83929">
        <ele>1776.3</ele>
        <time>2021-09-18T12:49:17.000Z</time>
      </trkpt>
      <trkpt lat="45.57268" lon="2.83919">
        <ele>1775.1</ele>
        <time>2021-09-18T12:49:26.000Z</time>
      </trkpt>
      <trkpt lat="45.57263" lon="2.83909">
        <ele>1774.6</ele>
        <time>2021-09-18T12:49:35.000Z</time>
      </trkpt>
      <trkpt lat="45.5726" lon="2.83898">
        <ele>1773.1</ele>
        <time>2021-09-18T12:49:46.000Z</time>
      </trkpt>
      <trkpt lat="45.57257" lon="2.83887">
        <ele>1771.9</ele>
        <time>2021-09-18T12:49:56.000Z</time>
      </trkpt>
      <trkpt lat="45.57251" lon="2.83879">
        <ele>1771.2</ele>
        <time>2021-09-18T12:50:07.000Z</time>
      </trkpt>
      <trkpt lat="45.57247" lon="2.83868">
        <ele>1769</ele>
        <time>2021-09-18T12:50:20.000Z</time>
      </trkpt>
      <trkpt lat="45.57244" lon="2.83857">
        <ele>1767.6</ele>
        <time>2021-09-18T12:50:32.000Z</time>
      </trkpt>
      <trkpt lat="45.57243" lon="2.83844">
        <ele>1767.2</ele>
        <time>2021-09-18T12:50:42.000Z</time>
      </trkpt>
      <trkpt lat="45.57241" lon="2.83833">
        <ele>1764.5</ele>
        <time>2021-09-18T12:50:56.000Z</time>
      </trkpt>
      <trkpt lat="45.57239" lon="2.8382">
        <ele>1762.4</ele>
        <time>2021-09-18T12:51:08.000Z</time>
      </trkpt>
      <trkpt lat="45.57236" lon="2.83808">
        <ele>1760.3</ele>
        <time>2021-09-18T12:51:20.000Z</time>
      </trkpt>
      <trkpt lat="45.57234" lon="2.83797">
        <ele>1758.7</ele>
        <time>2021-09-18T12:51:36.000Z</time>
      </trkpt>
      <trkpt lat="45.57231" lon="2.83785">
        <ele>1755.5</ele>
        <time>2021-09-18T12:51:50.000Z</time>
      </trkpt>
      <trkpt lat="45.57224" lon="2.83777">
        <ele>1754.5</ele>
        <time>2021-09-18T12:52:01.000Z</time>
      </trkpt>
      <trkpt lat="45.57218" lon="2.83787">
        <ele>1751.7</ele>
        <time>2021-09-18T12:52:14.000Z</time>
      </trkpt>
      <trkpt lat="45.57214" lon="2.83798">
        <ele>1748.3</ele>
        <time>2021-09-18T12:52:27.000Z</time>
      </trkpt>
      <trkpt lat="45.5721" lon="2.83808">
        <ele>1746.1</ele>
        <time>2021-09-18T12:52:40.000Z</time>
      </trkpt>
      <trkpt lat="45.57207" lon="2.8382">
        <ele>1744.6</ele>
        <time>2021-09-18T12:52:51.000Z</time>
      </trkpt>
      <trkpt lat="45.57204" lon="2.83831">
        <ele>1744.3</ele>
        <time>2021-09-18T12:53:00.000Z</time>
      </trkpt>
      <trkpt lat="45.572" lon="2.83842">
        <ele>1743.4</ele>
        <time>2021-09-18T12:53:12.000Z</time>
      </trkpt>
      <trkpt lat="45.57198" lon="2.83853">
        <ele>1741.9</ele>
        <time>2021-09-18T12:53:22.000Z</time>
      </trkpt>
      <trkpt lat="45.57194" lon="2.83865">
        <ele>1740.9</ele>
        <time>2021-09-18T12:53:30.000Z</time>
      </trkpt>
      <trkpt lat="45.57191" lon="2.83876">
        <ele>1739.7</ele>
        <time>2021-09-18T12:53:41.000Z</time>
      </trkpt>
      <trkpt lat="45.5719" lon="2.83887">
        <ele>1738.3</ele>
        <time>2021-09-18T12:53:50.000Z</time>
      </trkpt>
      <trkpt lat="45.57183" lon="2.8388">
        <ele>1733.4</ele>
        <time>2021-09-18T12:54:42.000Z</time>
      </trkpt>
      <trkpt lat="45.5718" lon="2.83868">
        <ele>1732.1</ele>
        <time>2021-09-18T12:54:58.000Z</time>
      </trkpt>
      <trkpt lat="45.57177" lon="2.83856">
        <ele>1730.3</ele>
        <time>2021-09-18T12:55:09.000Z</time>
      </trkpt>
      <trkpt lat="45.57173" lon="2.83845">
        <ele>1727.4</ele>
        <time>2021-09-18T12:55:24.000Z</time>
      </trkpt>
      <trkpt lat="45.5717" lon="2.83833">
        <ele>1724.5</ele>
        <time>2021-09-18T12:55:39.000Z</time>
      </trkpt>
      <trkpt lat="45.57166" lon="2.83823">
        <ele>1721.7</ele>
        <time>2021-09-18T12:55:58.000Z</time>
      </trkpt>
      <trkpt lat="45.57162" lon="2.83812">
        <ele>1720.5</ele>
        <time>2021-09-18T12:56:08.000Z</time>
      </trkpt>
      <trkpt lat="45.57157" lon="2.83801">
        <ele>1716.5</ele>
        <time>2021-09-18T12:56:27.000Z</time>
      </trkpt>
      <trkpt lat="45.57155" lon="2.83789">
        <ele>1716.2</ele>
        <time>2021-09-18T12:56:40.000Z</time>
      </trkpt>
      <trkpt lat="45.57156" lon="2.83776">
        <ele>1713.9</ele>
        <time>2021-09-18T12:56:50.000Z</time>
      </trkpt>
      <trkpt lat="45.57154" lon="2.83764">
        <ele>1712.1</ele>
        <time>2021-09-18T12:57:05.000Z</time>
      </trkpt>
      <trkpt lat="45.57152" lon="2.83752">
        <ele>1710.6</ele>
        <time>2021-09-18T12:57:23.000Z</time>
      </trkpt>
      <trkpt lat="45.57152" lon="2.8374">
        <ele>1709.2</ele>
        <time>2021-09-18T12:57:34.000Z</time>
      </trkpt>
      <trkpt lat="45.57155" lon="2.83729">
        <ele>1707.8</ele>
        <time>2021-09-18T12:57:43.000Z</time>
      </trkpt>
      <trkpt lat="45.57153" lon="2.83717">
        <ele>1703.4</ele>
        <time>2021-09-18T12:58:05.000Z</time>
      </trkpt>
      <trkpt lat="45.57153" lon="2.83704">
        <ele>1701.1</ele>
        <time>2021-09-18T12:58:19.000Z</time>
      </trkpt>
      <trkpt lat="45.57152" lon="2.83692">
        <ele>1699.6</ele>
        <time>2021-09-18T12:58:34.000Z</time>
      </trkpt>
      <trkpt lat="45.57152" lon="2.83679">
        <ele>1697.1</ele>
        <time>2021-09-18T12:58:49.000Z</time>
      </trkpt>
      <trkpt lat="45.57152" lon="2.83667">
        <ele>1695.1</ele>
        <time>2021-09-18T12:59:02.000Z</time>
      </trkpt>
      <trkpt lat="45.57156" lon="2.83656">
        <ele>1694.4</ele>
        <time>2021-09-18T12:59:14.000Z</time>
      </trkpt>
      <trkpt lat="45.57157" lon="2.83645">
        <ele>1691.4</ele>
        <time>2021-09-18T12:59:40.000Z</time>
      </trkpt>
      <trkpt lat="45.5716" lon="2.83633">
        <ele>1690.4</ele>
        <time>2021-09-18T12:59:55.000Z</time>
      </trkpt>
      <trkpt lat="45.57165" lon="2.83623">
        <ele>1689.6</ele>
        <time>2021-09-18T13:00:04.000Z</time>
      </trkpt>
      <trkpt lat="45.57173" lon="2.83618">
        <ele>1687.3</ele>
        <time>2021-09-18T13:00:19.000Z</time>
      </trkpt>
      <trkpt lat="45.5718" lon="2.83611">
        <ele>1685.2</ele>
        <time>2021-09-18T13:00:31.000Z</time>
      </trkpt>
      <trkpt lat="45.57188" lon="2.83606">
        <ele>1683.6</ele>
        <time>2021-09-18T13:00:42.000Z</time>
      </trkpt>
      <trkpt lat="45.57196" lon="2.83601">
        <ele>1681.9</ele>
        <time>2021-09-18T13:00:55.000Z</time>
      </trkpt>
      <trkpt lat="45.57204" lon="2.83596">
        <ele>1681.2</ele>
        <time>2021-09-18T13:01:08.000Z</time>
      </trkpt>
      <trkpt lat="45.57212" lon="2.83594">
        <ele>1680</ele>
        <time>2021-09-18T13:01:16.000Z</time>
      </trkpt>
      <trkpt lat="45.5722" lon="2.83593">
        <ele>1678.1</ele>
        <time>2021-09-18T13:01:24.000Z</time>
      </trkpt>
      <trkpt lat="45.57213" lon="2.83587">
        <ele>1673</ele>
        <time>2021-09-18T13:01:56.000Z</time>
      </trkpt>
      <trkpt lat="45.57205" lon="2.83582">
        <ele>1672.3</ele>
        <time>2021-09-18T13:02:05.000Z</time>
      </trkpt>
      <trkpt lat="45.57197" lon="2.83576">
        <ele>1669</ele>
        <time>2021-09-18T13:02:25.000Z</time>
      </trkpt>
      <trkpt lat="45.5719" lon="2.83571">
        <ele>1666.5</ele>
        <time>2021-09-18T13:02:42.000Z</time>
      </trkpt>
      <trkpt lat="45.57182" lon="2.83564">
        <ele>1665.5</ele>
        <time>2021-09-18T13:02:50.000Z</time>
      </trkpt>
      <trkpt lat="45.57175" lon="2.83558">
        <ele>1663.8</ele>
        <time>2021-09-18T13:02:59.000Z</time>
      </trkpt>
      <trkpt lat="45.57167" lon="2.83555">
        <ele>1661.6</ele>
        <time>2021-09-18T13:03:11.000Z</time>
      </trkpt>
      <trkpt lat="45.57159" lon="2.83552">
        <ele>1659.3</ele>
        <time>2021-09-18T13:03:28.000Z</time>
      </trkpt>
      <trkpt lat="45.57152" lon="2.83544">
        <ele>1658.3</ele>
        <time>2021-09-18T13:03:38.000Z</time>
      </trkpt>
      <trkpt lat="45.57144" lon="2.83539">
        <ele>1657.1</ele>
        <time>2021-09-18T13:03:52.000Z</time>
      </trkpt>
      <trkpt lat="45.57137" lon="2.83531">
        <ele>1653.8</ele>
        <time>2021-09-18T13:04:13.000Z</time>
      </trkpt>
      <trkpt lat="45.5713" lon="2.83525">
        <ele>1652.3</ele>
        <time>2021-09-18T13:04:24.000Z</time>
      </trkpt>
      <trkpt lat="45.57123" lon="2.83518">
        <ele>1650.2</ele>
        <time>2021-09-18T13:04:38.000Z</time>
      </trkpt>
      <trkpt lat="45.57115" lon="2.83512">
        <ele>1647.2</ele>
        <time>2021-09-18T13:04:54.000Z</time>
      </trkpt>
      <trkpt lat="45.57107" lon="2.83507">
        <ele>1646.6</ele>
        <time>2021-09-18T13:05:05.000Z</time>
      </trkpt>
      <trkpt lat="45.57099" lon="2.83501">
        <ele>1644.6</ele>
        <time>2021-09-18T13:05:19.000Z</time>
      </trkpt>
      <trkpt lat="45.57092" lon="2.83496">
        <ele>1642.7</ele>
        <time>2021-09-18T13:05:31.000Z</time>
      </trkpt>
      <trkpt lat="45.57084" lon="2.83491">
        <ele>1641.1</ele>
        <time>2021-09-18T13:05:42.000Z</time>
      </trkpt>
      <trkpt lat="45.57076" lon="2.83485">
        <ele>1637.2</ele>
        <time>2021-09-18T13:06:07.000Z</time>
      </trkpt>
      <trkpt lat="45.57068" lon="2.83481">
        <ele>1634.7</ele>
        <time>2021-09-18T13:06:29.000Z</time>
      </trkpt>
      <trkpt lat="45.5706" lon="2.83476">
        <ele>1632.4</ele>
        <time>2021-09-18T13:06:43.000Z</time>
      </trkpt>
      <trkpt lat="45.57053" lon="2.83468">
        <ele>1631.3</ele>
        <time>2021-09-18T13:06:53.000Z</time>
      </trkpt>
      <trkpt lat="45.57048" lon="2.83458">
        <ele>1627.6</ele>
        <time>2021-09-18T13:07:09.000Z</time>
      </trkpt>
      <trkpt lat="45.57044" lon="2.83447">
        <ele>1624.9</ele>
        <time>2021-09-18T13:07:26.000Z</time>
      </trkpt>
      <trkpt lat="45.57037" lon="2.83439">
        <ele>1622.3</ele>
        <time>2021-09-18T13:07:37.000Z</time>
      </trkpt>
      <trkpt lat="45.5703" lon="2.83432">
        <ele>1618.5</ele>
        <time>2021-09-18T13:08:12.000Z</time>
      </trkpt>
      <trkpt lat="45.57026" lon="2.83422">
        <ele>1616.3</ele>
        <time>2021-09-18T13:08:35.000Z</time>
      </trkpt>
      <trkpt lat="45.57018" lon="2.83418">
        <ele>1614.3</ele>
        <time>2021-09-18T13:08:48.000Z</time>
      </trkpt>
      <trkpt lat="45.57016" lon="2.83406">
        <ele>1612.3</ele>
        <time>2021-09-18T13:09:03.000Z</time>
      </trkpt>
      <trkpt lat="45.57007" lon="2.83402">
        <ele>1609.8</ele>
        <time>2021-09-18T13:09:20.000Z</time>
      </trkpt>
      <trkpt lat="45.57001" lon="2.83395">
        <ele>1608.5</ele>
        <time>2021-09-18T13:09:36.000Z</time>
      </trkpt>
      <trkpt lat="45.56996" lon="2.83384">
        <ele>1604</ele>
        <time>2021-09-18T13:10:20.000Z</time>
      </trkpt>
      <trkpt lat="45.56988" lon="2.83379">
        <ele>1600.6</ele>
        <time>2021-09-18T13:10:34.000Z</time>
      </trkpt>
      <trkpt lat="45.56985" lon="2.83367">
        <ele>1597.9</ele>
        <time>2021-09-18T13:10:55.000Z</time>
      </trkpt>
      <trkpt lat="45.56981" lon="2.83357">
        <ele>1595.6</ele>
        <time>2021-09-18T13:11:17.000Z</time>
      </trkpt>
      <trkpt lat="45.56975" lon="2.83348">
        <ele>1593.8</ele>
        <time>2021-09-18T13:11:29.000Z</time>
      </trkpt>
      <trkpt lat="45.56971" lon="2.83337">
        <ele>1592.3</ele>
        <time>2021-09-18T13:11:38.000Z</time>
      </trkpt>
      <trkpt lat="45.56967" lon="2.83326">
        <ele>1591.7</ele>
        <time>2021-09-18T13:11:49.000Z</time>
      </trkpt>
      <trkpt lat="45.56965" lon="2.83314">
        <ele>1590.2</ele>
        <time>2021-09-18T13:12:00.000Z</time>
      </trkpt>
      <trkpt lat="45.56961" lon="2.83303">
        <ele>1588.6</ele>
        <time>2021-09-18T13:12:11.000Z</time>
      </trkpt>
      <trkpt lat="45.5696" lon="2.83291">
        <ele>1586.9</ele>
        <time>2021-09-18T13:12:20.000Z</time>
      </trkpt>
      <trkpt lat="45.56957" lon="2.8328">
        <ele>1585.4</ele>
        <time>2021-09-18T13:12:28.000Z</time>
      </trkpt>
      <trkpt lat="45.56954" lon="2.83268">
        <ele>1584.1</ele>
        <time>2021-09-18T13:12:38.000Z</time>
      </trkpt>
      <trkpt lat="45.56952" lon="2.83256">
        <ele>1583.2</ele>
        <time>2021-09-18T13:12:47.000Z</time>
      </trkpt>
      <trkpt lat="45.56946" lon="2.83247">
        <ele>1579.9</ele>
        <time>2021-09-18T13:20:05.000Z</time>
      </trkpt>
      <trkpt lat="45.56937" lon="2.8325">
        <ele>1579</ele>
        <time>2021-09-18T13:21:39.000Z</time>
      </trkpt>
      <trkpt lat="45.56929" lon="2.83251">
        <ele>1578.3</ele>
        <time>2021-09-18T13:21:50.000Z</time>
      </trkpt>
      <trkpt lat="45.56921" lon="2.83254">
        <ele>1576.3</ele>
        <time>2021-09-18T13:22:02.000Z</time>
      </trkpt>
      <trkpt lat="45.56913" lon="2.8326">
        <ele>1576.5</ele>
        <time>2021-09-18T13:22:13.000Z</time>
      </trkpt>
      <trkpt lat="45.56905" lon="2.83265">
        <ele>1575</ele>
        <time>2021-09-18T13:22:23.000Z</time>
      </trkpt>
      <trkpt lat="45.56897" lon="2.83267">
        <ele>1572.6</ele>
        <time>2021-09-18T13:22:35.000Z</time>
      </trkpt>
      <trkpt lat="45.56889" lon="2.83269">
        <ele>1570.4</ele>
        <time>2021-09-18T13:22:46.000Z</time>
      </trkpt>
      <trkpt lat="45.56881" lon="2.83273">
        <ele>1569.2</ele>
        <time>2021-09-18T13:22:54.000Z</time>
      </trkpt>
      <trkpt lat="45.56875" lon="2.83282">
        <ele>1567</ele>
        <time>2021-09-18T13:23:03.000Z</time>
      </trkpt>
      <trkpt lat="45.56868" lon="2.83291">
        <ele>1565.4</ele>
        <time>2021-09-18T13:23:15.000Z</time>
      </trkpt>
      <trkpt lat="45.56862" lon="2.83298">
        <ele>1563</ele>
        <time>2021-09-18T13:23:23.000Z</time>
      </trkpt>
      <trkpt lat="45.56855" lon="2.83306">
        <ele>1562</ele>
        <time>2021-09-18T13:23:32.000Z</time>
      </trkpt>
      <trkpt lat="45.56848" lon="2.83313">
        <ele>1560.1</ele>
        <time>2021-09-18T13:23:41.000Z</time>
      </trkpt>
      <trkpt lat="45.56841" lon="2.8332">
        <ele>1558.5</ele>
        <time>2021-09-18T13:23:51.000Z</time>
      </trkpt>
      <trkpt lat="45.56834" lon="2.83327">
        <ele>1557.8</ele>
        <time>2021-09-18T13:24:00.000Z</time>
      </trkpt>
      <trkpt lat="45.56827" lon="2.83332">
        <ele>1556.8</ele>
        <time>2021-09-18T13:24:08.000Z</time>
      </trkpt>
      <trkpt lat="45.56819" lon="2.83337">
        <ele>1554.4</ele>
        <time>2021-09-18T13:24:16.000Z</time>
      </trkpt>
      <trkpt lat="45.56811" lon="2.83343">
        <ele>1552.8</ele>
        <time>2021-09-18T13:24:24.000Z</time>
      </trkpt>
      <trkpt lat="45.56803" lon="2.83346">
        <ele>1550.7</ele>
        <time>2021-09-18T13:24:32.000Z</time>
      </trkpt>
      <trkpt lat="45.56794" lon="2.83348">
        <ele>1549.9</ele>
        <time>2021-09-18T13:24:40.000Z</time>
      </trkpt>
      <trkpt lat="45.56786" lon="2.83352">
        <ele>1548.5</ele>
        <time>2021-09-18T13:24:49.000Z</time>
      </trkpt>
      <trkpt lat="45.56778" lon="2.83355">
        <ele>1546.3</ele>
        <time>2021-09-18T13:24:59.000Z</time>
      </trkpt>
      <trkpt lat="45.56769" lon="2.83355">
        <ele>1541.5</ele>
        <time>2021-09-18T13:25:50.000Z</time>
      </trkpt>
      <trkpt lat="45.56762" lon="2.83347">
        <ele>1539.8</ele>
        <time>2021-09-18T13:26:35.000Z</time>
      </trkpt>
      <trkpt lat="45.56755" lon="2.83341">
        <ele>1538.7</ele>
        <time>2021-09-18T13:26:50.000Z</time>
      </trkpt>
      <trkpt lat="45.56748" lon="2.83332">
        <ele>1537.5</ele>
        <time>2021-09-18T13:27:04.000Z</time>
      </trkpt>
      <trkpt lat="45.56741" lon="2.83325">
        <ele>1535.7</ele>
        <time>2021-09-18T13:27:13.000Z</time>
      </trkpt>
      <trkpt lat="45.56734" lon="2.83317">
        <ele>1533.6</ele>
        <time>2021-09-18T13:27:25.000Z</time>
      </trkpt>
      <trkpt lat="45.56727" lon="2.83311">
        <ele>1532.5</ele>
        <time>2021-09-18T13:27:35.000Z</time>
      </trkpt>
      <trkpt lat="45.56721" lon="2.83304">
        <ele>1530.8</ele>
        <time>2021-09-18T13:27:45.000Z</time>
      </trkpt>
      <trkpt lat="45.56714" lon="2.83296">
        <ele>1529.3</ele>
        <time>2021-09-18T13:27:57.000Z</time>
      </trkpt>
      <trkpt lat="45.56707" lon="2.83288">
        <ele>1527.7</ele>
        <time>2021-09-18T13:28:08.000Z</time>
      </trkpt>
      <trkpt lat="45.56699" lon="2.83283">
        <ele>1526.3</ele>
        <time>2021-09-18T13:28:20.000Z</time>
      </trkpt>
      <trkpt lat="45.56691" lon="2.83278">
        <ele>1525.7</ele>
        <time>2021-09-18T13:28:28.000Z</time>
      </trkpt>
      <trkpt lat="45.56684" lon="2.83273">
        <ele>1524.5</ele>
        <time>2021-09-18T13:28:35.000Z</time>
      </trkpt>
      <trkpt lat="45.56676" lon="2.83268">
        <ele>1523.4</ele>
        <time>2021-09-18T13:28:42.000Z</time>
      </trkpt>
      <trkpt lat="45.56668" lon="2.83264">
        <ele>1521.9</ele>
        <time>2021-09-18T13:28:50.000Z</time>
      </trkpt>
      <trkpt lat="45.56661" lon="2.8326">
        <ele>1519.8</ele>
        <time>2021-09-18T13:29:01.000Z</time>
      </trkpt>
      <trkpt lat="45.56653" lon="2.83255">
        <ele>1518</ele>
        <time>2021-09-18T13:29:12.000Z</time>
      </trkpt>
      <trkpt lat="45.56646" lon="2.8325">
        <ele>1517</ele>
        <time>2021-09-18T13:29:23.000Z</time>
      </trkpt>
      <trkpt lat="45.56638" lon="2.83246">
        <ele>1514.7</ele>
        <time>2021-09-18T13:29:38.000Z</time>
      </trkpt>
      <trkpt lat="45.5663" lon="2.8324">
        <ele>1513.7</ele>
        <time>2021-09-18T13:29:48.000Z</time>
      </trkpt>
      <trkpt lat="45.56623" lon="2.83235">
        <ele>1513.7</ele>
        <time>2021-09-18T13:29:58.000Z</time>
      </trkpt>
      <trkpt lat="45.56615" lon="2.83231">
        <ele>1512.3</ele>
        <time>2021-09-18T13:30:07.000Z</time>
      </trkpt>
      <trkpt lat="45.56606" lon="2.83227">
        <ele>1511.2</ele>
        <time>2021-09-18T13:30:15.000Z</time>
      </trkpt>
      <trkpt lat="45.56599" lon="2.83223">
        <ele>1509.5</ele>
        <time>2021-09-18T13:30:22.000Z</time>
      </trkpt>
      <trkpt lat="45.56591" lon="2.83216">
        <ele>1508.6</ele>
        <time>2021-09-18T13:30:30.000Z</time>
      </trkpt>
      <trkpt lat="45.56583" lon="2.83213">
        <ele>1507.5</ele>
        <time>2021-09-18T13:30:39.000Z</time>
      </trkpt>
      <trkpt lat="45.56575" lon="2.83209">
        <ele>1505.1</ele>
        <time>2021-09-18T13:30:53.000Z</time>
      </trkpt>
      <trkpt lat="45.56567" lon="2.83204">
        <ele>1505.2</ele>
        <time>2021-09-18T13:31:00.000Z</time>
      </trkpt>
      <trkpt lat="45.56559" lon="2.83199">
        <ele>1503.5</ele>
        <time>2021-09-18T13:31:07.000Z</time>
      </trkpt>
      <trkpt lat="45.56551" lon="2.83194">
        <ele>1503.2</ele>
        <time>2021-09-18T13:31:15.000Z</time>
      </trkpt>
      <trkpt lat="45.56543" lon="2.83189">
        <ele>1502.5</ele>
        <time>2021-09-18T13:31:28.000Z</time>
      </trkpt>
      <trkpt lat="45.56535" lon="2.83185">
        <ele>1500.7</ele>
        <time>2021-09-18T13:31:38.000Z</time>
      </trkpt>
      <trkpt lat="45.56527" lon="2.83181">
        <ele>1499.9</ele>
        <time>2021-09-18T13:31:50.000Z</time>
      </trkpt>
      <trkpt lat="45.56519" lon="2.83175">
        <ele>1498.7</ele>
        <time>2021-09-18T13:31:59.000Z</time>
      </trkpt>
      <trkpt lat="45.56512" lon="2.83171">
        <ele>1497.9</ele>
        <time>2021-09-18T13:32:05.000Z</time>
      </trkpt>
      <trkpt lat="45.56505" lon="2.83165">
        <ele>1497.7</ele>
        <time>2021-09-18T13:32:12.000Z</time>
      </trkpt>
      <trkpt lat="45.56497" lon="2.83161">
        <ele>1497.6</ele>
        <time>2021-09-18T13:32:18.000Z</time>
      </trkpt>
      <trkpt lat="45.56489" lon="2.83157">
        <ele>1496.4</ele>
        <time>2021-09-18T13:32:26.000Z</time>
      </trkpt>
      <trkpt lat="45.56482" lon="2.83151">
        <ele>1495.6</ele>
        <time>2021-09-18T13:32:36.000Z</time>
      </trkpt>
      <trkpt lat="45.56473" lon="2.83147">
        <ele>1494.6</ele>
        <time>2021-09-18T13:32:46.000Z</time>
      </trkpt>
      <trkpt lat="45.56465" lon="2.83143">
        <ele>1494.2</ele>
        <time>2021-09-18T13:32:52.000Z</time>
      </trkpt>
      <trkpt lat="45.56458" lon="2.83139">
        <ele>1493.5</ele>
        <time>2021-09-18T13:32:59.000Z</time>
      </trkpt>
      <trkpt lat="45.5645" lon="2.83134">
        <ele>1493.2</ele>
        <time>2021-09-18T13:33:06.000Z</time>
      </trkpt>
      <trkpt lat="45.56443" lon="2.8313">
        <ele>1492.8</ele>
        <time>2021-09-18T13:33:12.000Z</time>
      </trkpt>
      <trkpt lat="45.56435" lon="2.83125">
        <ele>1491.8</ele>
        <time>2021-09-18T13:33:19.000Z</time>
      </trkpt>
      <trkpt lat="45.56427" lon="2.83121">
        <ele>1491.6</ele>
        <time>2021-09-18T13:33:26.000Z</time>
      </trkpt>
      <trkpt lat="45.56419" lon="2.83116">
        <ele>1491</ele>
        <time>2021-09-18T13:33:34.000Z</time>
      </trkpt>
      <trkpt lat="45.56412" lon="2.83108">
        <ele>1490.2</ele>
        <time>2021-09-18T13:33:42.000Z</time>
      </trkpt>
      <trkpt lat="45.56406" lon="2.83099">
        <ele>1489.5</ele>
        <time>2021-09-18T13:33:50.000Z</time>
      </trkpt>
      <trkpt lat="45.56402" lon="2.83088">
        <ele>1488.8</ele>
        <time>2021-09-18T13:33:58.000Z</time>
      </trkpt>
      <trkpt lat="45.56394" lon="2.83083">
        <ele>1488.4</ele>
        <time>2021-09-18T13:34:07.000Z</time>
      </trkpt>
      <trkpt lat="45.56386" lon="2.83078">
        <ele>1488.4</ele>
        <time>2021-09-18T13:39:43.000Z</time>
      </trkpt>
      <trkpt lat="45.56377" lon="2.83076">
        <ele>1488.7</ele>
        <time>2021-09-18T13:39:57.000Z</time>
      </trkpt>
      <trkpt lat="45.5637" lon="2.83082">
        <ele>1488.5</ele>
        <time>2021-09-18T13:40:08.000Z</time>
      </trkpt>
      <trkpt lat="45.56363" lon="2.8309">
        <ele>1488</ele>
        <time>2021-09-18T13:40:16.000Z</time>
      </trkpt>
      <trkpt lat="45.56356" lon="2.83097">
        <ele>1488.6</ele>
        <time>2021-09-18T13:40:25.000Z</time>
      </trkpt>
      <trkpt lat="45.56348" lon="2.831">
        <ele>1488.7</ele>
        <time>2021-09-18T13:40:33.000Z</time>
      </trkpt>
      <trkpt lat="45.5634" lon="2.83102">
        <ele>1489.3</ele>
        <time>2021-09-18T13:40:41.000Z</time>
      </trkpt>
      <trkpt lat="45.56331" lon="2.83104">
        <ele>1489.4</ele>
        <time>2021-09-18T13:40:50.000Z</time>
      </trkpt>
      <trkpt lat="45.56323" lon="2.83105">
        <ele>1489.2</ele>
        <time>2021-09-18T13:40:58.000Z</time>
      </trkpt>
      <trkpt lat="45.56314" lon="2.83107">
        <ele>1490.1</ele>
        <time>2021-09-18T13:41:06.000Z</time>
      </trkpt>
      <trkpt lat="45.56305" lon="2.83109">
        <ele>1490.3</ele>
        <time>2021-09-18T13:41:15.000Z</time>
      </trkpt>
      <trkpt lat="45.56297" lon="2.83111">
        <ele>1491.3</ele>
        <time>2021-09-18T13:41:23.000Z</time>
      </trkpt>
      <trkpt lat="45.56289" lon="2.83113">
        <ele>1493.1</ele>
        <time>2021-09-18T13:41:32.000Z</time>
      </trkpt>
      <trkpt lat="45.5628" lon="2.83117">
        <ele>1493.3</ele>
        <time>2021-09-18T13:41:41.000Z</time>
      </trkpt>
      <trkpt lat="45.56272" lon="2.83118">
        <ele>1493.6</ele>
        <time>2021-09-18T13:41:50.000Z</time>
      </trkpt>
      <trkpt lat="45.56264" lon="2.83121">
        <ele>1494.2</ele>
        <time>2021-09-18T13:41:59.000Z</time>
      </trkpt>
      <trkpt lat="45.56255" lon="2.83123">
        <ele>1495</ele>
        <time>2021-09-18T13:42:07.000Z</time>
      </trkpt>
      <trkpt lat="45.56247" lon="2.83124">
        <ele>1495.8</ele>
        <time>2021-09-18T13:42:17.000Z</time>
      </trkpt>
      <trkpt lat="45.56239" lon="2.83125">
        <ele>1495.2</ele>
        <time>2021-09-18T13:42:26.000Z</time>
      </trkpt>
      <trkpt lat="45.5623" lon="2.83127">
        <ele>1496.5</ele>
        <time>2021-09-18T13:42:35.000Z</time>
      </trkpt>
      <trkpt lat="45.56222" lon="2.8313">
        <ele>1496.9</ele>
        <time>2021-09-18T13:42:44.000Z</time>
      </trkpt>
      <trkpt lat="45.56214" lon="2.83132">
        <ele>1496.8</ele>
        <time>2021-09-18T13:42:53.000Z</time>
      </trkpt>
      <trkpt lat="45.56206" lon="2.83135">
        <ele>1498.9</ele>
        <time>2021-09-18T13:43:02.000Z</time>
      </trkpt>
      <trkpt lat="45.56198" lon="2.83138">
        <ele>1499.2</ele>
        <time>2021-09-18T13:43:11.000Z</time>
      </trkpt>
      <trkpt lat="45.5619" lon="2.8314">
        <ele>1499.8</ele>
        <time>2021-09-18T13:43:19.000Z</time>
      </trkpt>
      <trkpt lat="45.56181" lon="2.83142">
        <ele>1500.7</ele>
        <time>2021-09-18T13:43:27.000Z</time>
      </trkpt>
      <trkpt lat="45.56173" lon="2.83144">
        <ele>1501.4</ele>
        <time>2021-09-18T13:43:36.000Z</time>
      </trkpt>
      <trkpt lat="45.56164" lon="2.83146">
        <ele>1501.4</ele>
        <time>2021-09-18T13:43:45.000Z</time>
      </trkpt>
      <trkpt lat="45.56156" lon="2.83147">
        <ele>1501.5</ele>
        <time>2021-09-18T13:43:54.000Z</time>
      </trkpt>
      <trkpt lat="45.56147" lon="2.83148">
        <ele>1502</ele>
        <time>2021-09-18T13:44:02.000Z</time>
      </trkpt>
      <trkpt lat="45.56139" lon="2.83149">
        <ele>1503.1</ele>
        <time>2021-09-18T13:44:11.000Z</time>
      </trkpt>
      <trkpt lat="45.5613" lon="2.83149">
        <ele>1504</ele>
        <time>2021-09-18T13:44:20.000Z</time>
      </trkpt>
      <trkpt lat="45.56121" lon="2.8315">
        <ele>1504.9</ele>
        <time>2021-09-18T13:44:29.000Z</time>
      </trkpt>
      <trkpt lat="45.56113" lon="2.83152">
        <ele>1505.3</ele>
        <time>2021-09-18T13:44:38.000Z</time>
      </trkpt>
      <trkpt lat="45.56105" lon="2.83156">
        <ele>1505.7</ele>
        <time>2021-09-18T13:44:47.000Z</time>
      </trkpt>
      <trkpt lat="45.56097" lon="2.83161">
        <ele>1506.7</ele>
        <time>2021-09-18T13:44:56.000Z</time>
      </trkpt>
      <trkpt lat="45.5609" lon="2.83167">
        <ele>1506.9</ele>
        <time>2021-09-18T13:45:05.000Z</time>
      </trkpt>
      <trkpt lat="45.56082" lon="2.83172">
        <ele>1507.6</ele>
        <time>2021-09-18T13:45:13.000Z</time>
      </trkpt>
      <trkpt lat="45.56074" lon="2.83178">
        <ele>1507.7</ele>
        <time>2021-09-18T13:45:22.000Z</time>
      </trkpt>
      <trkpt lat="45.56066" lon="2.83179">
        <ele>1508.6</ele>
        <time>2021-09-18T13:46:15.000Z</time>
      </trkpt>
      <trkpt lat="45.56057" lon="2.83176">
        <ele>1509</ele>
        <time>2021-09-18T13:46:55.000Z</time>
      </trkpt>
      <trkpt lat="45.56048" lon="2.83177">
        <ele>1509.9</ele>
        <time>2021-09-18T13:49:26.000Z</time>
      </trkpt>
      <trkpt lat="45.5604" lon="2.83174">
        <ele>1510.2</ele>
        <time>2021-09-18T13:49:44.000Z</time>
      </trkpt>
      <trkpt lat="45.56037" lon="2.83163">
        <ele>1510.2</ele>
        <time>2021-09-18T13:49:54.000Z</time>
      </trkpt>
      <trkpt lat="45.5603" lon="2.83159">
        <ele>1510.6</ele>
        <time>2021-09-18T13:50:02.000Z</time>
      </trkpt>
      <trkpt lat="45.56022" lon="2.83156">
        <ele>1511.3</ele>
        <time>2021-09-18T13:50:10.000Z</time>
      </trkpt>
      <trkpt lat="45.56017" lon="2.83145">
        <ele>1512.4</ele>
        <time>2021-09-18T13:50:29.000Z</time>
      </trkpt>
      <trkpt lat="45.56013" lon="2.83134">
        <ele>1512.3</ele>
        <time>2021-09-18T13:51:04.000Z</time>
      </trkpt>
      <trkpt lat="45.56006" lon="2.83128">
        <ele>1512.6</ele>
        <time>2021-09-18T13:51:14.000Z</time>
      </trkpt>
      <trkpt lat="45.55999" lon="2.83119">
        <ele>1512.6</ele>
        <time>2021-09-18T13:51:23.000Z</time>
      </trkpt>
      <trkpt lat="45.55993" lon="2.8311">
        <ele>1513</ele>
        <time>2021-09-18T13:51:32.000Z</time>
      </trkpt>
      <trkpt lat="45.55988" lon="2.831">
        <ele>1513.3</ele>
        <time>2021-09-18T13:51:40.000Z</time>
      </trkpt>
      <trkpt lat="45.55983" lon="2.83091">
        <ele>1513.8</ele>
        <time>2021-09-18T13:51:47.000Z</time>
      </trkpt>
      <trkpt lat="45.55979" lon="2.8308">
        <ele>1512.9</ele>
        <time>2021-09-18T13:51:56.000Z</time>
      </trkpt>
      <trkpt lat="45.55972" lon="2.83072">
        <ele>1513.3</ele>
        <time>2021-09-18T13:52:06.000Z</time>
      </trkpt>
      <trkpt lat="45.55966" lon="2.83064">
        <ele>1513.4</ele>
        <time>2021-09-18T13:52:14.000Z</time>
      </trkpt>
      <trkpt lat="45.55959" lon="2.83056">
        <ele>1513.8</ele>
        <time>2021-09-18T13:52:34.000Z</time>
      </trkpt>
      <trkpt lat="45.55953" lon="2.83046">
        <ele>1512.2</ele>
        <time>2021-09-18T13:52:45.000Z</time>
      </trkpt>
      <trkpt lat="45.55949" lon="2.83037">
        <ele>1512.7</ele>
        <time>2021-09-18T13:52:54.000Z</time>
      </trkpt>
      <trkpt lat="45.55944" lon="2.83027">
        <ele>1513</ele>
        <time>2021-09-18T13:53:12.000Z</time>
      </trkpt>
      <trkpt lat="45.55938" lon="2.83019">
        <ele>1513</ele>
        <time>2021-09-18T13:53:19.000Z</time>
      </trkpt>
      <trkpt lat="45.55933" lon="2.83009">
        <ele>1513.4</ele>
        <time>2021-09-18T13:53:28.000Z</time>
      </trkpt>
      <trkpt lat="45.55927" lon="2.83002">
        <ele>1514.7</ele>
        <time>2021-09-18T13:53:36.000Z</time>
      </trkpt>
      <trkpt lat="45.5592" lon="2.82994">
        <ele>1515.4</ele>
        <time>2021-09-18T13:53:50.000Z</time>
      </trkpt>
      <trkpt lat="45.55916" lon="2.82984">
        <ele>1515.2</ele>
        <time>2021-09-18T13:53:59.000Z</time>
      </trkpt>
      <trkpt lat="45.55911" lon="2.82974">
        <ele>1515.5</ele>
        <time>2021-09-18T13:54:08.000Z</time>
      </trkpt>
      <trkpt lat="45.55904" lon="2.82967">
        <ele>1516</ele>
        <time>2021-09-18T13:54:17.000Z</time>
      </trkpt>
      <trkpt lat="45.55898" lon="2.82958">
        <ele>1516.4</ele>
        <time>2021-09-18T13:54:27.000Z</time>
      </trkpt>
      <trkpt lat="45.55892" lon="2.82948">
        <ele>1517.2</ele>
        <time>2021-09-18T13:54:36.000Z</time>
      </trkpt>
      <trkpt lat="45.55884" lon="2.82943">
        <ele>1516.1</ele>
        <time>2021-09-18T13:55:47.000Z</time>
      </trkpt>
      <trkpt lat="45.55876" lon="2.82945">
        <ele>1515.4</ele>
        <time>2021-09-18T13:56:03.000Z</time>
      </trkpt>
      <trkpt lat="45.55867" lon="2.82946">
        <ele>1517.4</ele>
        <time>2021-09-18T13:56:12.000Z</time>
      </trkpt>
      <trkpt lat="45.55859" lon="2.82947">
        <ele>1517.7</ele>
        <time>2021-09-18T13:56:20.000Z</time>
      </trkpt>
      <trkpt lat="45.55851" lon="2.82946">
        <ele>1518.9</ele>
        <time>2021-09-18T13:56:28.000Z</time>
      </trkpt>
      <trkpt lat="45.55842" lon="2.82947">
        <ele>1519.4</ele>
        <time>2021-09-18T13:56:38.000Z</time>
      </trkpt>
      <trkpt lat="45.55834" lon="2.82948">
        <ele>1520.5</ele>
        <time>2021-09-18T13:56:47.000Z</time>
      </trkpt>
      <trkpt lat="45.55825" lon="2.82949">
        <ele>1521.8</ele>
        <time>2021-09-18T13:56:57.000Z</time>
      </trkpt>
      <trkpt lat="45.55816" lon="2.82951">
        <ele>1522.9</ele>
        <time>2021-09-18T13:57:09.000Z</time>
      </trkpt>
      <trkpt lat="45.55808" lon="2.82951">
        <ele>1524.3</ele>
        <time>2021-09-18T13:57:17.000Z</time>
      </trkpt>
      <trkpt lat="45.558" lon="2.82952">
        <ele>1524.4</ele>
        <time>2021-09-18T13:57:26.000Z</time>
      </trkpt>
      <trkpt lat="45.55793" lon="2.82946">
        <ele>1525.2</ele>
        <time>2021-09-18T13:57:40.000Z</time>
      </trkpt>
      <trkpt lat="45.55792" lon="2.82934">
        <ele>1525.6</ele>
        <time>2021-09-18T13:57:48.000Z</time>
      </trkpt>
      <trkpt lat="45.55793" lon="2.82923">
        <ele>1525.1</ele>
        <time>2021-09-18T13:57:55.000Z</time>
      </trkpt>
      <trkpt lat="45.55791" lon="2.8291">
        <ele>1524.7</ele>
        <time>2021-09-18T13:58:03.000Z</time>
      </trkpt>
      <trkpt lat="45.5579" lon="2.82898">
        <ele>1527</ele>
        <time>2021-09-18T13:58:11.000Z</time>
      </trkpt>
      <trkpt lat="45.55789" lon="2.82886">
        <ele>1527</ele>
        <time>2021-09-18T13:58:19.000Z</time>
      </trkpt>
      <trkpt lat="45.55788" lon="2.82874">
        <ele>1527.5</ele>
        <time>2021-09-18T13:58:27.000Z</time>
      </trkpt>
      <trkpt lat="45.55787" lon="2.82863">
        <ele>1528.1</ele>
        <time>2021-09-18T13:58:34.000Z</time>
      </trkpt>
      <trkpt lat="45.55785" lon="2.82851">
        <ele>1528.1</ele>
        <time>2021-09-18T13:58:42.000Z</time>
      </trkpt>
      <trkpt lat="45.55784" lon="2.82839">
        <ele>1528.9</ele>
        <time>2021-09-18T13:58:49.000Z</time>
      </trkpt>
      <trkpt lat="45.55783" lon="2.82826">
        <ele>1528.8</ele>
        <time>2021-09-18T13:58:58.000Z</time>
      </trkpt>
      <trkpt lat="45.55779" lon="2.82815">
        <ele>1529.8</ele>
        <time>2021-09-18T14:02:05.000Z</time>
      </trkpt>
      <trkpt lat="45.55776" lon="2.82804">
        <ele>1529.2</ele>
        <time>2021-09-18T14:02:19.000Z</time>
      </trkpt>
      <trkpt lat="45.55769" lon="2.82796">
        <ele>1530.2</ele>
        <time>2021-09-18T14:02:30.000Z</time>
      </trkpt>
      <trkpt lat="45.55764" lon="2.82787">
        <ele>1530.2</ele>
        <time>2021-09-18T14:02:39.000Z</time>
      </trkpt>
      <trkpt lat="45.55758" lon="2.82778">
        <ele>1531.3</ele>
        <time>2021-09-18T14:02:47.000Z</time>
      </trkpt>
      <trkpt lat="45.55752" lon="2.82768">
        <ele>1531</ele>
        <time>2021-09-18T14:02:56.000Z</time>
      </trkpt>
      <trkpt lat="45.55747" lon="2.8276">
        <ele>1531.2</ele>
        <time>2021-09-18T14:03:03.000Z</time>
      </trkpt>
      <trkpt lat="45.55742" lon="2.82751">
        <ele>1531.8</ele>
        <time>2021-09-18T14:03:14.000Z</time>
      </trkpt>
      <trkpt lat="45.55736" lon="2.82742">
        <ele>1532.7</ele>
        <time>2021-09-18T14:03:22.000Z</time>
      </trkpt>
      <trkpt lat="45.5573" lon="2.82733">
        <ele>1533.3</ele>
        <time>2021-09-18T14:03:30.000Z</time>
      </trkpt>
      <trkpt lat="45.55724" lon="2.82725">
        <ele>1534.6</ele>
        <time>2021-09-18T14:03:38.000Z</time>
      </trkpt>
      <trkpt lat="45.55719" lon="2.82716">
        <ele>1535</ele>
        <time>2021-09-18T14:03:46.000Z</time>
      </trkpt>
      <trkpt lat="45.55713" lon="2.82706">
        <ele>1535.3</ele>
        <time>2021-09-18T14:03:54.000Z</time>
      </trkpt>
      <trkpt lat="45.55708" lon="2.82696">
        <ele>1536.5</ele>
        <time>2021-09-18T14:04:02.000Z</time>
      </trkpt>
      <trkpt lat="45.55702" lon="2.82687">
        <ele>1537.7</ele>
        <time>2021-09-18T14:04:10.000Z</time>
      </trkpt>
      <trkpt lat="45.55697" lon="2.82678">
        <ele>1538.2</ele>
        <time>2021-09-18T14:04:17.000Z</time>
      </trkpt>
      <trkpt lat="45.55692" lon="2.8267">
        <ele>1539</ele>
        <time>2021-09-18T14:04:24.000Z</time>
      </trkpt>
      <trkpt lat="45.55686" lon="2.8266">
        <ele>1540.5</ele>
        <time>2021-09-18T14:04:33.000Z</time>
      </trkpt>
      <trkpt lat="45.55681" lon="2.82652">
        <ele>1541.4</ele>
        <time>2021-09-18T14:04:41.000Z</time>
      </trkpt>
      <trkpt lat="45.55674" lon="2.82643">
        <ele>1542.1</ele>
        <time>2021-09-18T14:04:49.000Z</time>
      </trkpt>
      <trkpt lat="45.55669" lon="2.82635">
        <ele>1543.1</ele>
        <time>2021-09-18T14:04:57.000Z</time>
      </trkpt>
      <trkpt lat="45.55663" lon="2.82625">
        <ele>1543.6</ele>
        <time>2021-09-18T14:05:05.000Z</time>
      </trkpt>
      <trkpt lat="45.55657" lon="2.82617">
        <ele>1543.9</ele>
        <time>2021-09-18T14:05:14.000Z</time>
      </trkpt>
      <trkpt lat="45.55652" lon="2.82608">
        <ele>1545.2</ele>
        <time>2021-09-18T14:05:23.000Z</time>
      </trkpt>
      <trkpt lat="45.55646" lon="2.826">
        <ele>1546.4</ele>
        <time>2021-09-18T14:05:32.000Z</time>
      </trkpt>
      <trkpt lat="45.55641" lon="2.8259">
        <ele>1548.2</ele>
        <time>2021-09-18T14:05:40.000Z</time>
      </trkpt>
      <trkpt lat="45.55635" lon="2.8258">
        <ele>1549.8</ele>
        <time>2021-09-18T14:05:49.000Z</time>
      </trkpt>
      <trkpt lat="45.55629" lon="2.82573">
        <ele>1550.9</ele>
        <time>2021-09-18T14:05:57.000Z</time>
      </trkpt>
      <trkpt lat="45.55624" lon="2.82564">
        <ele>1552.2</ele>
        <time>2021-09-18T14:06:05.000Z</time>
      </trkpt>
      <trkpt lat="45.55618" lon="2.82554">
        <ele>1553</ele>
        <time>2021-09-18T14:06:13.000Z</time>
      </trkpt>
      <trkpt lat="45.55613" lon="2.82544">
        <ele>1554.6</ele>
        <time>2021-09-18T14:06:21.000Z</time>
      </trkpt>
      <trkpt lat="45.55608" lon="2.82535">
        <ele>1555.6</ele>
        <time>2021-09-18T14:06:28.000Z</time>
      </trkpt>
      <trkpt lat="45.55601" lon="2.82526">
        <ele>1558.4</ele>
        <time>2021-09-18T14:06:38.000Z</time>
      </trkpt>
      <trkpt lat="45.55593" lon="2.82522">
        <ele>1563</ele>
        <time>2021-09-18T14:07:34.000Z</time>
      </trkpt>
      <trkpt lat="45.55599" lon="2.82514">
        <ele>1562.6</ele>
        <time>2021-09-18T14:11:10.000Z</time>
      </trkpt>
      <trkpt lat="45.55607" lon="2.82509">
        <ele>1562.2</ele>
        <time>2021-09-18T14:11:21.000Z</time>
      </trkpt>
      <trkpt lat="45.55613" lon="2.82502">
        <ele>1561.3</ele>
        <time>2021-09-18T14:11:30.000Z</time>
      </trkpt>
      <trkpt lat="45.5562" lon="2.82496">
        <ele>1560.6</ele>
        <time>2021-09-18T14:11:46.000Z</time>
      </trkpt>
      <trkpt lat="45.55626" lon="2.82488">
        <ele>1559.3</ele>
        <time>2021-09-18T14:11:54.000Z</time>
      </trkpt>
      <trkpt lat="45.55634" lon="2.82482">
        <ele>1558.8</ele>
        <time>2021-09-18T14:12:02.000Z</time>
      </trkpt>
      <trkpt lat="45.5564" lon="2.82473">
        <ele>1557.8</ele>
        <time>2021-09-18T14:12:12.000Z</time>
      </trkpt>
      <trkpt lat="45.55647" lon="2.82467">
        <ele>1556.8</ele>
        <time>2021-09-18T14:12:19.000Z</time>
      </trkpt>
      <trkpt lat="45.55653" lon="2.8246">
        <ele>1555.6</ele>
        <time>2021-09-18T14:12:26.000Z</time>
      </trkpt>
      <trkpt lat="45.55661" lon="2.82453">
        <ele>1555.1</ele>
        <time>2021-09-18T14:12:34.000Z</time>
      </trkpt>
      <trkpt lat="45.55667" lon="2.82446">
        <ele>1554.3</ele>
        <time>2021-09-18T14:12:42.000Z</time>
      </trkpt>
      <trkpt lat="45.55673" lon="2.82438">
        <ele>1552.3</ele>
        <time>2021-09-18T14:12:51.000Z</time>
      </trkpt>
      <trkpt lat="45.55679" lon="2.8243">
        <ele>1550.9</ele>
        <time>2021-09-18T14:12:59.000Z</time>
      </trkpt>
      <trkpt lat="45.55686" lon="2.82423">
        <ele>1549.5</ele>
        <time>2021-09-18T14:13:06.000Z</time>
      </trkpt>
      <trkpt lat="45.55692" lon="2.82416">
        <ele>1548.6</ele>
        <time>2021-09-18T14:13:14.000Z</time>
      </trkpt>
      <trkpt lat="45.55699" lon="2.82409">
        <ele>1547.8</ele>
        <time>2021-09-18T14:13:21.000Z</time>
      </trkpt>
      <trkpt lat="45.55706" lon="2.82402">
        <ele>1546.2</ele>
        <time>2021-09-18T14:13:29.000Z</time>
      </trkpt>
      <trkpt lat="45.55712" lon="2.82394">
        <ele>1544.2</ele>
        <time>2021-09-18T14:13:37.000Z</time>
      </trkpt>
      <trkpt lat="45.55718" lon="2.82387">
        <ele>1543.5</ele>
        <time>2021-09-18T14:13:44.000Z</time>
      </trkpt>
      <trkpt lat="45.55725" lon="2.8238">
        <ele>1543</ele>
        <time>2021-09-18T14:13:54.000Z</time>
      </trkpt>
      <trkpt lat="45.55733" lon="2.82375">
        <ele>1542.2</ele>
        <time>2021-09-18T14:14:02.000Z</time>
      </trkpt>
      <trkpt lat="45.55739" lon="2.82367">
        <ele>1541.1</ele>
        <time>2021-09-18T14:14:10.000Z</time>
      </trkpt>
      <trkpt lat="45.55747" lon="2.82362">
        <ele>1540</ele>
        <time>2021-09-18T14:14:19.000Z</time>
      </trkpt>
      <trkpt lat="45.55754" lon="2.82355">
        <ele>1538.8</ele>
        <time>2021-09-18T14:14:29.000Z</time>
      </trkpt>
      <trkpt lat="45.5576" lon="2.82346">
        <ele>1537.9</ele>
        <time>2021-09-18T14:14:41.000Z</time>
      </trkpt>
      <trkpt lat="45.55768" lon="2.8234">
        <ele>1536.9</ele>
        <time>2021-09-18T14:14:48.000Z</time>
      </trkpt>
      <trkpt lat="45.55774" lon="2.82331">
        <ele>1536.8</ele>
        <time>2021-09-18T14:14:58.000Z</time>
      </trkpt>
      <trkpt lat="45.5578" lon="2.82321">
        <ele>1534.8</ele>
        <time>2021-09-18T14:15:12.000Z</time>
      </trkpt>
      <trkpt lat="45.55786" lon="2.82314">
        <ele>1533.7</ele>
        <time>2021-09-18T14:15:21.000Z</time>
      </trkpt>
      <trkpt lat="45.55795" lon="2.82311">
        <ele>1532.4</ele>
        <time>2021-09-18T14:15:32.000Z</time>
      </trkpt>
      <trkpt lat="45.55803" lon="2.82306">
        <ele>1529.5</ele>
        <time>2021-09-18T14:16:41.000Z</time>
      </trkpt>
      <trkpt lat="45.5581" lon="2.82303">
        <ele>1529.4</ele>
        <time>2021-09-18T14:16:47.000Z</time>
      </trkpt>
      <trkpt lat="45.55818" lon="2.823">
        <ele>1528.9</ele>
        <time>2021-09-18T14:16:55.000Z</time>
      </trkpt>
      <trkpt lat="45.55826" lon="2.82296">
        <ele>1527.8</ele>
        <time>2021-09-18T14:17:07.000Z</time>
      </trkpt>
      <trkpt lat="45.55833" lon="2.82293">
        <ele>1526.2</ele>
        <time>2021-09-18T14:17:16.000Z</time>
      </trkpt>
      <trkpt lat="45.55841" lon="2.8229">
        <ele>1525.7</ele>
        <time>2021-09-18T14:17:23.000Z</time>
      </trkpt>
      <trkpt lat="45.55849" lon="2.82285">
        <ele>1525.2</ele>
        <time>2021-09-18T14:17:31.000Z</time>
      </trkpt>
      <trkpt lat="45.55857" lon="2.82282">
        <ele>1524.3</ele>
        <time>2021-09-18T14:17:39.000Z</time>
      </trkpt>
      <trkpt lat="45.55865" lon="2.82279">
        <ele>1523.1</ele>
        <time>2021-09-18T14:17:48.000Z</time>
      </trkpt>
      <trkpt lat="45.55873" lon="2.82278">
        <ele>1521.9</ele>
        <time>2021-09-18T14:17:58.000Z</time>
      </trkpt>
      <trkpt lat="45.55881" lon="2.82274">
        <ele>1521</ele>
        <time>2021-09-18T14:18:05.000Z</time>
      </trkpt>
      <trkpt lat="45.55889" lon="2.8227">
        <ele>1519.4</ele>
        <time>2021-09-18T14:18:15.000Z</time>
      </trkpt>
      <trkpt lat="45.55898" lon="2.82267">
        <ele>1519</ele>
        <time>2021-09-18T14:18:23.000Z</time>
      </trkpt>
      <trkpt lat="45.55906" lon="2.82266">
        <ele>1517.4</ele>
        <time>2021-09-18T14:18:30.000Z</time>
      </trkpt>
      <trkpt lat="45.55915" lon="2.82263">
        <ele>1516.6</ele>
        <time>2021-09-18T14:18:38.000Z</time>
      </trkpt>
      <trkpt lat="45.55923" lon="2.82262">
        <ele>1515.2</ele>
        <time>2021-09-18T14:18:45.000Z</time>
      </trkpt>
      <trkpt lat="45.55931" lon="2.8226">
        <ele>1514.4</ele>
        <time>2021-09-18T14:18:52.000Z</time>
      </trkpt>
      <trkpt lat="45.55939" lon="2.82255">
        <ele>1512.7</ele>
        <time>2021-09-18T14:19:00.000Z</time>
      </trkpt>
      <trkpt lat="45.55947" lon="2.82251">
        <ele>1512.6</ele>
        <time>2021-09-18T14:19:09.000Z</time>
      </trkpt>
      <trkpt lat="45.55955" lon="2.82248">
        <ele>1512</ele>
        <time>2021-09-18T14:19:15.000Z</time>
      </trkpt>
      <trkpt lat="45.55963" lon="2.82242">
        <ele>1510.6</ele>
        <time>2021-09-18T14:19:23.000Z</time>
      </trkpt>
      <trkpt lat="45.5597" lon="2.82236">
        <ele>1510</ele>
        <time>2021-09-18T14:19:30.000Z</time>
      </trkpt>
      <trkpt lat="45.55979" lon="2.82232">
        <ele>1507.8</ele>
        <time>2021-09-18T14:19:38.000Z</time>
      </trkpt>
      <trkpt lat="45.55987" lon="2.82227">
        <ele>1506.6</ele>
        <time>2021-09-18T14:19:45.000Z</time>
      </trkpt>
      <trkpt lat="45.55994" lon="2.82222">
        <ele>1503.5</ele>
        <time>2021-09-18T14:20:19.000Z</time>
      </trkpt>
      <trkpt lat="45.56001" lon="2.82213">
        <ele>1502.7</ele>
        <time>2021-09-18T14:20:31.000Z</time>
      </trkpt>
      <trkpt lat="45.56008" lon="2.82207">
        <ele>1502.3</ele>
        <time>2021-09-18T14:20:39.000Z</time>
      </trkpt>
      <trkpt lat="45.56016" lon="2.82203">
        <ele>1500.3</ele>
        <time>2021-09-18T14:20:46.000Z</time>
      </trkpt>
      <trkpt lat="45.56024" lon="2.82197">
        <ele>1499.9</ele>
        <time>2021-09-18T14:20:53.000Z</time>
      </trkpt>
      <trkpt lat="45.56031" lon="2.82194">
        <ele>1498.2</ele>
        <time>2021-09-18T14:21:01.000Z</time>
      </trkpt>
      <trkpt lat="45.5604" lon="2.8219">
        <ele>1498</ele>
        <time>2021-09-18T14:21:08.000Z</time>
      </trkpt>
      <trkpt lat="45.56047" lon="2.82183">
        <ele>1496.3</ele>
        <time>2021-09-18T14:21:15.000Z</time>
      </trkpt>
      <trkpt lat="45.56055" lon="2.82178">
        <ele>1494.9</ele>
        <time>2021-09-18T14:21:24.000Z</time>
      </trkpt>
      <trkpt lat="45.56061" lon="2.8217">
        <ele>1491.9</ele>
        <time>2021-09-18T14:21:39.000Z</time>
      </trkpt>
      <trkpt lat="45.56065" lon="2.82159">
        <ele>1489</ele>
        <time>2021-09-18T14:21:57.000Z</time>
      </trkpt>
      <trkpt lat="45.56073" lon="2.82153">
        <ele>1486.5</ele>
        <time>2021-09-18T14:22:13.000Z</time>
      </trkpt>
      <trkpt lat="45.56079" lon="2.82145">
        <ele>1483.6</ele>
        <time>2021-09-18T14:22:34.000Z</time>
      </trkpt>
      <trkpt lat="45.56084" lon="2.82134">
        <ele>1481.3</ele>
        <time>2021-09-18T14:22:52.000Z</time>
      </trkpt>
      <trkpt lat="45.56091" lon="2.82126">
        <ele>1480.7</ele>
        <time>2021-09-18T14:23:01.000Z</time>
      </trkpt>
      <trkpt lat="45.56098" lon="2.82122">
        <ele>1479.8</ele>
        <time>2021-09-18T14:23:09.000Z</time>
      </trkpt>
      <trkpt lat="45.56105" lon="2.82113">
        <ele>1477.9</ele>
        <time>2021-09-18T14:23:16.000Z</time>
      </trkpt>
      <trkpt lat="45.56111" lon="2.82105">
        <ele>1478.1</ele>
        <time>2021-09-18T14:23:22.000Z</time>
      </trkpt>
      <trkpt lat="45.56119" lon="2.82101">
        <ele>1475.2</ele>
        <time>2021-09-18T14:23:32.000Z</time>
      </trkpt>
      <trkpt lat="45.56128" lon="2.82098">
        <ele>1473.2</ele>
        <time>2021-09-18T14:23:40.000Z</time>
      </trkpt>
      <trkpt lat="45.56136" lon="2.82097">
        <ele>1472.8</ele>
        <time>2021-09-18T14:23:47.000Z</time>
      </trkpt>
      <trkpt lat="45.56145" lon="2.82097">
        <ele>1471</ele>
        <time>2021-09-18T14:23:54.000Z</time>
      </trkpt>
      <trkpt lat="45.56153" lon="2.82095">
        <ele>1470.5</ele>
        <time>2021-09-18T14:24:01.000Z</time>
      </trkpt>
      <trkpt lat="45.56161" lon="2.82097">
        <ele>1469.4</ele>
        <time>2021-09-18T14:24:08.000Z</time>
      </trkpt>
      <trkpt lat="45.5617" lon="2.82097">
        <ele>1468.5</ele>
        <time>2021-09-18T14:24:17.000Z</time>
      </trkpt>
      <trkpt lat="45.56177" lon="2.82089">
        <ele>1466.3</ele>
        <time>2021-09-18T14:24:37.000Z</time>
      </trkpt>
      <trkpt lat="45.56184" lon="2.82082">
        <ele>1464.6</ele>
        <time>2021-09-18T14:24:52.000Z</time>
      </trkpt>
      <trkpt lat="45.5619" lon="2.82073">
        <ele>1463.8</ele>
        <time>2021-09-18T14:25:08.000Z</time>
      </trkpt>
      <trkpt lat="45.56191" lon="2.8206">
        <ele>1462.4</ele>
        <time>2021-09-18T14:25:20.000Z</time>
      </trkpt>
      <trkpt lat="45.56194" lon="2.8205">
        <ele>1461.6</ele>
        <time>2021-09-18T14:25:29.000Z</time>
      </trkpt>
      <trkpt lat="45.56201" lon="2.82041">
        <ele>1459.5</ele>
        <time>2021-09-18T14:25:37.000Z</time>
      </trkpt>
      <trkpt lat="45.56205" lon="2.8203">
        <ele>1459.1</ele>
        <time>2021-09-18T14:25:45.000Z</time>
      </trkpt>
      <trkpt lat="45.56208" lon="2.8202">
        <ele>1458.1</ele>
        <time>2021-09-18T14:25:52.000Z</time>
      </trkpt>
      <trkpt lat="45.56209" lon="2.82009">
        <ele>1456.9</ele>
        <time>2021-09-18T14:25:59.000Z</time>
      </trkpt>
      <trkpt lat="45.56211" lon="2.81997">
        <ele>1456.1</ele>
        <time>2021-09-18T14:26:06.000Z</time>
      </trkpt>
      <trkpt lat="45.56212" lon="2.81985">
        <ele>1454.7</ele>
        <time>2021-09-18T14:26:16.000Z</time>
      </trkpt>
      <trkpt lat="45.56218" lon="2.81975">
        <ele>1452.6</ele>
        <time>2021-09-18T14:29:12.000Z</time>
      </trkpt>
      <trkpt lat="45.56226" lon="2.81972">
        <ele>1452.9</ele>
        <time>2021-09-18T14:29:21.000Z</time>
      </trkpt>
      <trkpt lat="45.56232" lon="2.81964">
        <ele>1452</ele>
        <time>2021-09-18T14:29:29.000Z</time>
      </trkpt>
      <trkpt lat="45.56238" lon="2.81955">
        <ele>1451</ele>
        <time>2021-09-18T14:29:38.000Z</time>
      </trkpt>
      <trkpt lat="45.56243" lon="2.81946">
        <ele>1450</ele>
        <time>2021-09-18T14:29:46.000Z</time>
      </trkpt>
      <trkpt lat="45.56251" lon="2.81942">
        <ele>1448.9</ele>
        <time>2021-09-18T14:29:53.000Z</time>
      </trkpt>
      <trkpt lat="45.56258" lon="2.81936">
        <ele>1448.8</ele>
        <time>2021-09-18T14:30:00.000Z</time>
      </trkpt>
      <trkpt lat="45.56265" lon="2.81934">
        <ele>1448</ele>
        <time>2021-09-18T14:30:06.000Z</time>
      </trkpt>
      <trkpt lat="45.56273" lon="2.81928">
        <ele>1446.6</ele>
        <time>2021-09-18T14:30:14.000Z</time>
      </trkpt>
      <trkpt lat="45.56281" lon="2.81923">
        <ele>1446.8</ele>
        <time>2021-09-18T14:30:23.000Z</time>
      </trkpt>
      <trkpt lat="45.56288" lon="2.81917">
        <ele>1445.1</ele>
        <time>2021-09-18T14:30:32.000Z</time>
      </trkpt>
      <trkpt lat="45.56297" lon="2.81914">
        <ele>1443</ele>
        <time>2021-09-18T14:30:40.000Z</time>
      </trkpt>
      <trkpt lat="45.56306" lon="2.81915">
        <ele>1440.9</ele>
        <time>2021-09-18T14:31:11.000Z</time>
      </trkpt>
      <trkpt lat="45.56314" lon="2.81916">
        <ele>1438.9</ele>
        <time>2021-09-18T14:31:20.000Z</time>
      </trkpt>
      <trkpt lat="45.56322" lon="2.81918">
        <ele>1437.2</ele>
        <time>2021-09-18T14:31:29.000Z</time>
      </trkpt>
      <trkpt lat="45.5633" lon="2.81923">
        <ele>1436.1</ele>
        <time>2021-09-18T14:31:38.000Z</time>
      </trkpt>
      <trkpt lat="45.56339" lon="2.81922">
        <ele>1434.7</ele>
        <time>2021-09-18T14:31:46.000Z</time>
      </trkpt>
      <trkpt lat="45.56347" lon="2.81919">
        <ele>1433.9</ele>
        <time>2021-09-18T14:31:53.000Z</time>
      </trkpt>
      <trkpt lat="45.56355" lon="2.81914">
        <ele>1433.3</ele>
        <time>2021-09-18T14:32:02.000Z</time>
      </trkpt>
      <trkpt lat="45.56363" lon="2.8191">
        <ele>1432.4</ele>
        <time>2021-09-18T14:32:10.000Z</time>
      </trkpt>
      <trkpt lat="45.56372" lon="2.8191">
        <ele>1431.4</ele>
        <time>2021-09-18T14:32:17.000Z</time>
      </trkpt>
      <trkpt lat="45.56379" lon="2.81903">
        <ele>1429.5</ele>
        <time>2021-09-18T14:32:28.000Z</time>
      </trkpt>
      <trkpt lat="45.56387" lon="2.81902">
        <ele>1428.2</ele>
        <time>2021-09-18T14:32:36.000Z</time>
      </trkpt>
      <trkpt lat="45.56395" lon="2.81895">
        <ele>1426.8</ele>
        <time>2021-09-18T14:32:47.000Z</time>
      </trkpt>
      <trkpt lat="45.56402" lon="2.81889">
        <ele>1424</ele>
        <time>2021-09-18T14:32:59.000Z</time>
      </trkpt>
      <trkpt lat="45.56409" lon="2.81883">
        <ele>1422.6</ele>
        <time>2021-09-18T14:33:09.000Z</time>
      </trkpt>
      <trkpt lat="45.56416" lon="2.81877">
        <ele>1420.9</ele>
        <time>2021-09-18T14:33:19.000Z</time>
      </trkpt>
      <trkpt lat="45.56424" lon="2.81873">
        <ele>1418</ele>
        <time>2021-09-18T14:33:31.000Z</time>
      </trkpt>
      <trkpt lat="45.56432" lon="2.81867">
        <ele>1416.6</ele>
        <time>2021-09-18T14:33:42.000Z</time>
      </trkpt>
      <trkpt lat="45.5644" lon="2.81866">
        <ele>1415.3</ele>
        <time>2021-09-18T14:33:54.000Z</time>
      </trkpt>
      <trkpt lat="45.56448" lon="2.81861">
        <ele>1414.3</ele>
        <time>2021-09-18T14:34:03.000Z</time>
      </trkpt>
      <trkpt lat="45.56454" lon="2.81852">
        <ele>1413.2</ele>
        <time>2021-09-18T14:34:13.000Z</time>
      </trkpt>
      <trkpt lat="45.56461" lon="2.81848">
        <ele>1410.9</ele>
        <time>2021-09-18T14:34:23.000Z</time>
      </trkpt>
      <trkpt lat="45.5647" lon="2.81848">
        <ele>1408.6</ele>
        <time>2021-09-18T14:34:36.000Z</time>
      </trkpt>
      <trkpt lat="45.56479" lon="2.81849">
        <ele>1406.7</ele>
        <time>2021-09-18T14:34:49.000Z</time>
      </trkpt>
      <trkpt lat="45.56487" lon="2.8185">
        <ele>1404.1</ele>
        <time>2021-09-18T14:34:59.000Z</time>
      </trkpt>
      <trkpt lat="45.56495" lon="2.81846">
        <ele>1400.8</ele>
        <time>2021-09-18T14:35:10.000Z</time>
      </trkpt>
      <trkpt lat="45.56504" lon="2.81847">
        <ele>1398.5</ele>
        <time>2021-09-18T14:35:20.000Z</time>
      </trkpt>
      <trkpt lat="45.56512" lon="2.81848">
        <ele>1395.4</ele>
        <time>2021-09-18T14:35:28.000Z</time>
      </trkpt>
      <trkpt lat="45.5652" lon="2.8185">
        <ele>1394.9</ele>
        <time>2021-09-18T14:35:36.000Z</time>
      </trkpt>
      <trkpt lat="45.56529" lon="2.81849">
        <ele>1392.5</ele>
        <time>2021-09-18T14:35:46.000Z</time>
      </trkpt>
      <trkpt lat="45.56537" lon="2.81848">
        <ele>1389.2</ele>
        <time>2021-09-18T14:35:58.000Z</time>
      </trkpt>
      <trkpt lat="45.56546" lon="2.81853">
        <ele>1386.6</ele>
        <time>2021-09-18T14:36:07.000Z</time>
      </trkpt>
      <trkpt lat="45.56547" lon="2.81864">
        <ele>1385.8</ele>
        <time>2021-09-18T14:36:15.000Z</time>
      </trkpt>
      <trkpt lat="45.56551" lon="2.81875">
        <ele>1384.3</ele>
        <time>2021-09-18T14:36:25.000Z</time>
      </trkpt>
      <trkpt lat="45.56555" lon="2.81885">
        <ele>1382.8</ele>
        <time>2021-09-18T14:36:38.000Z</time>
      </trkpt>
      <trkpt lat="45.56557" lon="2.81897">
        <ele>1380.1</ele>
        <time>2021-09-18T14:38:40.000Z</time>
      </trkpt>
      <trkpt lat="45.56557" lon="2.81909">
        <ele>1380.7</ele>
        <time>2021-09-18T14:38:50.000Z</time>
      </trkpt>
      <trkpt lat="45.5656" lon="2.81919">
        <ele>1379.7</ele>
        <time>2021-09-18T14:39:01.000Z</time>
      </trkpt>
      <trkpt lat="45.56562" lon="2.81931">
        <ele>1377.7</ele>
        <time>2021-09-18T14:39:17.000Z</time>
      </trkpt>
      <trkpt lat="45.56563" lon="2.81943">
        <ele>1377.2</ele>
        <time>2021-09-18T14:39:36.000Z</time>
      </trkpt>
      <trkpt lat="45.56568" lon="2.81953">
        <ele>1371</ele>
        <time>2021-09-18T14:40:13.000Z</time>
      </trkpt>
      <trkpt lat="45.56569" lon="2.81964">
        <ele>1364.1</ele>
        <time>2021-09-18T14:40:20.000Z</time>
      </trkpt>
      <trkpt lat="45.56587" lon="2.82007">
        <ele>1360.9</ele>
        <time>2021-09-18T14:40:24.000Z</time>
      </trkpt>
      <trkpt lat="45.56586" lon="2.82011">
        <ele>1363.1</ele>
        <time>2021-09-18T14:40:32.000Z</time>
      </trkpt>
      <trkpt lat="45.56578" lon="2.81985">
        <ele>1360.2</ele>
        <time>2021-09-18T14:40:36.000Z</time>
      </trkpt>
      <trkpt lat="45.56576" lon="2.81974">
        <ele>1362.2</ele>
        <time>2021-09-18T14:40:42.000Z</time>
      </trkpt>
      <trkpt lat="45.56572" lon="2.8194">
        <ele>1363.5</ele>
        <time>2021-09-18T14:40:47.000Z</time>
      </trkpt>
      <trkpt lat="45.56572" lon="2.81928">
        <ele>1362.4</ele>
        <time>2021-09-18T14:40:54.000Z</time>
      </trkpt>
      <trkpt lat="45.56574" lon="2.81916">
        <ele>1362.1</ele>
        <time>2021-09-18T14:41:01.000Z</time>
      </trkpt>
      <trkpt lat="45.56582" lon="2.81918">
        <ele>1358.7</ele>
        <time>2021-09-18T14:41:20.000Z</time>
      </trkpt>
      <trkpt lat="45.56584" lon="2.81929">
        <ele>1356</ele>
        <time>2021-09-18T14:41:38.000Z</time>
      </trkpt>
      <trkpt lat="45.56587" lon="2.81937">
        <ele>1353.6</ele>
        <time>2021-09-18T14:41:54.000Z</time>
      </trkpt>
      <trkpt lat="45.56593" lon="2.81945">
        <ele>1352.2</ele>
        <time>2021-09-18T14:42:00.000Z</time>
      </trkpt>
      <trkpt lat="45.566" lon="2.81939">
        <ele>1343</ele>
        <time>2021-09-18T14:42:43.000Z</time>
      </trkpt>
      <trkpt lat="45.56607" lon="2.81943">
        <ele>1338.7</ele>
        <time>2021-09-18T14:42:59.000Z</time>
      </trkpt>
      <trkpt lat="45.56611" lon="2.81949">
        <ele>1337.5</ele>
        <time>2021-09-18T14:43:04.000Z</time>
      </trkpt>
      <trkpt lat="45.56615" lon="2.81957">
        <ele>1336.7</ele>
        <time>2021-09-18T14:43:13.000Z</time>
      </trkpt>
      <trkpt lat="45.56621" lon="2.81966">
        <ele>1333.9</ele>
        <time>2021-09-18T14:43:35.000Z</time>
      </trkpt>
      <trkpt lat="45.56628" lon="2.81972">
        <ele>1330.7</ele>
        <time>2021-09-18T14:43:44.000Z</time>
      </trkpt>
      <trkpt lat="45.56634" lon="2.81981">
        <ele>1329.2</ele>
        <time>2021-09-18T14:44:00.000Z</time>
      </trkpt>
      <trkpt lat="45.56641" lon="2.81989">
        <ele>1328</ele>
        <time>2021-09-18T14:44:06.000Z</time>
      </trkpt>
      <trkpt lat="45.56646" lon="2.81993">
        <ele>1326.1</ele>
        <time>2021-09-18T14:44:29.000Z</time>
      </trkpt>
      <trkpt lat="45.56654" lon="2.8199">
        <ele>1325.8</ele>
        <time>2021-09-18T14:46:45.000Z</time>
      </trkpt>
      <trkpt lat="45.56662" lon="2.81984">
        <ele>1324.9</ele>
        <time>2021-09-18T14:46:57.000Z</time>
      </trkpt>
      <trkpt lat="45.56668" lon="2.81977">
        <ele>1325.4</ele>
        <time>2021-09-18T14:47:06.000Z</time>
      </trkpt>
      <trkpt lat="45.56673" lon="2.81972">
        <ele>1323</ele>
        <time>2021-09-18T14:47:16.000Z</time>
      </trkpt>
      <trkpt lat="45.56677" lon="2.81968">
        <ele>1320.6</ele>
        <time>2021-09-18T14:47:34.000Z</time>
      </trkpt>
      <trkpt lat="45.56683" lon="2.81958">
        <ele>1319.6</ele>
        <time>2021-09-18T14:47:38.000Z</time>
      </trkpt>
      <trkpt lat="45.56692" lon="2.81947">
        <ele>1318.6</ele>
        <time>2021-09-18T14:47:42.000Z</time>
      </trkpt>
      <trkpt lat="45.56699" lon="2.81939">
        <ele>1316.9</ele>
        <time>2021-09-18T14:47:54.000Z</time>
      </trkpt>
      <trkpt lat="45.56707" lon="2.81931">
        <ele>1315.9</ele>
        <time>2021-09-18T14:47:59.000Z</time>
      </trkpt>
      <trkpt lat="45.56713" lon="2.81925">
        <ele>1315</ele>
        <time>2021-09-18T14:48:09.000Z</time>
      </trkpt>
      <trkpt lat="45.5672" lon="2.81922">
        <ele>1312.5</ele>
        <time>2021-09-18T14:48:16.000Z</time>
      </trkpt>
      <trkpt lat="45.56729" lon="2.81919">
        <ele>1311.5</ele>
        <time>2021-09-18T14:48:26.000Z</time>
      </trkpt>
      <trkpt lat="45.56737" lon="2.81914">
        <ele>1309.5</ele>
        <time>2021-09-18T14:48:33.000Z</time>
      </trkpt>
      <trkpt lat="45.56744" lon="2.81908">
        <ele>1308.8</ele>
        <time>2021-09-18T14:48:40.000Z</time>
      </trkpt>
      <trkpt lat="45.5675" lon="2.81901">
        <ele>1308.7</ele>
        <time>2021-09-18T14:48:47.000Z</time>
      </trkpt>
      <trkpt lat="45.56755" lon="2.81893">
        <ele>1308</ele>
        <time>2021-09-18T14:48:54.000Z</time>
      </trkpt>
      <trkpt lat="45.56759" lon="2.81882">
        <ele>1306.1</ele>
        <time>2021-09-18T14:49:14.000Z</time>
      </trkpt>
      <trkpt lat="45.56762" lon="2.8187">
        <ele>1304</ele>
        <time>2021-09-18T14:49:27.000Z</time>
      </trkpt>
      <trkpt lat="45.56764" lon="2.81864">
        <ele>1302.6</ele>
        <time>2021-09-18T14:49:33.000Z</time>
      </trkpt>
      <trkpt lat="45.56766" lon="2.81854">
        <ele>1300.9</ele>
        <time>2021-09-18T14:49:41.000Z</time>
      </trkpt>
      <trkpt lat="45.56768" lon="2.81843">
        <ele>1299</ele>
        <time>2021-09-18T14:49:58.000Z</time>
      </trkpt>
      <trkpt lat="45.5676" lon="2.81839">
        <ele>1295.6</ele>
        <time>2021-09-18T14:50:21.000Z</time>
      </trkpt>
      <trkpt lat="45.56752" lon="2.81842">
        <ele>1295.9</ele>
        <time>2021-09-18T14:50:26.000Z</time>
      </trkpt>
      <trkpt lat="45.56744" lon="2.81847">
        <ele>1293.7</ele>
        <time>2021-09-18T14:50:37.000Z</time>
      </trkpt>
      <trkpt lat="45.56735" lon="2.81859">
        <ele>1292.9</ele>
        <time>2021-09-18T14:50:41.000Z</time>
      </trkpt>
      <trkpt lat="45.56731" lon="2.81862">
        <ele>1290.9</ele>
        <time>2021-09-18T14:50:55.000Z</time>
      </trkpt>
      <trkpt lat="45.56722" lon="2.81867">
        <ele>1290</ele>
        <time>2021-09-18T14:50:59.000Z</time>
      </trkpt>
      <trkpt lat="45.56719" lon="2.81869">
        <ele>1287.8</ele>
        <time>2021-09-18T14:51:21.000Z</time>
      </trkpt>
      <trkpt lat="45.56722" lon="2.81859">
        <ele>1279.1</ele>
        <time>2021-09-18T14:51:55.000Z</time>
      </trkpt>
      <trkpt lat="45.56722" lon="2.81848">
        <ele>1275.5</ele>
        <time>2021-09-18T14:52:14.000Z</time>
      </trkpt>
      <trkpt lat="45.56718" lon="2.81837">
        <ele>1270.2</ele>
        <time>2021-09-18T14:52:41.000Z</time>
      </trkpt>
      <trkpt lat="45.5671" lon="2.81832">
        <ele>1267</ele>
        <time>2021-09-18T14:52:51.000Z</time>
      </trkpt>
      <trkpt lat="45.56713" lon="2.81822">
        <ele>1265.8</ele>
        <time>2021-09-18T14:53:04.000Z</time>
      </trkpt>
      <trkpt lat="45.56717" lon="2.8181">
        <ele>1262</ele>
        <time>2021-09-18T14:53:23.000Z</time>
      </trkpt>
      <trkpt lat="45.56723" lon="2.81803">
        <ele>1260.6</ele>
        <time>2021-09-18T14:53:34.000Z</time>
      </trkpt>
      <trkpt lat="45.5673" lon="2.81794">
        <ele>1259</ele>
        <time>2021-09-18T14:53:41.000Z</time>
      </trkpt>
      <trkpt lat="45.56733" lon="2.81788">
        <ele>1259.5</ele>
        <time>2021-09-18T14:53:45.000Z</time>
      </trkpt>
      <trkpt lat="45.5674" lon="2.81779">
        <ele>1257</ele>
        <time>2021-09-18T14:53:49.000Z</time>
      </trkpt>
      <trkpt lat="45.56746" lon="2.8177">
        <ele>1257</ele>
        <time>2021-09-18T14:53:54.000Z</time>
      </trkpt>
      <trkpt lat="45.56749" lon="2.81766">
        <ele>1251.8</ele>
        <time>2021-09-18T14:54:31.000Z</time>
      </trkpt>
      <trkpt lat="45.56757" lon="2.81756">
        <ele>1251.1</ele>
        <time>2021-09-18T14:54:36.000Z</time>
      </trkpt>
      <trkpt lat="45.56764" lon="2.81749">
        <ele>1249.7</ele>
        <time>2021-09-18T14:54:41.000Z</time>
      </trkpt>
      <trkpt lat="45.56771" lon="2.81744">
        <ele>1247.5</ele>
        <time>2021-09-18T14:54:55.000Z</time>
      </trkpt>
      <trkpt lat="45.56777" lon="2.81736">
        <ele>1247.5</ele>
        <time>2021-09-18T14:55:01.000Z</time>
      </trkpt>
      <trkpt lat="45.56783" lon="2.81728">
        <ele>1245.2</ele>
        <time>2021-09-18T14:55:15.000Z</time>
      </trkpt>
      <trkpt lat="45.56788" lon="2.81726">
        <ele>1244.1</ele>
        <time>2021-09-18T14:55:20.000Z</time>
      </trkpt>
      <trkpt lat="45.56796" lon="2.81719">
        <ele>1243.1</ele>
        <time>2021-09-18T14:55:25.000Z</time>
      </trkpt>
      <trkpt lat="45.56801" lon="2.8171">
        <ele>1241.6</ele>
        <time>2021-09-18T14:55:41.000Z</time>
      </trkpt>
      <trkpt lat="45.56804" lon="2.81698">
        <ele>1240</ele>
        <time>2021-09-18T14:55:49.000Z</time>
      </trkpt>
      <trkpt lat="45.56807" lon="2.81687">
        <ele>1238.2</ele>
        <time>2021-09-18T14:55:57.000Z</time>
      </trkpt>
      <trkpt lat="45.56812" lon="2.81677">
        <ele>1237.8</ele>
        <time>2021-09-18T14:56:03.000Z</time>
      </trkpt>
      <trkpt lat="45.56817" lon="2.81668">
        <ele>1236</ele>
        <time>2021-09-18T14:56:17.000Z</time>
      </trkpt>
      <trkpt lat="45.56822" lon="2.81661">
        <ele>1234.2</ele>
        <time>2021-09-18T14:56:32.000Z</time>
      </trkpt>
      <trkpt lat="45.5683" lon="2.81656">
        <ele>1233.3</ele>
        <time>2021-09-18T14:56:42.000Z</time>
      </trkpt>
      <trkpt lat="45.56837" lon="2.81651">
        <ele>1232.2</ele>
        <time>2021-09-18T14:56:51.000Z</time>
      </trkpt>
      <trkpt lat="45.56848" lon="2.81647">
        <ele>1229</ele>
        <time>2021-09-18T14:56:56.000Z</time>
      </trkpt>
      <trkpt lat="45.56857" lon="2.81644">
        <ele>1228.7</ele>
        <time>2021-09-18T14:57:05.000Z</time>
      </trkpt>
      <trkpt lat="45.56864" lon="2.81638">
        <ele>1227.6</ele>
        <time>2021-09-18T14:57:13.000Z</time>
      </trkpt>
      <trkpt lat="45.56866" lon="2.8163">
        <ele>1225.2</ele>
        <time>2021-09-18T14:57:38.000Z</time>
      </trkpt>
      <trkpt lat="45.56871" lon="2.8162">
        <ele>1223.4</ele>
        <time>2021-09-18T14:57:46.000Z</time>
      </trkpt>
      <trkpt lat="45.56877" lon="2.81611">
        <ele>1223.2</ele>
        <time>2021-09-18T14:57:50.000Z</time>
      </trkpt>
      <trkpt lat="45.56882" lon="2.81603">
        <ele>1220.7</ele>
        <time>2021-09-18T14:58:06.000Z</time>
      </trkpt>
      <trkpt lat="45.56889" lon="2.81593">
        <ele>1220.4</ele>
        <time>2021-09-18T14:58:10.000Z</time>
      </trkpt>
      <trkpt lat="45.56891" lon="2.81583">
        <ele>1220</ele>
        <time>2021-09-18T14:58:21.000Z</time>
      </trkpt>
      <trkpt lat="45.56893" lon="2.81574">
        <ele>1219.8</ele>
        <time>2021-09-18T14:58:30.000Z</time>
      </trkpt>
      <trkpt lat="45.569" lon="2.81567">
        <ele>1219.3</ele>
        <time>2021-09-18T14:58:44.000Z</time>
      </trkpt>
      <trkpt lat="45.56904" lon="2.81563">
        <ele>1217.8</ele>
        <time>2021-09-18T14:59:07.000Z</time>
      </trkpt>
      <trkpt lat="45.56912" lon="2.81561">
        <ele>1216.7</ele>
        <time>2021-09-18T14:59:20.000Z</time>
      </trkpt>
      <trkpt lat="45.56919" lon="2.81557">
        <ele>1215.4</ele>
        <time>2021-09-18T14:59:27.000Z</time>
      </trkpt>
      <trkpt lat="45.56926" lon="2.81553">
        <ele>1213.7</ele>
        <time>2021-09-18T14:59:34.000Z</time>
      </trkpt>
      <trkpt lat="45.56934" lon="2.8155">
        <ele>1213.3</ele>
        <time>2021-09-18T14:59:41.000Z</time>
      </trkpt>
      <trkpt lat="45.5694" lon="2.81548">
        <ele>1211.3</ele>
        <time>2021-09-18T15:00:05.000Z</time>
      </trkpt>
      <trkpt lat="45.56948" lon="2.81547">
        <ele>1210.4</ele>
        <time>2021-09-18T15:00:17.000Z</time>
      </trkpt>
      <trkpt lat="45.56955" lon="2.81543">
        <ele>1209.1</ele>
        <time>2021-09-18T15:00:27.000Z</time>
      </trkpt>
      <trkpt lat="45.56964" lon="2.81539">
        <ele>1208.8</ele>
        <time>2021-09-18T15:00:31.000Z</time>
      </trkpt>
      <trkpt lat="45.56968" lon="2.81538">
        <ele>1206.9</ele>
        <time>2021-09-18T15:00:53.000Z</time>
      </trkpt>
      <trkpt lat="45.56975" lon="2.81535">
        <ele>1204.7</ele>
        <time>2021-09-18T15:01:10.000Z</time>
      </trkpt>
      <trkpt lat="45.56984" lon="2.81531">
        <ele>1204.1</ele>
        <time>2021-09-18T15:01:14.000Z</time>
      </trkpt>
      <trkpt lat="45.56988" lon="2.81527">
        <ele>1202.2</ele>
        <time>2021-09-18T15:01:33.000Z</time>
      </trkpt>
      <trkpt lat="45.56995" lon="2.81522">
        <ele>1201.1</ele>
        <time>2021-09-18T15:01:45.000Z</time>
      </trkpt>
      <trkpt lat="45.56999" lon="2.81518">
        <ele>1200.7</ele>
        <time>2021-09-18T15:01:54.000Z</time>
      </trkpt>
      <trkpt lat="45.57004" lon="2.81511">
        <ele>1201</ele>
        <time>2021-09-18T15:02:08.000Z</time>
      </trkpt>
      <trkpt lat="45.57" lon="2.81501">
        <ele>1198.9</ele>
        <time>2021-09-18T15:07:04.000Z</time>
      </trkpt>
      <trkpt lat="45.56992" lon="2.81502">
        <ele>1196.7</ele>
        <time>2021-09-18T15:07:14.000Z</time>
      </trkpt>
      <trkpt lat="45.56986" lon="2.81503">
        <ele>1195.7</ele>
        <time>2021-09-18T15:07:21.000Z</time>
      </trkpt>
      <trkpt lat="45.5698" lon="2.81505">
        <ele>1194.4</ele>
        <time>2021-09-18T15:07:27.000Z</time>
      </trkpt>
      <trkpt lat="45.56974" lon="2.81507">
        <ele>1193.5</ele>
        <time>2021-09-18T15:07:34.000Z</time>
      </trkpt>
      <trkpt lat="45.56967" lon="2.81507">
        <ele>1192.5</ele>
        <time>2021-09-18T15:07:38.000Z</time>
      </trkpt>
      <trkpt lat="45.5696" lon="2.81507">
        <ele>1192.2</ele>
        <time>2021-09-18T15:07:44.000Z</time>
      </trkpt>
      <trkpt lat="45.56952" lon="2.81508">
        <ele>1191.1</ele>
        <time>2021-09-18T15:07:49.000Z</time>
      </trkpt>
      <trkpt lat="45.56943" lon="2.81506">
        <ele>1189.1</ele>
        <time>2021-09-18T15:07:58.000Z</time>
      </trkpt>
      <trkpt lat="45.56939" lon="2.81505">
        <ele>1188.8</ele>
        <time>2021-09-18T15:08:09.000Z</time>
      </trkpt>
      <trkpt lat="45.56932" lon="2.81501">
        <ele>1188.2</ele>
        <time>2021-09-18T15:08:18.000Z</time>
      </trkpt>
      <trkpt lat="45.56924" lon="2.81496">
        <ele>1187.4</ele>
        <time>2021-09-18T15:08:24.000Z</time>
      </trkpt>
      <trkpt lat="45.56917" lon="2.81494">
        <ele>1186.4</ele>
        <time>2021-09-18T15:08:30.000Z</time>
      </trkpt>
      <trkpt lat="45.56908" lon="2.81493">
        <ele>1185.2</ele>
        <time>2021-09-18T15:08:38.000Z</time>
      </trkpt>
      <trkpt lat="45.569" lon="2.81489">
        <ele>1182.9</ele>
        <time>2021-09-18T15:08:56.000Z</time>
      </trkpt>
      <trkpt lat="45.56896" lon="2.81478">
        <ele>1182.3</ele>
        <time>2021-09-18T15:09:07.000Z</time>
      </trkpt>
      <trkpt lat="45.569" lon="2.81475">
        <ele>1183</ele>
        <time>2021-09-18T15:09:18.000Z</time>
      </trkpt>
      <trkpt lat="45.56913" lon="2.81474">
        <ele>1182.6</ele>
        <time>2021-09-18T15:09:22.000Z</time>
      </trkpt>
      <trkpt lat="45.56923" lon="2.81477">
        <ele>1182.6</ele>
        <time>2021-09-18T15:09:27.000Z</time>
      </trkpt>
      <trkpt lat="45.56931" lon="2.81478">
        <ele>1181.5</ele>
        <time>2021-09-18T15:09:35.000Z</time>
      </trkpt>
      <trkpt lat="45.5694" lon="2.81477">
        <ele>1180.2</ele>
        <time>2021-09-18T15:09:46.000Z</time>
      </trkpt>
      <trkpt lat="45.56948" lon="2.81473">
        <ele>1179</ele>
        <time>2021-09-18T15:09:52.000Z</time>
      </trkpt>
      <trkpt lat="45.56954" lon="2.81473">
        <ele>1178.7</ele>
        <time>2021-09-18T15:10:03.000Z</time>
      </trkpt>
      <trkpt lat="45.56963" lon="2.8147">
        <ele>1178</ele>
        <time>2021-09-18T15:10:08.000Z</time>
      </trkpt>
      <trkpt lat="45.56969" lon="2.81467">
        <ele>1177.7</ele>
        <time>2021-09-18T15:10:13.000Z</time>
      </trkpt>
      <trkpt lat="45.56978" lon="2.81464">
        <ele>1177.3</ele>
        <time>2021-09-18T15:10:22.000Z</time>
      </trkpt>
      <trkpt lat="45.56985" lon="2.81461">
        <ele>1177.1</ele>
        <time>2021-09-18T15:10:33.000Z</time>
      </trkpt>
      <trkpt lat="45.56987" lon="2.8146">
        <ele>1177.1</ele>
        <time>2021-09-18T15:10:49.000Z</time>
      </trkpt>
      <trkpt lat="45.56994" lon="2.81459">
        <ele>1177</ele>
        <time>2021-09-18T15:11:03.000Z</time>
      </trkpt>
      <trkpt lat="45.57" lon="2.81456">
        <ele>1176.8</ele>
        <time>2021-09-18T15:11:08.000Z</time>
      </trkpt>
      <trkpt lat="45.57009" lon="2.8145">
        <ele>1176.5</ele>
        <time>2021-09-18T15:11:12.000Z</time>
      </trkpt>
      <trkpt lat="45.57009" lon="2.8145">
        <ele>1176</ele>
        <time>2021-09-18T15:11:24.000Z</time>
      </trkpt>
      <trkpt lat="45.5702" lon="2.81444">
        <ele>1176.1</ele>
        <time>2021-09-18T15:11:29.000Z</time>
      </trkpt>
      <trkpt lat="45.57029" lon="2.8144">
        <ele>1175.7</ele>
        <time>2021-09-18T15:11:33.000Z</time>
      </trkpt>
      <trkpt lat="45.57037" lon="2.81437">
        <ele>1174.5</ele>
        <time>2021-09-18T15:11:40.000Z</time>
      </trkpt>
      <trkpt lat="45.57045" lon="2.81436">
        <ele>1173.8</ele>
        <time>2021-09-18T15:11:49.000Z</time>
      </trkpt>
      <trkpt lat="45.5706" lon="2.81431">
        <ele>1173.6</ele>
        <time>2021-09-18T15:11:54.000Z</time>
      </trkpt>
      <trkpt lat="45.57063" lon="2.81429">
        <ele>1172.5</ele>
        <time>2021-09-18T15:12:04.000Z</time>
      </trkpt>
      <trkpt lat="45.5708" lon="2.81421">
        <ele>1172.1</ele>
        <time>2021-09-18T15:12:08.000Z</time>
      </trkpt>
      <trkpt lat="45.57093" lon="2.81412">
        <ele>1171.1</ele>
        <time>2021-09-18T15:12:13.000Z</time>
      </trkpt>
      <trkpt lat="45.57098" lon="2.81408">
        <ele>1171.2</ele>
        <time>2021-09-18T15:12:23.000Z</time>
      </trkpt>
      <trkpt lat="45.57104" lon="2.81402">
        <ele>1170.7</ele>
        <time>2021-09-18T15:12:33.000Z</time>
      </trkpt>
      <trkpt lat="45.57108" lon="2.814">
        <ele>1171.2</ele>
        <time>2021-09-18T15:12:46.000Z</time>
      </trkpt>
      <trkpt lat="45.57115" lon="2.81398">
        <ele>1170.8</ele>
        <time>2021-09-18T15:13:00.000Z</time>
      </trkpt>
      <trkpt lat="45.57123" lon="2.81395">
        <ele>1170.1</ele>
        <time>2021-09-18T15:13:09.000Z</time>
      </trkpt>
      <trkpt lat="45.57131" lon="2.81391">
        <ele>1169.1</ele>
        <time>2021-09-18T15:13:18.000Z</time>
      </trkpt>
      <trkpt lat="45.57142" lon="2.81386">
        <ele>1169.8</ele>
        <time>2021-09-18T15:13:22.000Z</time>
      </trkpt>
      <trkpt lat="45.57152" lon="2.81385">
        <ele>1168.4</ele>
        <time>2021-09-18T15:13:26.000Z</time>
      </trkpt>
      <trkpt lat="45.57156" lon="2.81384">
        <ele>1170</ele>
        <time>2021-09-18T15:13:38.000Z</time>
      </trkpt>
      <trkpt lat="45.57169" lon="2.81381">
        <ele>1169.2</ele>
        <time>2021-09-18T15:13:43.000Z</time>
      </trkpt>
      <trkpt lat="45.57174" lon="2.8138">
        <ele>1168.2</ele>
        <time>2021-09-18T15:13:59.000Z</time>
      </trkpt>
      <trkpt lat="45.57189" lon="2.81376">
        <ele>1168.4</ele>
        <time>2021-09-18T15:14:04.000Z</time>
      </trkpt>
      <trkpt lat="45.57197" lon="2.81371">
        <ele>1167.4</ele>
        <time>2021-09-18T15:14:15.000Z</time>
      </trkpt>
      <trkpt lat="45.57202" lon="2.81368">
        <ele>1167.2</ele>
        <time>2021-09-18T15:14:21.000Z</time>
      </trkpt>
      <trkpt lat="45.57213" lon="2.81361">
        <ele>1166.9</ele>
        <time>2021-09-18T15:14:25.000Z</time>
      </trkpt>
      <trkpt lat="45.5722" lon="2.81357">
        <ele>1166.1</ele>
        <time>2021-09-18T15:14:32.000Z</time>
      </trkpt>
      <trkpt lat="45.57228" lon="2.81351">
        <ele>1165.4</ele>
        <time>2021-09-18T15:14:36.000Z</time>
      </trkpt>
      <trkpt lat="45.57228" lon="2.81351">
        <ele>1165.3</ele>
        <time>2021-09-18T15:14:40.000Z</time>
      </trkpt>
      <trkpt lat="45.57237" lon="2.81344">
        <ele>1164.9</ele>
        <time>2021-09-18T15:14:44.000Z</time>
      </trkpt>
      <trkpt lat="45.57242" lon="2.81341">
        <ele>1164.6</ele>
        <time>2021-09-18T15:14:48.000Z</time>
      </trkpt>
      <trkpt lat="45.5725" lon="2.81336">
        <ele>1164.4</ele>
        <time>2021-09-18T15:14:52.000Z</time>
      </trkpt>
      <trkpt lat="45.57257" lon="2.8133">
        <ele>1164.3</ele>
        <time>2021-09-18T15:15:00.000Z</time>
      </trkpt>
      <trkpt lat="45.57264" lon="2.81324">
        <ele>1163.9</ele>
        <time>2021-09-18T15:15:09.000Z</time>
      </trkpt>
      <trkpt lat="45.57269" lon="2.81319">
        <ele>1163.6</ele>
        <time>2021-09-18T15:15:17.000Z</time>
      </trkpt>
      <trkpt lat="45.57276" lon="2.81314">
        <ele>1163</ele>
        <time>2021-09-18T15:15:23.000Z</time>
      </trkpt>
      <trkpt lat="45.5728" lon="2.81311">
        <ele>1162.1</ele>
        <time>2021-09-18T15:15:29.000Z</time>
      </trkpt>
      <trkpt lat="45.57285" lon="2.81308">
        <ele>1162.1</ele>
        <time>2021-09-18T15:15:35.000Z</time>
      </trkpt>
      <trkpt lat="45.5729" lon="2.81304">
        <ele>1162.1</ele>
        <time>2021-09-18T15:15:48.000Z</time>
      </trkpt>
      <trkpt lat="45.57298" lon="2.81295">
        <ele>1161.8</ele>
        <time>2021-09-18T15:15:52.000Z</time>
      </trkpt>
      <trkpt lat="45.57306" lon="2.81288">
        <ele>1161.2</ele>
        <time>2021-09-18T15:15:56.000Z</time>
      </trkpt>
      <trkpt lat="45.57314" lon="2.81284">
        <ele>1160.4</ele>
        <time>2021-09-18T15:16:03.000Z</time>
      </trkpt>
      <trkpt lat="45.5732" lon="2.8128">
        <ele>1161</ele>
        <time>2021-09-18T15:16:17.000Z</time>
      </trkpt>
      <trkpt lat="45.57329" lon="2.81276">
        <ele>1161.1</ele>
        <time>2021-09-18T15:16:22.000Z</time>
      </trkpt>
      <trkpt lat="45.57335" lon="2.81274">
        <ele>1160.5</ele>
        <time>2021-09-18T15:16:40.000Z</time>
      </trkpt>
      <trkpt lat="45.57343" lon="2.81271">
        <ele>1160.1</ele>
        <time>2021-09-18T15:16:49.000Z</time>
      </trkpt>
      <trkpt lat="45.57347" lon="2.81268">
        <ele>1158.9</ele>
        <time>2021-09-18T15:16:56.000Z</time>
      </trkpt>
      <trkpt lat="45.57355" lon="2.81267">
        <ele>1157.3</ele>
        <time>2021-09-18T15:17:13.000Z</time>
      </trkpt>
      <trkpt lat="45.57358" lon="2.81259">
        <ele>1153.5</ele>
        <time>2021-09-18T15:17:46.000Z</time>
      </trkpt>
      <trkpt lat="45.57355" lon="2.8125">
        <ele>1150.7</ele>
        <time>2021-09-18T15:18:03.000Z</time>
      </trkpt>
      <trkpt lat="45.57356" lon="2.8124">
        <ele>1147.1</ele>
        <time>2021-09-18T15:18:20.000Z</time>
      </trkpt>
      <trkpt lat="45.57356" lon="2.81231">
        <ele>1140.9</ele>
        <time>2021-09-18T15:18:56.000Z</time>
      </trkpt>
      <trkpt lat="45.57358" lon="2.81221">
        <ele>1135.2</ele>
        <time>2021-09-18T15:19:24.000Z</time>
      </trkpt>
      <trkpt lat="45.57356" lon="2.81208">
        <ele>1134.6</ele>
        <time>2021-09-18T15:19:29.000Z</time>
      </trkpt>
      <trkpt lat="45.57358" lon="2.812">
        <ele>1131.4</ele>
        <time>2021-09-18T15:19:49.000Z</time>
      </trkpt>
      <trkpt lat="45.57361" lon="2.81194">
        <ele>1129.8</ele>
        <time>2021-09-18T15:20:01.000Z</time>
      </trkpt>
      <trkpt lat="45.57363" lon="2.81182">
        <ele>1127.7</ele>
        <time>2021-09-18T15:20:16.000Z</time>
      </trkpt>
      <trkpt lat="45.57361" lon="2.8117">
        <ele>1125</ele>
        <time>2021-09-18T15:20:39.000Z</time>
      </trkpt>
      <trkpt lat="45.57355" lon="2.81164">
        <ele>1123.1</ele>
        <time>2021-09-18T15:20:58.000Z</time>
      </trkpt>
      <trkpt lat="45.57348" lon="2.81162">
        <ele>1121.1</ele>
        <time>2021-09-18T15:21:12.000Z</time>
      </trkpt>
      <trkpt lat="45.57345" lon="2.81151">
        <ele>1117.7</ele>
        <time>2021-09-18T15:21:28.000Z</time>
      </trkpt>
      <trkpt lat="45.57344" lon="2.81145">
        <ele>1112.7</ele>
        <time>2021-09-18T15:23:37.000Z</time>
      </trkpt>
      <trkpt lat="45.57344" lon="2.81145">
        <ele>1112.7</ele>
        <time>2021-09-18T15:23:38.000Z</time>
      </trkpt>
    </trkseg>
  </trk>
</gpx>